GFSSGP_prec_radar_003.txt.gz
Reflectivity
-20 -20 -20 -20 -20 -20 -20 -20 -20 -20 -20 -20 -20 -20 -20 -20 -20 -20 -20 -20 -20 -20 -20 -16 13 9 -12 -20 -20 -20 -20 -20 -20 14 -10 -20 -20 -20 14 -7 -20 -20 -20 -20 -20 -20 -20 -20 -20
-20 -20 -20 -20 -20 -20 -20 -20 -20 -20 -20 -20 -20 -20 -20 -20 -20 -20 -20 -20 -20 -20 -20 -16 17 7 -15 -0 -12 -20 -20 -20 -20 -20 -20 -20 -1 18 17 -1 -20 -20 -20 -20 -20 -20 -20 -20 -20
-20 -20 -20 -20 -20 -20 -20 -20 -20 -20 -20 -20 -20 -20 -20 -20 4 -20 5 -20 -14 -20 -20 5 -7 13 -13 -1 4 -20 -20 -20 -20 -20 6 10 -1 4 -20 -20 -20 -20 -20 -20 -20 -20 -20 -20 -20
-20 -20 -20 -20 -20 -20 -20 -20 -20 -20 -20 -20 -20 -20 -20 -20 -9 -20 -19 -18 -20 -6 -19 13 19 -1 -20 10 2 2 -17 -20 -20 -20 -20 -14 14 15 14 -20 -20 -20 -20 -20 -20 -20 -20 -20 -20
-20 -20 -20 -20 -20 -20 -20 -20 -20 -20 -20 -20 -20 -20 -20 -20 -20 -20 -20 -20 -20 -20 -20 2 19 15 -16 17 13 11 4 -2 -20 -20 -20 -6 10 13 22 -15 -20 -20 -20 -20 -20 -1 3 3 -2
-20 -20 -20 -20 -20 -20 -20 -20 -20 -20 -20 -20 -20 -20 -20 -20 -20 -20 -20 -20 -20 -20 -20 0 13 -11 17 17 17 9 -19 -12 -20 -20 -20 -20 8 -12 14 22 -20 -20 -20 -4 -20 -8 1 -16 -8
-20 -20 -20 -20 -20 -20 -20 -20 -20 -20 -20 -20 -20 -20 -20 -20 -20 -20 -20 -20 -20 -20 -20 -18 2 1 -6 17 17 -14 -20 -8 -20 -20 -20 -20 -20 -20 -19 -11 -20 15 3 -20 -20 8 -20 -8 7
-20 -20 -20 -20 -20 -20 -20 -20 -20 -20 -20 -20 -20 -20 -20 -20 -20 -20 -20 -20 -20 -20 -20 -20 6 8 11 -18 12 10 -20 12 -20 -5 -20 -20 -20 -20 -20 -20 -20 -20 -20 -13 -7 7 -15 -20 -20
-20 -20 -20 -20 -20 -20 -20 -20 -20 -20 -20 -20 -20 -20 -20 -20 -20 -20 -20 -20 -20 -17 -20 -16 -19 11 12 15 7 1 -20 7 -20 -20 -20 -20 -20 -20 -20 -20 -20 -20 -20 10 -12 -20 -20 -20 -20
-20 -20 -20 -20 -20 -20 -20 -20 -20 -20 -20 -20 -20 -20 -20 -20 -20 -20 -20 -20 -20 -20 -20 -6 -1 -13 12 12 11 10 -20 -20 -20 -20 -20 -20 -20 -20 -20 -20 -20 -20 -20 -20 -20 -20 -20 -20 -20
-20 -20 -20 -20 -20 -20 -20 -20 -20 -20 -20 -20 -20 -20 -20 -20 -20 -20 -20 -20 -20 -20 -20 -20 4 7 8 -19 9 9 -20 -20 -20 -20 -20 -20 -20 -20 -20 -20 -20 -20 -20 -20 -20 -20 -20 -20 -20
-20 -20 -20 -20 -20 -20 -20 -20 -20 -20 -20 -20 -20 -20 -20 -20 -20 -20 -20 -20 -20 -20 -20 -20 6 -13 -10 -20 -20 -20 -20 -20 -20 -20 -20 -20 -20 -20 -20 -20 -20 -20 -20 -20 -20 -20 -20 -20 -20
-20 -20 -20 -20 -20 -20 -20 -20 -20 -20 -20 -20 -20 -20 -20 -20 -20 -20 -20 -20 -20 -20 -20 -20 -20 -20 -16 -20 -20 -20 -20 -20 -20 -20 -20 -20 -20 -20 -20 -20 -20 -20 -20 -20 -20 -20 -20 -20 -20
-20 -20 -20 -20 -20 -20 -20 -20 -20 -20 -20 -20 -20 -20 -20 -20 -20 -20 -20 -20 -20 -20 -20 -20 -20 -20 -20 -20 -20 -20 -20 -20 -20 -20 -20 -20 -20 -11 1 11 -8 -20 -20 -20 -20 -20 -20 -20 -20
-20 -20 -20 -20 -20 -20 -20 -20 -20 -20 -20 -20 -20 -20 -20 -20 -20 -20 -20 -20 -20 -20 -20 -20 -20 -20 -20 -20 -20 10 -20 -20 -20 -20 -20 -20 -9 9 2 -20 -20 -20 -20 -20 -20 -20 -20 -20 -20
-20 -20 -20 -20 -20 -20 -20 -20 -20 -20 -20 -20 -20 -20 -20 -20 -20 -20 -20 -20 -20 -20 -20 -20 -20 -20 -20 -20 -13 -4 -20 -20 -7 0 -5 1 5 -3 -5 -20 -20 -20 -20 -20 -20 -20 -20 -20 -20
-20 -20 -20 -20 -20 -20 -20 -20 -20 -20 -20 -20 -20 -20 -20 -20 -20 -20 -20 -20 -20 -20 -20 -20 -20 -20 -20 -20 -20 -5 -20 -15 -0 -15 6 -13 3 -19 -20 -20 -20 -20 -20 -20 -20 -20 -20 -20 -20
-20 -20 -20 -20 -20 -20 -20 -20 -20 -20 -20 -20 -20 -20 -20 -20 -20 -20 -20 -20 -20 -20 -20 -20 -20 -20 -20 -20 -20 -9 -12 -14 -19 -6 13 -17 -0 -20 -20 -20 -20 -20 -20 -20 -20 -20 -20 -20 -20
-20 -20 -20 -20 -20 -20 -20 -20 -20 -20 -20 -20 -20 -20 -20 -20 -20 -20 -20 -20 -20 -20 -20 -20 -20 -20 -20 -20 -20 -20 -19 14 9 13 11 -7 -4 -20 -20 -20 -20 -20 -20 -20 -20 -20 -20 -20 -20
-20 -19 -17 -20 -20 -20 -20 -20 -20 -20 -20 -20 -20 -20 -20 -20 -20 -20 -20 -20 -20 -20 -20 -20 -20 -20 -20 -8 2 -20 -20 7 4 14 13 2 -18 -20 -20 -20 -20 -20 -20 -20 -20 -20 -20 -20 -20
-12 -20 -20 -20 -20 -20 -20 -20 -20 -20 -20 -20 -20 -20 -20 -20 -20 -20 -20 -20 -20 -20 -20 -20 -18 -20 -20 3 -4 13 -16 5 3 10 7 -14 -20 -20 -20 -20 -20 -20 -20 -20 -20 -20 -20 -20 -20
-20 -20 -20 -20 4 -5 -20 -20 -20 -20 -20 -20 -20 -20 -20 -20 -20 -20 -20 -20 -20 -20 -20 -2 -20 -20 -20 -19 5 -20 -20 -20 -20 4 -6 -20 -20 -20 -20 -20 -20 -20 -20 -20 -20 -20 -20 -20 -20
-20 -20 -20 -20 3 1 -5 12 -20 -20 -20 -20 -20 -20 -20 -20 -20 -20 -20 -20 -20 -20 -20 -20 -20 -20 16 -17 -20 -20 1 -20 -20 -5 -20 -20 -20 -20 -20 -20 -20 -20 -20 -20 -20 -20 -20 -20 -20
-20 -20 -20 -20 -3 5 -20 -20 -20 -20 -20 -20 -20 -20 -20 -20 -20 -20 -20 -20 -20 -20 -20 -20 -20 -20 -20 -20 -20 -19 -13 -20 -20 -20 -20 -20 -20 -20 -20 -20 -20 -20 -20 -20 -20 -20 -20 -20 -20
-20 6 0 12 12 -11 -20 -20 -20 -20 -20 -20 -20 -20 -20 -20 -20 -20 -20 -20 -20 -20 -20 -20 -20 -20 -20 -20 -20 10 -18 -20 -20 -20 -20 -20 -20 -20 -20 -20 -20 -20 -20 -20 -20 -20 -20 -20 -20
-20 -18 -2 -14 -8 -20 -20 -20 -20 -20 -20 -20 -20 -20 -20 -20 -20 -20 -20 -20 -20 -20 -20 -20 -20 -20 -20 -20 0 3 -15 -20 -20 -20 -20 -20 -20 -20 -20 -20 -20 -20 -20 -20 -20 -20 -20 -20 -20
6 1 -8 23 19 16 -19 -20 -20 -20 -20 -20 -20 -20 -20 -20 -20 -20 -20 -20 -20 -20 -20 -20 -20 -20 -20 1 10 2 1 -20 -20 -20 -20 -20 -20 -20 -20 -20 -20 -20 -20 -20 -20 -20 -20 -20 -20
-19 -17 6 13 16 2 -20 -20 -20 -20 -20 -20 -20 -20 -20 -20 -20 -20 -20 -20 -20 -20 -20 -20 -20 -20 3 10 -2 -20 -20 -20 -20 -20 -20 -20 -20 -20 -20 -20 -20 -20 -20 -20 -20 -20 -20 -20 -20
-9 -1 2 3 25 13 -18 -20 -20 -20 -20 -20 -20 -20 -20 -20 -20 -20 -20 -20 -20 -20 -20 -20 -20 -20 -9 -16 -20 -20 -20 -20 -20 -20 -20 -20 -20 -20 -20 -20 -20 -20 -20 -20 -20 -20 -20 -20 -20
-11 1 -1 11 -12 -20 -20 -20 -20 -20 -20 -20 -20 -20 -20 -20 -20 -20 -20 -20 -20 -20 -20 -20 -9 -3 10 -20 -20 -20 -20 -20 -20 -20 -20 -20 -20 -20 -20 -20 -20 -20 -20 -20 -20 -20 -20 -20 -20

GFSSGP_prec_radar_006.txt.gz
Reflectivity
-20 -20 -20 -20 -20 -20 -20 -20 -20 -20 -20 -20 -20 -20 -20 -20 -20 -20 -20 -20 -20 -20 -20 -20 14 7 -15 -20 -20 -20 -20 -20 -20 -2 -20 -20 -20 -20 -20 -20 -20 -20 -20 -20 -20 -20 -20 -20 -20
-20 -20 -20 -20 -20 -20 -20 -20 -20 -20 -20 -20 -20 -20 -20 -20 -20 -20 -20 -20 -20 -20 -20 -10 -18 13 4 -19 -20 -20 -12 -20 -20 -20 -20 -20 -20 -2 14 -20 -20 -20 -20 -20 -20 -20 -20 -13 -20
-20 -20 -20 -20 -20 -20 -20 -20 -20 -20 -20 -20 -20 -20 -20 -20 -20 -20 -20 -20 -20 -20 -20 -20 6 12 1 -15 -4 -20 -20 -20 -20 -20 -20 -20 -20 -20 -20 -20 -20 -20 -20 -20 -20 -20 -20 -20 -20
-20 -20 -20 -20 -20 -20 -20 -20 -20 -20 -20 -20 -20 -20 -20 -20 -20 -20 -20 -20 -12 -20 -20 -19 -15 2 5 12 10 -2 -20 -20 -20 -20 -20 -20 9 1 -20 -20 -20 -20 -20 -20 -20 -20 -20 -2 -14
-20 -20 -20 -20 -20 -20 -20 -20 -20 -20 -20 -20 -20 -20 -20 -20 -20 -20 -20 -20 -20 -20 -20 -1 5 -6 11 16 13 15 -11 -20 -20 -20 -20 -20 -20 -20 23 2 -20 -20 -20 -20 -20 2 10 -0 -20
-20 -20 -20 -20 -20 -20 -20 -20 -20 -20 -20 -20 -20 -20 -20 -20 -20 -20 -20 -20 -20 -20 2 1 3 10 -7 16 15 13 -19 -20 -20 -20 -20 -20 -20 -13 -20 -20 -20 -20 -20 -16 -20 -7 -20 -20 7
-20 -20 -20 -20 -20 -20 -20 -20 -20 -20 -20 -20 -20 -20 -20 -20 -20 -20 -20 -20 -20 -20 -20 -20 -20 -18 17 15 13 6 -20 -20 -20 -20 -20 -3 -20 -20 -20 -12 4 4 -20 -20 -20 -2 18 1 -20
-20 -20 -20 -20 -20 -20 -20 -20 -20 -20 -20 -20 -20 -20 -20 -20 -20 -20 -20 -20 -20 -20 -20 -20 -20 -20 5 -17 14 -8 -20 -20 -20 -20 -20 -20 -20 -20 -20 -20 -7 -20 -20 -11 -1 -18 -20 -20 -20
-20 -20 -20 -20 -20 -20 -20 -20 -20 -20 -20 -20 -20 -20 -20 -20 -20 -20 -20 -20 -20 -20 -20 -20 -20 -20 10 13 -6 2 -20 -11 -20 -20 -20 -20 -20 -20 -20 -20 -20 -20 -20 -20 -20 -20 -20 -20 -20
-20 -20 -20 -20 -20 -20 -20 -20 -20 -20 -20 -20 -20 -20 -20 -20 -20 -20 -20 -20 -20 -20 -20 -20 -20 -6 6 12 -10 6 -20 3 -6 -20 -20 -20 -20 -20 -20 -20 -20 -20 -20 -20 -20 -20 -20 -20 -20
-20 -20 -20 -20 -20 -20 -20 -20 -20 -20 -20 -20 -20 -20 -20 -20 -20 -20 -20 -20 -20 -20 -20 -20 -4 1 2 9 7 -7 -18 -20 1 -20 -20 -20 -20 -20 -20 -20 -20 2 -20 -20 -20 -20 -20 -20 -20
-20 -20 -20 -20 -20 -20 -20 -20 -20 -20 -20 -20 -20 -20 -20 -20 -20 -20 -20 -20 -20 -20 -20 -20 -20 -20 -20 4 3 -1 -18 -20 -5 -15 -20 -20 -20 -20 -18 0 -20 -20 -20 -20 -20 -20 -20 -20 -20
-20 -20 -20 -20 -20 -20 -20 -20 -20 -20 -20 -20 -20 -20 -20 -20 -20 -20 -20 -20 -20 -20 -20 -20 -20 -7 -20 -1 0 -7 -18 -20 -12 -20 -20 -20 -20 -13 -20 -20 -20 -20 -20 -20 -20 -20 -20 -20 -20
-20 -20 -20 -20 -20 -20 -20 -20 -20 -20 -20 -20 -20 -20 -20 -20 -20 -20 -20 -20 -20 -20 -20 -20 -20 -20 -3 -19 -7 -14 -20 -11 2 -20 -20 -18 -1 -18 -20 -20 -20 -20 -20 -20 -20 -20 -20 -20 -20
-20 -20 -20 -20 -20 -20 -20 -20 -20 -20 -20 -20 -20 -20 -20 -20 -20 -20 -20 -20 -20 -20 -20 -20 -20 -20 -20 -10 -11 -20 -20 -19 -1 -20 -19 5 -20 -20 -20 -20 -20 -20 -20 -20 -20 -20 -20 -20 -20
-20 -20 -20 -20 -20 -20 -20 -20 -20 -20 -20 -20 -20 -20 -20 -20 -20 -20 -20 -20 -20 -20 -20 -20 -20 -20 -13 -4 -3 -13 -20 -3 -20 -1 -19 -20 -20 -20 -20 -20 -20 -20 -20 -20 -20 -20 -20 -20 -20
-20 -20 -20 -20 -20 -20 -20 -20 -20 -20 -20 -20 -20 -20 -20 -20 -20 -20 -20 -20 -20 -20 -20 -20 -20 -20 -20 -1 -5 -16 -12 -20 -20 -20 -20 -20 -20 -3 -20 -20 -20 -20 -20 -20 -20 -20 -20 -20 -20
-20 -20 -20 -20 -20 -20 -20 -20 -20 -20 -20 -20 -20 -20 -20 -20 -20 -20 -20 -20 -20 -20 -20 -20 -20 -20 -20 -19 12 -18 -20 -20 -20 -20 -20 -20 -20 -14 -20 -20 -20 -20 -20 -20 -20 -20 -20 -20 -20
-20 -20 -20 -20 -20 -20 -20 -20 -20 -20 -20 -20 -20 -20 -20 -20 -20 -20 -20 -20 -20 -20 -20 -20 -20 -20 -20 -19 -20 -20 -20 -20 -20 -20 -20 -20 -5 -20 -20 -20 -20 -20 -20 -20 -20 -20 -20 -20 -20
-20 -20 -20 -20 -20 -20 -20 -20 -20 -20 -20 -20 -20 -20 -20 -20 -20 -20 -20 -20 -20 -20 -20 -20 -20 -20 -20 -20 10 -20 21 -20 -20 -20 -8 -19 -7 -11 -20 -20 -20 -20 -20 -20 -20 -20 -20 -20 -20
-20 -20 -20 -20 -20 -20 -20 -20 -20 -20 -20 -20 -20 -20 -20 -20 -20 -20 -20 -20 -20 -20 -20 -20 -20 -20 -20 -20 -20 -12 -20 -20 -20 -20 -11 3 8 -20 -20 -20 -20 -20 -20 -20 -20 -20 -20 -20 -20
-20 -20 -20 -20 -5 -11 -20 -20 -20 -20 -20 -20 -20 -20 -20 -20 -20 -20 -20 -20 -20 -20 -20 -20 -20 -20 -20 -20 -20 -20 -20 -20 3 -17 4 5 -1 -20 -20 -20 -20 -20 -20 -20 -20 -20 -20 -20 -20
-19 -20 -20 -20 -5 -3 -20 -14 -20 -20 -20 -20 -20 -20 -20 -20 -20 -20 -20 -20 -20 -20 -20 -20 -20 -20 -20 -20 -20 -20 20 -20 -20 -5 12 -5 -9 -20 -20 -20 -20 -20 -20 -20 -20 -20 -20 -20 -20
-20 -11 -0 -2 -16 -2 -20 -20 -20 -20 -20 -20 -20 -20 -20 -20 -20 -20 -20 -20 -20 -20 -20 -20 -20 -20 -20 -20 -20 -20 -20 -20 -20 -15 -18 -9 -20 -20 -20 -20 -20 -20 -20 -20 -20 -20 -20 -20 -20
-1 4 -4 1 11 -20 -20 -20 -20 -20 -20 -20 -20 -20 -20 -20 -20 -20 -20 -20 -20 -20 -20 -20 -20 -20 -20 -20 -20 -20 -20 -20 -0 -20 -20 -20 -20 -20 -20 -20 -20 -20 -20 -20 -20 -20 -20 -20 -20
-20 -5 -17 -20 -20 -15 -20 -12 -20 -20 -20 -20 -20 -20 -20 -20 -20 -20 -20 -20 -20 -20 -20 -20 -20 -20 -20 -20 -20 -18 -20 -4 -20 -20 -20 -20 -20 -20 -20 -20 -20 -20 -20 -20 -20 -20 -20 -20 -20
3 3 -19 11 -12 13 1 -20 -20 -20 -20 -20 -20 -20 -20 -20 -20 -20 -20 -20 -20 -20 -20 -20 -20 -20 -20 -20 -20 -20 -3 13 -20 -20 -20 -20 -20 -20 -20 -20 -20 -20 -20 -20 -20 -20 -20 -20 -20
-3 -8 12 15 11 12 -8 -20 -20 -20 -20 -17 -20 -20 -20 -20 -20 -20 -20 -20 -20 -20 -20 -20 -20 -20 -20 -20 -20 -17 13 -20 -20 -20 -20 -20 -20 -20 -20 -20 -20 -20 -20 -20 -20 -20 -20 -20 -20
-11 5 8 -3 16 9 3 -18 -20 -20 -18 -3 -20 -20 -20 -20 -20 -20 -20 -20 -20 -20 -20 -20 -20 -20 -20 -20 -20 13 -18 -20 -20 -20 -20 -20 -20 -20 -20 -20 -20 -20 -20 -20 -20 -20 -20 -20 -20
-20 -7 7 22 17 21 10 -13 -20 -20 -20 -20 -20 -20 -20 -20 -20 -20 -20 -20 -20 -20 -20 -20 -20 -20 -20 -20 13 -16 19 -19 -20 -20 -20 -20 -20 -20 -20 -20 -20 -20 -20 -20 -20 -20 -20 -20 -20

GFSSGP_prec_radar_009.txt.gz
Reflectivity
-20 -20 -20 -20 -20 -20 -20 -20 -20 -20 -20 -20 -20 -20 -20 -20 -20 -20 -20 -20 -20 -20 -20 -20 -20 11 -20 -20 -20 -20 -20 -20 -8 -20 -20 -20 -20 -20 -20 -20 -20 -20 -20 -20 -20 -20 -20 -20 -20
-20 -20 -20 -20 -20 -20 -20 -20 -20 -20 -20 -20 -20 -20 -20 -20 -20 -20 -20 -20 -20 -20 -20 -20 -0 9 -18 -20 -20 -20 -20 -20 -20 -20 -20 -20 -20 -20 -20 -20 -20 -20 -20 -20 -20 -20 -20 -20 -20
-20 -20 -20 -20 -20 -20 -20 -20 -20 -20 -20 -20 -20 -20 -20 -20 -20 -20 -20 -20 -20 -20 -20 -20 -20 -5 -20 -20 -20 -20 -20 -20 -20 -20 -20 -20 -20 -8 -20 -20 -20 -20 -20 -20 -20 -20 -20 -20 -20
-20 -20 -20 -20 -20 -20 -20 -20 -20 -20 -20 -20 -20 -20 -20 -20 -20 -20 -20 -20 -20 -20 -20 -20 6 8 6 14 -20 -20 -20 -20 -20 -20 -20 -20 -20 -20 -20 -20 -20 -20 -20 -20 -20 -20 -20 -13 -20
-20 -20 -20 -20 -20 -20 -20 -20 -20 -20 -20 -20 -20 -20 -20 -20 -20 -20 -20 -20 -20 -20 -20 -20 -8 10 11 15 9 -14 -20 -20 -20 -20 -20 -20 -20 11 -11 -20 -20 -20 -20 -20 -20 -14 13 -20 -15
-20 -20 -20 -20 -20 -20 -20 -20 -20 -20 -20 -20 -20 -20 -20 -20 -20 -20 -20 -20 -20 -20 -20 -20 -5 -3 0 8 14 12 -20 -20 -20 -20 -20 -9 -20 -20 -20 10 -20 -20 -20 -20 -20 -20 -18 11 -12
-20 -20 -20 -20 -20 -20 -20 -20 -20 -20 -20 -20 -20 -20 -20 -20 -20 -20 -20 -20 -20 -20 -20 -14 -5 5 0 -12 11 15 -20 -20 -20 -20 -20 -16 -20 -20 -20 -15 4 4 -20 -20 -4 -5 -20 -20 -20
-20 -20 -20 -20 -20 -20 -20 -20 -20 -20 -20 -20 -20 -20 -20 -20 -20 -20 -20 -20 -20 -20 -20 -20 -20 6 -20 -20 5 5 -20 -20 -20 -20 -20 -20 -20 -20 -20 -20 10 -20 -20 -20 -20 -20 -20 -20 -20
-20 -20 -20 -20 -20 -20 -20 -20 -20 -20 -20 -20 -20 -20 -20 -20 -20 -20 -20 -20 -20 -20 -20 -20 -20 -20 5 -20 -16 4 -20 -20 -20 -20 -20 -20 -20 -20 -20 -20 -20 -20 -20 -20 -20 -20 -20 -20 -20
-20 -20 -20 -20 -20 -20 -20 -20 -20 -20 -20 -20 -20 -20 -20 -20 -20 -20 -20 -20 -20 -20 -20 -20 -20 -20 -20 6 -20 -20 -20 1 -20 -20 -20 -20 -20 -20 -20 -20 -20 -20 -20 -20 -20 -20 -20 -20 -20
-20 -20 -20 -20 -20 -20 -20 -20 -20 -20 -20 -20 -20 -20 -20 -20 -20 -20 -20 -20 -20 -20 -20 -20 -20 -20 -20 -18 -20 -20 -20 -16 -20 -20 -20 -20 -20 -20 -20 -20 -20 -20 -20 -20 -20 -20 -20 -20 -20
-20 -20 -20 -20 -20 -20 -20 -20 -20 -20 -20 -20 -20 -20 -20 -20 -20 -20 -20 -20 -20 -20 -20 -20 -20 -20 -20 -20 -20 -20 -20 -20 -17 -20 -20 -20 -20 -20 -20 -20 -20 -20 -20 -20 -20 -20 -20 -20 -20
-20 -20 -20 -20 -20 -20 -20 -20 -20 -20 -20 -20 -20 -20 -20 -20 -20 -20 -20 -20 -20 -20 -20 -20 -20 -20 -20 -20 10 -20 -20 -20 -20 -20 -20 -20 -20 -20 -20 -20 -20 -20 -20 -20 -20 -20 -20 -20 -20
-20 -20 -20 -20 -20 -20 -20 -20 -20 -20 -20 -20 -20 -20 -20 -20 -20 -20 -20 -20 -20 -20 -20 -20 -20 -20 2 -19 -16 -20 -20 -20 -20 -20 -20 -20 -20 -20 -20 -20 -20 -20 -20 -20 -20 -20 -20 -20 -20
-20 -20 -20 -20 -20 -20 -20 -20 -20 -20 -20 -20 -20 -20 -20 -20 -20 -20 -20 -20 -20 -20 -20 -20 -20 -20 -20 -17 -18 -13 -20 -20 -19 1 -20 -20 -20 -20 -20 -20 -20 -20 -20 -20 -20 -20 -20 -20 -20
-20 -20 -20 -20 -20 -20 -20 -20 -20 -20 -20 -20 -20 -20 -20 -20 -20 -20 -20 -20 -20 -20 -20 -20 -20 -20 -20 -20 -1 -20 -6 -20 -13 11 -19 4 -20 -20 -20 -20 -20 -20 -20 -20 -20 -20 -20 -20 -20
-20 -20 -20 -20 -20 -20 -20 -20 -20 -20 -20 -20 -20 -20 -20 -20 -20 -20 -20 -20 -20 -20 -20 -20 -20 -20 -20 -16 7 15 -18 3 -16 -8 9 -20 -20 -20 -20 -20 -20 -20 -20 -20 -20 -20 -20 -20 -20
-20 -20 -20 -20 -20 -20 -20 -20 -20 -20 -20 -20 -20 -20 -20 -20 -20 -20 -20 -20 -20 -20 -20 -20 -20 -20 -20 -20 9 -1 2 19 -4 -20 -20 -20 -20 -20 -20 -20 -20 -20 -20 -20 -20 -20 -20 -20 -20
-20 -20 -20 -20 -20 -20 -20 -20 -20 -20 -20 -20 -20 -20 -20 -20 -20 -20 -20 -20 -20 -20 -20 -20 -20 -20 -20 -20 -14 5 -19 24 -20 -20 -20 -20 -20 -20 -20 -20 -20 -20 -20 -20 -20 -20 -20 -20 -20
-20 -20 -20 -20 -20 -20 -20 -20 -20 -20 -20 -20 -20 -20 -20 -20 -20 -20 -20 -20 -20 -20 -20 -20 -20 -20 -20 -20 -20 -20 -20 -20 -6 -20 -20 -20 -8 -15 -20 -20 -20 -20 -20 -20 -20 -20 -20 -20 -20
-20 -20 -20 -20 -20 -20 -20 -20 -20 -20 -20 -20 -20 -20 -20 -20 -20 -20 -20 -20 -20 -20 -20 -20 -20 -20 -20 -20 -20 -5 -19 -20 -7 -20 -20 -20 -12 -20 -20 -20 -20 -20 -20 -20 -20 -20 -20 -20 -20
-20 -20 -20 -20 -20 -20 -20 -20 -20 -20 -20 -20 -20 -20 -20 -20 -20 -20 -20 -20 -20 -20 -20 -20 -20 -20 -20 -20 -20 -20 -20 -20 -20 -20 -20 -14 -20 -3 0 -20 -20 -20 -20 -20 -20 -20 -20 -20 -20
-20 -20 -20 -20 -10 -19 -20 -20 -20 -20 -20 -20 -20 -20 -20 -20 -20 -20 -20 -20 -20 -20 -20 -20 -20 -20 -20 -20 -20 -20 -20 -20 -20 -20 -20 -12 -20 -1 5 -20 -20 -20 -20 -20 -20 -20 -20 -20 -20
-20 -20 -20 -20 -20 -1 -20 -20 -20 -20 -20 -20 -20 -20 -20 -20 -20 -20 -20 -20 -20 -20 -20 -20 -20 -20 -20 -20 -20 -20 -20 -20 -20 -20 -20 -20 -20 5 -9 -20 -20 -20 -20 -20 -20 -20 -20 -20 -20
-20 -19 -12 3 9 -20 -20 -20 -20 -20 -20 -20 -20 -20 -20 -20 -20 -20 -20 -20 -20 -20 -20 -20 -20 -20 -20 -20 -20 -20 -20 2 -20 -20 -20 -20 -3 2 -20 -20 -20 -20 -20 -20 -20 -20 -20 -20 -20
-20 -18 -19 -20 -20 -20 -20 -20 -20 -20 -20 -20 -20 -20 -20 -20 -20 -20 -20 -20 -20 -20 -20 -20 -20 -20 -20 -20 -20 -13 -20 6 -14 -20 -20 -5 -20 -18 -20 -20 -20 -20 -20 -20 -20 -20 -20 -20 -20
-16 -20 -19 -3 -20 -2 -20 -20 -20 -20 -20 -20 -20 -20 -20 -20 -20 -20 -20 -20 -20 -20 -20 -20 -20 -20 -20 -20 -17 -8 -20 15 3 -20 -20 -20 -20 -20 -20 -20 -20 -20 -20 -20 -20 -20 -20 -20 -20
-20 -20 -8 3 -1 -13 -20 -20 -20 -13 -12 -20 -20 -20 -20 -20 -20 -20 -20 -20 -20 -20 -20 -20 -20 -20 -20 -20 -20 -20 -20 -20 -20 -20 -20 -20 -20 -20 -20 -20 -20 -20 -20 -20 -20 -20 -20 -20 -20
-20 2 -3 -5 1 6 -1 -18 -14 0 -6 -18 -20 -20 -20 -20 -20 -20 -20 -20 -20 -20 -20 -20 -20 -20 -20 -20 -20 -20 -20 -2 -11 2 -20 -20 -20 -20 -20 -20 -20 -20 -20 -20 -20 -20 -20 -20 -20
-20 -20 -12 12 -19 12 5 -13 -19 -6 -20 -20 -20 -20 -20 -20 -20 -20 -20 -20 -20 -20 -20 -20 -20 -20 -20 -20 -20 -20 9 -20 17 -8 -20 -20 -20 -20 -20 -20 -20 -20 -20 -20 -20 -20 -20 -20 -20

GFSSGP_prec_radar_012.txt.gz
Reflectivity
-20 -20 -20 -20 -20 -20 -20 -20 -20 -20 -20 -20 -20 -20 -20 -20 -20 -20 -20 -20 -20 -20 -20 -20 -20 -20 -20 -20 -20 -20 -20 9 -20 -20 -20 -20 -20 -20 -20 -20 -20 -20 -20 -20 -20 -20 -20 -20 -20
-20 -20 -20 -20 -20 -20 -20 -20 -20 -20 -20 -20 -20 -20 -20 -20 -20 -20 -20 -20 -20 -20 -20 -20 -20 -20 -20 -20 -20 -20 -20 -20 -20 -20 -20 -20 -20 -20 -20 -20 -20 -20 -20 -20 -20 -20 -20 -20 -20
-20 -20 -20 -20 -20 -20 -20 -20 -20 -20 -20 -20 -20 -20 -20 -20 -20 -20 -20 -20 -20 -20 -20 -20 -20 -0 -20 -20 -20 -20 -20 -20 -20 -20 -20 -20 -20 -20 -20 -20 -20 -20 -20 -20 -20 -20 -20 -20 -20
-20 -20 -20 -20 -20 -20 -20 -20 -20 -20 -20 -20 -20 -20 -20 -20 -20 -20 -20 -20 -20 -20 -20 -20 -20 11 10 -20 -20 -20 -20 -20 -20 -20 -20 -20 -20 -20 -20 -20 -20 -20 -20 -20 -20 -5 -20 -20 -20
-20 -20 -20 -20 -20 -20 -20 -20 -20 -20 -20 -20 -20 -20 -20 -20 -20 -20 -20 -20 -20 -20 -20 -20 -20 -3 7 -20 -20 -20 -20 -20 -20 -20 -20 -20 -20 -20 -20 -20 -20 -20 -20 -20 -20 -1 -20 -20 -11
-20 -20 -20 -20 -20 -20 -20 -20 -20 -20 -20 -20 -20 -20 -20 -20 -20 -20 -20 -20 -20 -20 -20 -20 -20 -19 9 -20 -20 -20 -20 -20 -20 -20 -20 -20 -20 -20 -20 -20 -20 -20 -20 -20 -9 -20 -18 -20 -20
-20 -20 -20 -20 -20 -20 -20 -20 -20 -20 -20 -20 -20 -20 -20 -20 -20 -20 -20 -20 -20 -20 -20 -20 -20 -20 -1 -20 -20 -20 -20 -20 -20 -20 -20 -20 -20 -20 -7 -20 -20 6 -20 -16 -20 -20 -20 -20 -20
-20 -20 -20 -20 -20 -20 -20 -20 -20 -20 -20 -20 -20 -20 -20 -20 -20 -20 -20 -20 -20 -20 -20 -20 -20 -20 -20 -20 -20 -20 -20 -20 -20 -20 -20 -20 -20 -20 12 -20 -20 -20 -20 -20 -20 -20 -20 -20 -20
-20 -20 -20 -20 -20 -20 -20 -20 -20 -20 -20 -20 -20 -20 -20 -20 -20 -20 -20 -20 -20 -20 -7 -20 -20 -20 -14 -20 -20 -20 -20 -20 -20 -20 -20 -20 -20 -20 -20 -20 -20 -20 -20 -20 -20 -20 -20 -20 -20
-20 -20 -20 -20 -20 -20 -20 -20 -20 -20 -20 -20 -20 -20 -20 -20 -20 -20 -20 -20 -20 -20 -20 -10 -20 -5 -20 -6 -20 -20 -20 -20 -20 -20 -20 -20 -20 -20 -20 -20 -20 -20 -20 -20 -20 -20 -20 -20 -20
-20 -20 -20 -20 -20 -20 -20 -20 -20 -20 -20 -20 -20 -20 -20 -20 -20 -20 -20 -20 -20 -20 -20 -12 -20 -20 -20 -17 -20 -20 -20 -20 -20 -20 -20 -20 -20 -20 -20 -20 -20 -20 -20 -20 -20 -20 -20 -20 -20
-20 -20 -20 -20 -20 -20 -20 -20 -20 -20 -20 -20 -20 -20 -20 -20 -20 -20 -20 -20 -20 -20 -20 -20 -20 -11 -20 5 4 -20 -20 -20 -20 -20 -20 -20 -20 -20 -20 -20 -18 -20 -20 -20 -20 -20 -20 -20 -20
-20 -20 -20 -20 -20 -20 -20 -20 -20 -20 -20 -20 -20 -20 -20 -20 -20 -20 -20 -20 -20 -20 -20 -20 -20 -20 -20 -20 3 -14 -18 -20 -20 -20 -20 -20 -20 -20 -20 -20 -20 -20 -20 -20 -20 -20 -20 -20 -20
-20 -20 -20 -20 -20 -20 -20 -20 -20 -20 -20 -20 -20 -20 -20 -20 -20 -20 -20 -20 -20 -20 -20 -20 -20 -20 -20 -2 -19 -8 -20 -20 -20 -20 -20 -20 -20 -20 -20 -20 -20 -20 -20 -20 -20 -20 -20 -20 -20
-20 -20 -20 -20 -20 -20 -20 -20 -20 -20 -20 -20 -20 -20 -20 -20 -20 -20 -20 -20 -20 -20 -20 -20 -20 -20 -20 -20 -18 -20 -14 -20 -20 -14 2 -20 -20 -20 -20 -20 -20 -20 -20 -20 -20 -20 -20 -20 -20
-20 -20 -20 -20 -20 -20 -20 -20 -20 -20 -20 -20 -20 -20 -20 -20 -20 -20 -20 -20 -20 -20 -20 -20 -20 -20 -20 -19 -15 -15 -20 -14 -20 -20 -17 -20 -20 -20 -20 -20 -20 -20 -20 -20 -20 -20 -20 -20 -20
-20 -20 -20 -20 -20 -20 -20 -20 -20 -20 -20 -20 -20 -20 -20 -20 -20 -20 -20 -20 -20 -20 -20 -20 -20 -20 -20 -20 -20 3 -6 -20 -20 -20 11 -20 -20 -20 -20 -20 -20 -20 -20 -20 -20 -20 -20 -20 -20
-20 -20 -20 -20 -20 -20 -20 -20 -20 -20 -20 -20 -20 -20 -20 -20 -20 -20 -20 -20 -20 -20 -20 -20 -20 -20 -20 -7 -20 4 -5 2 -20 -20 -20 -20 -20 -20 -20 -20 -20 -20 -20 -20 -20 -20 -20 -20 -20
-20 -20 -20 -20 -20 -20 -20 -20 -20 -20 -20 -20 -20 -20 -20 -20 -20 -20 -20 -20 -20 -20 -20 -20 -20 -20 -20 -20 -20 -7 -1 -20 -20 -20 -20 -20 -20 -20 -20 -20 -20 -20 -20 -20 -20 -20 -20 -20 -20
-20 -20 -20 -20 -20 -20 -20 -20 -20 -20 -20 -20 -20 -20 -20 -20 -20 -20 -20 -20 -20 -20 -20 -20 -20 -20 -20 -20 -20 2 -10 -20 -20 1 -20 -20 -20 -20 -20 -20 -20 -20 -20 -20 -20 -20 -20 -20 -20
-20 -20 -20 -20 -20 -20 -20 -20 -20 -20 -20 -20 -20 -20 -20 -20 -20 -20 -20 -20 -20 -20 -20 -20 -20 -20 -20 5 -3 -17 -20 -20 -20 2 -20 -20 -20 -20 -20 -20 -20 -20 -20 -20 -20 -20 -20 -20 -20
-20 -20 -20 -20 -20 -20 -20 -20 -20 -20 -20 -20 -20 -20 -20 -20 -20 -20 -20 -20 -20 -20 -20 -20 -20 -20 -20 -20 -20 -20 16 -14 -20 -14 25 -20 -20 -20 -20 -20 -20 -20 -20 -20 -20 -20 -20 -20 -20
-20 -20 -20 -20 -20 -20 -20 -20 -20 -20 -20 -20 -20 -20 -20 -20 -20 -20 -20 -20 -20 -20 -20 -20 -20 -20 6 -18 -20 -20 -20 -20 -20 -8 -18 -20 -20 -15 -20 -20 -20 -20 -20 -20 -20 -20 -20 -20 -20
-20 -20 -20 -20 -20 -20 -20 -20 -20 -20 -20 -20 -20 -20 -20 -20 -20 -20 -20 -20 -20 -20 -20 -20 -20 -20 9 17 -20 -20 -20 -20 -20 -20 -17 -20 -1 -20 11 -20 -11 -19 -20 -20 -20 -20 -20 -20 -20
-20 -20 -20 -16 -11 -20 -20 -20 -20 -20 -20 -20 -20 -20 -20 -20 -20 -20 -20 -20 -20 -20 -20 -20 -20 -20 -20 13 -20 -20 -20 -20 -20 -20 10 -6 -20 -20 -20 -20 4 -18 -20 -20 -20 -20 -20 -20 -20
-20 -20 -20 -20 -20 -20 -20 -20 -20 -20 -20 -20 -20 -20 -20 -20 -20 -20 -20 -20 -20 -20 -20 -20 -20 -8 -17 -20 -20 -20 -20 -20 -20 16 16 -20 -20 -20 -20 11 -3 -20 -20 -20 -20 -20 -20 -20 -20
-18 -20 -20 -20 -20 -20 -20 -20 -20 -20 -20 -20 -20 -20 -20 -20 -20 -20 -20 -20 -20 -20 -20 -20 -20 -20 -16 -20 -20 -20 -20 -20 -20 5 11 -20 -20 -20 17 -6 -14 -20 -20 -20 -20 -20 -20 -20 -20
-20 -20 -14 3 -20 -20 -20 -20 -20 -20 -20 -20 -20 -20 -20 -20 -20 -20 -20 -20 -20 -20 -20 -20 -20 12 13 -20 -20 -17 -20 -20 -20 -8 15 -20 23 -0 -20 1 -20 -20 -20 -20 -20 -20 -20 -20 -20
-20 -18 -2 -16 -19 -19 -20 -20 -20 -20 -20 -20 -20 -20 -20 -20 -20 -20 -20 -20 -20 -20 -20 -20 -20 4 7 -20 -20 -20 -20 -7 -20 18 -20 -6 -9 -6 -20 -20 -20 -20 -20 -20 -20 -20 -20 -20 -20
-20 -20 -20 4 -20 -20 -20 -20 -20 -20 -20 -14 -20 -20 -20 -20 -20 -20 -20 -20 -20 -20 -20 -20 -7 14 -20 -19 -20 -10 11 5 -6 -8 -7 -1 -13 -13 1 -20 -20 -20 -20 -20 -20 -20 -20 -20 -20

GFSSGP_prec_radar_015.txt.gz
Reflectivity
-20 -20 -20 -20 -20 -20 -20 -20 -20 -20 -20 -20 -20 -20 -20 -20 -20 -20 -20 -20 -20 -20 -20 -20 -20 -20 -20 -20 -20 -20 -20 -20 -10 14 15 15 -20 -20 -20 -20 -20 -20 -20 -20 -20 -20 -20 -20 -20
-20 -20 -20 -20 -20 -20 -20 -20 -20 -20 -20 -20 -20 -20 -20 -20 -20 -20 -20 -20 -20 -20 -20 -20 -20 -20 -20 -20 -20 -20 -19 -20 -20 -20 -20 -20 -20 -20 -20 -20 -20 -20 -20 -20 -20 -20 -20 -20 -20
-20 -20 -20 -20 -20 -20 -20 -20 -20 -20 -20 -20 -20 -20 -20 -20 -20 -20 -20 -20 -20 -20 -20 -20 -20 -20 -20 -20 -20 -20 -20 -20 -20 -20 -20 -18 -20 -20 -20 -20 -20 -20 -20 -20 -20 -20 -20 -20 -20
-20 -20 -20 -20 -20 -20 -20 -20 -20 -20 -20 -20 -20 -20 -20 -20 -20 -20 -20 -20 -20 -20 -20 -20 -20 -20 -20 -20 -20 -20 -20 -20 -20 -20 -20 5 -20 -20 -20 -20 -20 -20 -20 -20 -20 -20 -20 -20 -20
-20 -20 -20 -20 -20 -20 -20 -20 -20 -20 -20 -20 -20 -20 -20 -20 -20 -20 -20 -20 -20 -20 -20 -20 -15 -3 -20 -20 -20 -20 -20 -20 -20 -20 -20 -20 -20 -20 -20 -20 -20 -20 -20 -20 -2 -20 -20 -20 -20
-20 -20 -20 -20 -20 -20 -20 -20 -20 -20 -20 -20 -20 -20 -20 -20 -20 -20 -20 -20 -20 -20 -20 -20 -20 -20 -20 -20 -20 -20 -20 -20 -20 -20 -20 -20 -20 -20 -20 -20 -20 -20 -20 -20 -20 -20 -20 -20 -20
-20 -20 -20 -20 -20 -20 -20 -20 -20 -20 -20 -20 -20 -20 -20 -20 -20 -20 -20 -20 -20 -20 -20 20 -20 -20 -8 -20 -20 -20 -20 -20 -20 -20 -20 -20 -20 -20 -20 -20 -20 -20 -20 -20 -20 -20 -20 -20 -20
-20 -20 -20 -20 -20 -20 -20 -20 -20 -20 -20 -20 -20 -20 -20 -20 -20 -20 -20 -20 -20 -20 -20 -20 -20 -20 -20 -20 -20 -20 -20 -20 -20 -20 -20 -20 -20 -19 9 -20 1 -20 -20 -20 -20 -20 -20 -20 -20
-20 -20 -20 -20 -20 -20 -20 -20 -20 -20 -20 -20 -20 -20 -20 -20 -20 -20 -20 -20 -20 -20 -20 -20 -20 -20 -20 -20 -20 -20 -20 -20 -20 -20 -20 -20 -20 -20 -20 -20 -20 -20 -20 -20 -20 -20 -20 -20 -20
-20 -20 -20 -20 -20 -20 -20 -20 -20 -20 -20 -20 -20 -20 -20 -20 -20 -20 -20 -20 -20 -20 -20 -20 -20 -20 -20 -20 -20 -20 -20 -20 -20 -20 -20 -20 -20 -20 -20 -20 -20 -20 -20 -20 -20 -20 -20 -20 -20
-20 -20 -20 -20 -20 -20 -20 -20 -20 -20 -20 -20 -20 -20 -20 -20 -20 -20 -20 -20 -20 -20 -20 -20 -19 -20 -20 -20 -20 -20 -20 -20 -20 -20 -20 -20 -20 -20 -20 -20 -20 -20 -20 -20 -20 -20 -20 -20 -20
-20 -20 -20 -20 -20 -20 -20 -20 -20 -20 -20 -20 -20 -20 -20 -20 -20 -20 -20 -20 -20 -20 -20 -20 -14 -1 -20 -20 -20 -20 -20 -20 -20 -20 -20 -20 -20 -20 -20 -20 -20 -20 -20 -20 -20 -20 -20 -20 -20
-20 -20 -20 -20 -20 -20 -20 -20 -20 -20 -20 -20 -20 -20 -20 -20 -20 -20 -20 -20 -20 -20 -20 -20 -20 -20 -20 -20 -20 -20 -20 -20 -20 -20 -20 -20 -20 -20 -20 -20 -16 -20 -20 -20 -20 -20 -20 -20 -20
-20 -20 -20 -20 -20 -20 -20 -20 -20 -20 -20 -20 -20 -20 -20 -20 -20 -20 -20 -20 -20 -20 -20 -20 -20 -20 -20 -20 -20 -20 -20 -20 -20 -20 -20 -20 -20 -20 -20 -20 -20 -20 -20 -20 -20 -20 -20 -20 -20
-20 -20 -20 -20 -20 -20 -20 -20 -20 -20 -20 -20 -20 -20 -20 -20 -20 -20 -20 -20 -20 -20 -20 -20 -7 -20 -20 -20 -20 -20 -20 -20 -20 -20 -20 -20 -20 -20 -20 -20 -20 -20 -20 -20 -20 -20 -20 -20 -20
-20 -20 -20 -20 -20 -20 -20 -20 -20 -20 -20 -20 -20 -20 -20 -20 -20 -20 -20 -20 -20 -20 -20 -20 -20 -20 -20 -20 -20 -20 -20 -20 -20 -20 -20 -20 -20 -20 -20 -20 -20 -20 -20 -20 -20 -20 -20 -20 -20
-20 -20 -20 -20 -20 -20 -20 -20 -20 -20 -20 -20 -20 -20 -20 -20 -20 -20 -20 -20 -20 -20 -20 -20 -20 -20 -20 -20 -20 -5 -15 -20 -20 -20 -20 -20 -20 -20 -20 -20 -20 -20 -20 -20 -20 -20 -20 -20 -20
-20 -20 -20 -20 -20 -20 -20 -20 -20 -20 -20 -20 -20 -20 -20 -20 -20 -20 -20 -20 -20 -20 -20 -20 -20 -20 -20 -20 -20 -20 -20 -7 -10 -20 -20 -20 -20 -20 -20 -20 -20 -20 -20 -20 -20 -20 -20 -20 -20
-20 -20 -20 -20 -20 -20 -20 -20 -20 -20 -20 -20 -20 -20 -20 -20 -20 -20 -20 -20 -20 -20 -20 -20 -20 -20 -20 -20 -20 -20 -20 -20 9 15 -18 -20 -20 -20 -20 -20 -20 -20 -20 -20 -20 -20 -20 -20 -20
-20 -20 -20 -20 -20 -20 -20 -20 -20 -20 -20 -20 -20 -20 -20 -20 -20 -20 -20 -20 -20 -20 -20 -20 -20 -20 -20 -20 -20 2 -20 -20 -12 -9 -12 -18 -20 -20 -20 -20 -20 -20 -20 -20 -20 -20 -20 -20 -20
-20 -20 -20 -20 -20 -20 -20 -20 -20 -20 -20 -20 -20 -20 -20 -20 -20 -20 -20 -20 -20 -20 -20 -20 -20 -20 -20 -20 -1 -20 3 -20 -20 -20 -17 -14 -1 -13 -20 -20 -20 -20 -20 -20 -20 -20 -20 -20 -20
-20 -20 -20 -20 -20 -20 -20 -20 -20 -20 -20 -20 -20 -20 -20 -20 -20 -20 -20 -20 -20 -20 -20 -20 -20 -20 -20 20 5 -20 10 -20 -5 -17 -17 -20 1 -13 -20 -20 -20 -5 -20 -20 -20 -20 -20 -20 -20
-20 -20 -20 -20 -20 -20 -20 -20 -20 -20 -20 -20 -20 -20 -20 -20 -20 -20 -20 -20 -20 -20 -20 -20 -20 -20 -20 -20 -20 13 2 -18 19 19 21 -20 2 -17 -20 -20 -20 -3 -20 -20 -20 -20 -20 -20 -20
-20 -20 -20 -20 -20 -20 -20 -20 -20 -20 -20 -20 -20 -20 -20 -20 -20 -20 -20 -20 -20 -20 -20 -20 -20 -20 -20 -20 -20 -12 -20 -20 5 10 -7 -20 13 16 -20 -17 -20 -20 -20 -15 -20 -20 -20 -20 -20
-20 -20 -20 -20 -20 -20 -20 -20 -20 -20 -20 -20 -20 -20 -20 -20 -20 -20 -20 -20 -20 -20 -20 -20 -20 -20 -20 -20 -20 -20 -20 -20 13 15 9 -20 3 -2 -20 6 -11 -11 -18 -20 -20 -20 -20 -20 -20
-20 -20 -20 -20 -20 -20 -20 -20 -20 -20 -20 -20 -20 -20 -20 -20 -20 -20 -20 -20 -20 -20 -20 -20 -20 -20 -20 3 5 -20 -20 21 22 13 -16 -20 -20 18 -20 -20 -20 -20 -13 8 -14 -20 -20 -20 -20
-20 -20 -20 -20 -20 -20 -20 -20 -20 -20 -20 -20 -20 -20 -20 -20 -20 -20 -20 -20 -20 -20 -20 -20 -20 -20 -20 -18 12 -1 -20 17 -20 -20 -12 24 -18 -7 -20 -20 -2 -20 9 4 -20 -20 -20 -20 -20
-20 -20 -20 -20 -20 -20 -20 -20 -20 -20 -20 -20 -20 -20 -20 -20 -20 -20 -20 -20 -20 -20 -20 -20 -20 -20 -20 -20 13 -20 21 1 -20 -20 8 11 16 4 1 -9 -20 14 9 -5 -20 -20 -20 -20 -20
-20 -20 -20 -20 -20 -20 -20 -20 -20 -20 -20 -20 -20 -20 -20 -20 -20 -20 -20 -20 -20 -20 -20 -20 -20 -20 -20 -6 -20 -20 14 -20 -20 -20 -20 16 15 21 18 -4 13 20 -13 -8 -20 -20 -20 -20 -20
-20 -20 -20 -20 -20 -20 -20 -20 -20 -20 -20 -20 -18 -20 -20 -20 -20 -20 -20 -20 -20 -20 -20 -20 -20 -20 -18 22 -20 20 -14 -20 -20 -2 -3 17 13 14 20 14 10 -4 -0 -20 -20 -20 -20 -20 -20

GFSSGP_prec_radar_018.txt.gz
Reflectivity
-20 -20 -20 -20 -20 -20 -20 -20 -20 -20 -20 -20 -20 -20 -20 -20 -20 -20 -20 -20 -20 -20 0 -16 -7 -20 -20 -20 -20 -20 -20 -20 -19 -20 -4 10 -20 -20 -20 -20 -20 -20 -20 -4 -14 -20 -20 -20 -20
-20 -20 -20 -20 -20 -20 -20 -20 -20 -20 -20 -20 -20 -20 -20 -20 -20 -20 -20 -20 -20 -20 -20 -4 -20 -20 -20 -20 -20 -20 -20 -20 9 10 8 -20 -20 -20 -20 -20 -20 -20 -20 -20 -20 -20 -20 -20 -20
-20 -20 -20 -20 -20 -20 -20 -20 -20 -20 -20 -20 -20 -20 -20 -20 -20 -20 -20 -20 -20 -20 -20 -20 -20 -20 -20 -20 -20 -20 -20 -20 -20 -20 -17 -20 -20 -20 -20 -20 -20 -20 -20 -20 -20 -20 -20 -20 -20
-20 -20 -20 -20 -20 -20 -20 -20 -20 -20 -20 -20 -20 -20 -20 -20 -20 -20 -20 -20 -20 -20 -20 -20 -20 -20 -20 -20 -9 -20 -20 -20 -20 -20 2 -20 -20 -20 -20 -20 -20 -20 -20 -20 -20 -20 -20 -20 -20
-20 -20 -20 -20 -20 -20 -20 -20 -20 -20 -20 -20 -20 -20 -20 -20 -20 -20 -20 -20 -20 -20 -20 -20 -20 -20 -20 -20 -20 -20 -20 -20 -20 -20 -20 -7 -20 -20 -20 -20 -20 -20 -20 10 -12 -20 -20 -20 -20
-20 -20 -20 -20 -20 -20 -20 -20 -20 -20 -20 -20 -20 -20 -20 -20 -20 -20 -20 -20 -20 -20 -20 -20 -8 -20 -20 -20 -20 -20 -20 -20 -20 -20 -20 -20 -20 -18 -20 -20 -20 -20 -20 2 -8 3 -11 -20 -20
-20 -20 -20 -20 -20 -20 -20 -20 -20 -20 -20 -20 -20 -20 -20 -20 -20 -20 -20 -20 -20 -20 -20 -20 -20 -20 -20 -20 -20 -20 -20 -20 -20 -6 -1 -20 -20 -17 -20 -20 -14 -20 3 8 -14 -16 -20 -20 -20
-20 -20 -20 -20 -20 -20 -20 -20 -20 -20 -20 -20 -20 -20 -20 -20 -20 -20 -20 -20 -20 -20 -19 -20 -20 -20 -20 -20 -20 -20 -20 -20 -20 -20 -20 -20 -20 4 -20 -20 8 -20 2 -20 -20 -20 -20 -20 -20
-20 -20 -20 -20 -20 -20 -20 -20 -20 -20 -20 -20 -20 -20 -20 -20 -20 -20 -20 -20 -20 14 17 -20 -20 -20 -20 -20 -20 -20 -20 -20 -20 -20 -20 -20 -20 -5 -20 -20 -20 -20 -20 -20 -20 -20 -20 -20 -20
-20 -20 -20 -20 -20 -20 -20 -20 -20 -20 -20 -20 -20 -20 -20 -20 -20 -20 -20 -20 -20 6 -4 28 -20 -20 -20 -20 -20 -20 -20 -20 -20 -20 -20 -20 -20 -20 -20 -20 -20 -20 -20 -20 -20 -20 -20 -20 -20
-20 -20 -20 -20 -20 -20 -20 -20 -20 -20 -20 -20 -20 -20 -20 -20 -20 -20 -20 -20 -20 -17 23 -20 -20 1 -20 -20 -20 -20 -20 -20 -20 -20 -20 -20 -20 -20 -20 -20 -20 -20 -20 -20 -20 -20 -20 -20 -20
-20 -20 -20 -20 -20 -20 -20 -20 -20 -20 -20 -20 -20 -20 -20 -20 -20 -20 -20 -20 -20 -20 -20 -20 -20 -20 -20 -20 -20 -20 -20 -20 -20 -20 -20 -20 -20 -20 -20 -20 -20 -20 -20 -20 -20 -20 -20 -20 -20
-20 -20 -20 -20 -20 -20 -20 -20 -20 -20 -20 -20 -20 -20 -20 -20 -20 -20 -20 -20 -20 -20 -20 -20 -20 -20 -20 -20 -20 -20 -20 -20 -20 -20 -20 -20 -20 -20 -20 -20 -20 -20 -20 -20 -20 -20 -20 -20 -20
-20 -20 -20 -20 -20 -20 -20 -20 -20 -20 -20 -20 -20 -20 -20 -20 -20 -20 -20 -20 -20 -20 -20 26 12 -20 -20 -20 -20 -3 -20 -20 -20 -20 -20 -20 -20 -20 -20 -20 -20 -20 -20 -20 -20 -20 -20 -20 -20
-20 -20 -20 -20 -20 -20 -20 -20 -20 -20 -20 -20 -20 -20 -20 -20 -20 -20 -20 -20 -20 -20 -20 -20 -18 2 -20 -20 -20 -20 -20 -20 -20 -20 -20 -20 -20 -20 -20 -20 -20 -20 -20 -20 -20 -20 -20 -20 -20
-20 -20 -20 -20 -20 -20 -20 -20 -20 -20 -20 -20 -20 -20 -20 -20 -20 -20 -20 -20 -20 -20 -20 -20 -10 -20 -20 -20 -20 -20 -20 -20 -20 -20 -20 -20 -20 -20 -20 -20 -20 -20 -20 -20 -20 -20 -20 -20 -20
-20 -20 -20 -20 -20 -20 -20 -20 -20 -20 -20 -20 -20 -20 -20 -20 -20 -20 -20 -20 -20 -20 -20 -20 -16 -20 -20 -20 -20 -11 -20 -20 -20 -20 -20 -20 -20 -20 -20 -20 -20 -20 -20 -20 -20 -20 -20 -20 -20
-20 -20 -20 -20 -20 -20 -20 -20 -20 -20 -20 -20 -20 -20 -20 -20 -20 -20 -20 -20 -20 -20 -20 -20 -20 -20 16 28 18 27 -20 -20 -20 -20 -20 -20 -20 -20 -20 -20 -20 -20 -20 -20 -20 -20 -20 -20 -20
-20 -20 -20 -20 -20 -20 -20 -20 -20 -20 -20 -20 -20 -20 -20 -20 -20 -20 -20 -20 -20 -20 -20 -20 -20 -20 -20 -20 19 19 -14 -20 -20 -20 -20 -20 -20 -20 -20 -20 -20 -20 -20 -20 -20 -20 -20 -20 -20
-11 -20 -20 -20 -20 -20 -20 -20 -20 -20 -20 -20 -20 -20 -20 -20 -20 -20 -20 -20 -20 -20 -20 -20 -20 -20 -19 -20 -20 24 22 23 -19 -20 -20 1 -1 -20 -20 -20 -20 -20 -20 -20 -20 -20 -20 -20 -20
-20 -20 -20 -20 -20 -20 -20 -20 -20 -20 -20 -20 -20 -20 -20 -20 -20 -20 -20 -20 -20 -20 -20 -20 -20 -20 -20 -20 22 21 20 27 -12 -17 -20 -6 -8 4 3 7 -20 -20 -20 -20 -20 -20 -20 -20 -20
-20 -20 -20 -20 -20 -20 -20 -20 -20 -20 -20 -20 -20 -20 -20 -20 -20 -20 -20 -20 -20 -20 -20 -20 -20 -20 -20 -20 -20 -20 -20 -20 -20 -20 -20 12 -15 5 10 6 -19 -20 -20 -20 -20 -20 -20 -20 -20
-20 -20 -20 -20 -20 -20 -20 -20 -20 -20 -20 -20 -20 -20 -20 -20 -20 -20 -20 -20 -20 -20 -20 -20 -20 -20 -20 -20 -9 -19 13 -20 -5 21 17 19 -17 -20 -20 8 11 -19 -20 -20 -20 -20 -20 -20 -20
-20 -20 -20 -20 -20 -20 -20 -20 -20 -20 -20 -20 -20 -20 -20 -20 -20 -20 -20 -20 -20 -20 -20 -20 -20 -20 -20 -20 6 -20 -20 -20 20 17 14 9 7 6 -20 -8 16 -2 -11 -16 -10 -20 -17 -20 -20
-20 -20 -20 -20 -20 -20 -20 -20 -20 -20 -20 -20 -20 -20 -20 -20 -20 -20 -20 -20 -20 -20 -20 -20 -20 -20 -20 -20 5 9 -20 -20 -20 15 12 -11 14 -20 7 -19 15 15 -1 -20 -19 -14 10 -20 -20
-20 -20 -20 -20 -20 -20 -20 -20 -20 -20 -20 -20 -20 -20 -20 -20 -20 -20 -20 -20 -20 -20 -20 -20 -20 -20 -20 -20 -20 -18 -19 -20 -20 10 -1 -19 -0 18 22 -20 9 9 15 14 -20 -20 -18 11 -20
-20 -20 -20 -20 -20 -20 -20 -20 -20 -20 -20 -20 -20 -20 -20 -20 -20 -20 -20 -20 -20 -20 -20 -20 -20 -20 -20 -20 -20 -20 -20 -20 -14 -20 -20 -13 -18 15 18 9 3 -13 13 -8 -14 -20 -7 9 -20
-20 -20 -20 -20 -20 -20 -20 -20 -20 -20 -20 -20 -20 -20 -20 -20 -20 -20 -20 -20 -20 -20 -20 -20 -20 -20 -20 -20 -20 -20 -20 -20 15 7 19 -1 11 11 11 -20 -6 12 -1 -20 -10 -14 26 -2 -20
-20 -20 -20 -20 -20 -20 -20 -20 -20 -20 -20 -20 -20 -20 -20 -20 -20 -20 -20 -20 -20 -20 -20 -20 -20 -20 -20 -20 -20 -20 -20 -20 -20 23 18 15 -6 -11 -20 9 20 6 9 21 5 27 10 -20 -20
-20 -20 -20 -20 -20 -20 -20 -20 -20 -20 -20 -20 -20 -20 -20 -20 -20 -20 -20 -20 -20 -20 -20 -20 -20 -20 -20 -20 -20 -20 -20 -20 9 19 19 11 -20 18 -11 -6 17 0 25 27 27 16 -20 -19 -20

GFSSGP_prec_radar_021.txt.gz
Reflectivity
-20 -20 -20 -20 -20 -20 -20 -20 -20 -20 -20 -20 -20 -20 -20 -20 -20 -20 -20 -20 -20 -20 8 -17 2 3 -20 -20 -20 -20 -15 -15 -16 6 -19 -20 -20 -20 -20 -20 -20 -20 -20 16 16 16 -20 -20 -20
-20 -20 -20 -20 -20 -20 -20 -20 -20 -20 -20 -20 -20 -20 -20 -20 -20 -20 -20 -20 -20 -20 -20 1 4 -20 -20 -20 -20 -20 -6 -8 6 3 10 -20 -20 -20 -20 -20 -20 -20 -19 4 -4 -19 -20 -20 -20
-20 -20 -20 -20 -20 -20 -20 -20 -20 -20 -20 -20 -20 -20 -20 -20 -20 -20 -20 -20 -20 -20 -20 -20 -20 -20 -20 -20 -17 -7 -10 7 11 10 -20 -20 -20 -20 -20 -20 -20 -20 -20 -20 -20 -20 -20 -20 -20
-20 -20 -20 -20 -20 -20 -20 -20 -20 -20 -20 -20 -20 -20 -20 -20 -20 -20 -20 -20 -20 -20 -20 -20 -20 -20 -20 -20 1 -20 0 -19 11 -12 -20 -20 -20 -20 -20 -20 -20 -20 -20 -20 -20 -20 -20 -20 -20
-20 -20 -20 -20 -20 -20 -20 -20 -20 -20 -20 -20 -20 -20 -20 -20 -20 -20 -20 -20 -20 -20 -20 -20 -20 -20 -20 -19 -20 -20 -20 -20 -20 -14 -20 -20 -20 -20 -20 -20 -20 -20 -20 1 -20 -20 -19 -20 -20
-20 -20 -20 -20 -20 -20 -20 -20 -20 -20 -20 -20 -20 -20 -20 -20 -20 -20 -20 -20 -20 -20 -20 -20 -20 -20 -20 -19 -17 -20 -20 -20 -20 -20 -8 -20 -20 -20 -20 -20 -20 -20 -20 -17 -20 9 -9 -20 -20
-20 -20 -20 -20 -20 -20 -20 -20 -20 -20 -20 -20 -20 -20 -20 -20 -20 -20 -20 -20 -20 -20 -20 -20 -20 -20 -20 -20 -11 -20 -20 -20 -20 -20 5 -20 -13 -20 -20 -20 -20 -20 7 7 14 2 -20 -20 -20
-20 -20 -20 -20 -20 -20 -20 -20 -20 -20 -20 -20 -20 -20 -20 -20 -20 -20 -20 -20 -20 -20 -20 -20 -20 -20 -20 -20 -20 -20 -20 1 -3 -12 -19 -20 -20 6 -20 -20 -14 -20 10 -20 -20 -20 -20 -20 -20
-20 -20 -20 -20 -20 -20 -20 -20 -20 -20 -20 -20 -20 -20 -20 -20 -20 -20 -20 -20 -20 -20 -20 -20 -20 -20 -20 -20 -20 -20 -20 -20 -13 -18 -20 -20 -20 -20 -20 -20 -11 -20 -20 -20 -20 -20 -20 -20 -20
-20 -20 -20 -20 -20 -20 -20 -20 -20 -20 -20 -20 -20 -20 -20 -20 -20 -20 -20 -20 -20 -20 -20 -20 -20 -20 -20 -20 -20 -20 -20 -20 -20 -20 -20 -20 -20 -20 -20 -20 -20 -20 -20 -20 -20 -20 -20 -20 -20
-20 -20 -20 -20 -20 -20 -20 -20 -20 -20 -20 -20 -20 -20 -20 -20 -20 -20 -20 -20 -20 -20 -20 -20 -20 -20 -20 -20 -20 -20 -20 -20 -20 -20 -20 -20 -20 -20 -20 -20 -20 -20 -20 -20 -20 -20 -20 -20 -20
-20 -20 -20 -20 -20 -20 -20 -20 -20 -20 -20 -20 -20 -20 -20 -20 -20 -20 -20 -20 -20 -20 -20 -20 -20 -20 -20 -20 -20 -20 -20 -20 -20 -20 -20 -20 -20 -20 -20 -20 -20 -20 -20 -20 -20 -20 -20 -20 -20
-20 -20 -20 -20 -20 -20 -20 -20 -20 -20 -20 -20 -20 -20 -20 -20 -20 -20 -20 -20 -8 -20 -20 -20 -20 -20 -20 -20 -20 -20 -20 -20 -20 -20 -20 -20 -20 -20 -20 -20 -20 -20 -20 -20 -20 -20 -20 -20 -20
-20 -20 -20 -20 -20 -20 -20 -20 -20 -20 -20 -20 -20 -20 -20 -20 -20 -20 -20 -20 -20 -20 -20 9 -20 -20 -20 -20 -20 -20 -20 -20 -20 -20 -20 -20 -20 -20 -20 -20 -20 -20 -20 -20 -20 -20 -20 -20 -20
-20 -20 -20 -20 -20 -20 -20 -20 -20 -20 -20 -20 -20 -20 -20 -20 -20 -20 -20 -20 -20 -20 -20 -20 -20 6 -20 -20 -20 -20 18 -20 -20 -20 -20 -20 -20 -20 -20 -20 -20 -20 -20 -20 -20 -20 -20 -20 -20
-20 -20 -20 -20 -20 -20 -20 -20 -20 -20 -20 -20 -20 -20 -20 -20 -20 -20 -20 -20 -20 -20 -20 -20 -20 -20 -20 -19 6 -14 -20 -20 -6 -20 -20 -20 -20 -20 -20 -20 -20 -20 -20 -20 -20 -20 -20 -20 -20
-20 -20 -20 -20 -20 -20 -20 -20 -20 -20 -20 -20 -20 -20 -20 -20 -20 -20 -20 -20 -20 -20 -20 -20 -20 -20 -20 4 -20 -6 -20 -20 -20 -5 -20 -20 -20 -20 -20 -20 -20 -20 -20 -20 -20 -20 -20 -20 -20
-20 -20 -20 -20 -20 -20 -20 -20 -20 -20 -20 -20 -20 -20 -20 -20 -20 -20 -20 -20 -20 -20 -20 -20 -20 -20 -20 14 -20 -20 -20 -20 0 -20 -20 -20 -20 -20 -20 -20 -20 -20 -20 -20 -20 -20 -20 -20 -20
-20 -20 -20 -20 -20 -20 -20 -20 -20 -20 -20 -20 -20 -20 -20 -20 -20 -20 -20 -20 -20 -20 -20 -20 -20 -20 -20 -20 -20 -20 -20 -20 -20 -4 -20 -20 -20 -20 -20 -20 -20 -20 -20 -20 -20 -20 -20 -20 -20
-20 -20 -20 -20 -20 -20 -20 -20 -20 -20 -20 -20 -20 -20 -20 -20 -20 -20 -20 -20 -20 -20 -20 -20 -20 -20 -20 -20 -20 -20 -20 -20 -13 11 -20 -20 -18 -20 -20 -18 -15 -20 2 -20 -20 -20 -20 -20 -20
-17 -20 -20 -20 -20 -20 -20 -20 -20 -20 -20 -20 -20 -20 -20 -20 -20 -20 -20 -20 -20 -20 -20 -20 -20 -20 -20 -20 -10 -11 -17 -20 -13 -20 -20 -19 -10 -10 -20 -13 2 -3 7 -20 -20 -20 -20 -20 -20
-20 -20 -20 -20 -20 -20 -20 -20 -20 -20 -20 -20 -20 -20 -20 -20 -20 -20 -20 -20 -20 -20 -20 -20 -20 -20 -20 -20 -20 -18 -20 -13 -20 -20 13 -20 18 26 -19 9 -1 -20 2 -20 -20 -20 -20 -20 -20
-20 -20 -20 -20 -20 -20 -20 -20 -20 -20 -20 -20 -20 -20 -20 -20 -20 -20 -20 -20 -20 -20 -20 -20 -20 -20 -20 -20 -20 -20 -9 -18 -20 -20 22 23 3 -20 -17 -19 2 -6 10 8 -17 -20 -20 -20 -20
-20 -20 -20 -20 -20 -20 -20 -20 -20 -20 -20 -20 -20 -20 -20 -20 -20 -20 -20 -20 -20 -20 -20 -20 -20 -20 -20 -20 -20 -20 -18 -2 5 18 23 23 22 20 16 21 21 -20 -3 -8 10 -7 -20 -15 -20
-20 -20 -20 -20 -20 -20 -20 -20 -20 -20 -20 -20 -20 -20 -20 -20 -20 -20 -20 -20 -20 -20 -20 -20 -20 -20 -20 -20 -20 -20 -20 -20 -20 -3 20 21 -20 -20 -4 16 18 8 -20 -20 16 -20 -11 -20 -20
-20 -20 -20 -20 -20 -20 -20 -20 -20 -20 -20 -20 -20 -20 -20 -20 -20 -20 -20 -20 -20 -20 -20 -20 -20 -20 -20 -20 -20 -16 -20 -20 -20 14 7 23 -20 19 -20 13 18 17 -16 -8 5 10 8 -20 -20
-20 -20 -20 -20 -20 -20 -20 -20 -20 -20 -20 -20 -20 -20 -20 -20 -20 -20 -20 -20 -20 -20 -20 -20 -20 -20 -20 -20 -20 -20 -20 -20 -20 -20 19 19 21 16 7 -20 15 -8 13 13 6 -12 12 -20 13
-20 -20 -20 -20 -20 -20 -20 -20 -20 -20 -20 -20 -20 -20 -20 -20 -20 -20 -20 -20 -20 -20 -20 -20 -20 -20 -20 -20 -20 -20 -20 -20 -20 -20 -20 -6 -10 11 16 15 6 -3 0 -10 -13 -11 28 -12 -9
-20 -20 -20 -20 -20 -20 -20 -20 -20 -20 -20 -20 -20 -20 -20 -20 -20 -20 -20 -20 -20 -20 -20 -20 -20 -20 -20 -20 -20 -20 -20 -20 -20 -20 -20 -20 -5 2 18 19 12 2 -13 -2 -20 -10 29 -13 23
-20 -20 -20 -20 -20 -20 -20 -20 -20 -20 -20 -20 -20 -20 -20 -20 -20 -20 -20 -20 -20 -20 -20 -20 -20 -20 -20 -20 -20 -20 -20 -20 -20 -20 -20 -20 17 9 17 7 -20 -20 11 9 -1 12 3 24 36

GFSSGP_prec_radar_027.txt.gz
Reflectivity
-20 -20 -20 -20 -20 -20 -20 -20 -20 -20 -20 -20 -20 -20 -20 -20 -20 -20 -20 -20 -20 -20 -20 -7 7 11 12 13 6 7 -16 -20 -20 10 -17 6 -20 -20 -20 -20 -20 -20 8 14 0 9 -20 -20 -20
-20 -20 -20 -20 -20 -20 -20 -20 -20 -20 -20 -20 -20 -20 -20 -20 -20 -20 -20 -20 -20 -20 -20 -20 11 12 14 8 4 12 14 14 -6 0 -20 -20 -20 -20 -20 -20 -20 1 -20 -20 -20 -20 -20 -20 -20
-20 -20 -20 -20 -20 -20 -20 -20 -20 -20 -20 -20 -20 -20 -20 -20 -20 -20 -20 -20 -20 -20 -20 -20 8 11 7 -20 2 14 15 6 17 -20 -20 -20 -20 -20 -20 -20 -20 -20 -20 -20 -20 -20 -20 -20 -20
-20 -20 -20 -20 -20 -20 -20 -20 -20 -20 -20 -20 -20 -20 -20 -20 -20 -20 -20 -20 -20 -20 -20 -10 2 -9 -20 -20 -20 5 10 14 -20 -20 -20 -20 -20 -20 -20 -20 -20 -20 -20 -20 -20 -20 -4 -10 -20
-20 -20 -20 -20 -20 -20 -20 -20 -20 -20 -20 -20 -20 -20 -20 -20 -20 -20 -20 -20 -20 -20 -20 -20 -3 -20 -20 -20 -20 -20 -1 15 16 -15 -20 -20 -20 -20 -20 -20 -20 -20 -20 -20 -3 3 -14 -20 -20
-20 -20 -20 -20 -20 -20 -20 -20 -20 -20 -20 -20 -20 -20 -20 -20 -20 -14 -20 -20 -20 -20 -20 -20 -20 -20 -20 -19 -20 -20 -7 18 10 -20 -20 -20 -20 -20 -20 -20 -15 -11 -14 -20 -6 9 -20 -20 -20
-20 -20 -20 -20 -20 -20 -20 -20 -20 -20 -20 -20 -20 -20 -20 -20 -20 3 -20 -20 -20 -4 -20 -20 -20 -20 -20 -16 -20 -20 1 -16 7 -19 -20 -20 -20 -20 -20 -20 -20 -20 -20 6 10 -20 -20 -20 -20
-20 -20 -20 -20 -20 -20 -20 -20 -20 -20 -20 -20 -20 -20 -20 -20 -20 4 6 -19 2 0 -20 -20 -20 -20 -20 -20 -20 -20 -20 -20 -4 15 -1 -20 -20 -20 -20 -20 -20 -20 17 11 -20 -20 -20 -20 -20
-20 -20 -20 -20 -20 -20 -20 -20 -20 -20 -20 -20 -20 -20 -20 -20 -20 0 5 14 4 -2 -11 -20 -20 -20 -20 -20 -20 -20 -20 -20 -20 -20 10 -6 -20 -14 -20 -20 -20 -20 3 -20 -20 -20 -20 -20 -20
-20 -20 -20 -20 -20 -20 -20 -20 -20 -20 -20 -20 -20 -20 -20 -15 -8 -10 12 4 -12 5 8 -20 -20 -20 -20 -20 -20 -20 -20 -20 -20 -20 -11 -14 -20 -2 -20 -20 -20 -20 -20 -20 -20 -20 -20 -20 -20
-20 -20 -20 -20 -20 -20 -20 -20 -20 -20 -20 -20 -20 -20 -20 -20 -2 -18 -2 -20 -10 -20 -20 0 -20 -20 -20 -20 -20 -20 -20 -20 -20 -20 -20 -20 -20 -20 9 -20 7 -0 -20 -20 -20 -20 -20 -20 -20
-20 -20 -20 -20 -20 -20 -20 -20 -20 -20 -20 -20 -20 -20 -20 -20 -20 -20 -19 -20 -11 -20 -10 -14 -20 -20 -20 -8 -20 -20 -20 -20 -20 -20 -20 -20 -20 -20 -18 -20 10 -20 -20 -20 -20 -20 -20 -20 -20
-20 -20 -20 -20 -20 -20 -20 -20 -20 -20 -20 -20 -20 -20 -20 -20 -20 -20 -20 -20 -20 -20 -20 -20 -20 -20 -20 -20 -16 -20 -20 -20 -20 -20 -20 -20 -20 -20 -20 -7 -20 -20 -20 -20 -20 -20 -20 -20 -20
-20 -20 -20 -20 -20 -20 -20 -20 -20 -20 -20 -20 -20 -20 -20 -20 -20 -20 -20 -20 -20 -20 -20 -20 -20 -20 -20 -20 -17 -20 -20 -20 -20 -20 -20 -20 -20 -20 -20 -16 -19 -20 -20 -20 -20 -20 -20 -20 -20
-20 -20 -20 -20 -20 -20 -20 -20 -20 -20 -20 -20 -20 -20 -20 -20 -20 -20 -20 -20 -20 -20 -20 -20 -20 -20 -1 -3 -20 -20 -20 -20 -20 -20 -20 -20 -20 -20 -20 -20 -20 -20 -20 -20 -20 -20 -20 -20 -20
-20 -20 -20 -20 -20 -20 -20 -20 -20 -20 -20 -20 -20 -20 -20 -20 -20 -20 -20 -20 -20 -20 -20 -20 -20 -20 -20 -16 -20 -20 16 -12 11 -20 -20 -20 -20 -20 -20 -20 -20 -20 -20 -20 -20 -20 -20 -20 -20
-20 -20 -20 -20 -20 -20 -20 -20 -20 -20 -20 -20 -20 -20 -20 -20 -20 -20 -20 -20 -20 -20 -20 -20 -20 -20 -20 -20 -10 -18 3 -20 -20 4 1 -20 -20 -20 -20 -20 -20 -20 -20 -20 -20 -20 -20 -20 -20
-20 -20 -20 -20 -20 -20 -20 -20 -20 -20 -20 -20 -20 -20 -20 -20 -20 -20 -20 -20 -20 -20 -20 -20 -20 -20 -20 -20 -10 1 9 -12 -20 -20 -20 -13 23 -20 -20 -20 -20 -20 -20 -20 -20 -20 -20 -20 -20
-20 -20 -20 -20 -20 -20 -20 -20 -20 -20 -20 -20 -20 -20 -20 -20 -20 -20 -20 -20 -20 -20 -20 -20 -20 -20 -20 -20 -4 5 -11 -15 -4 -20 -20 27 -20 -20 -20 -20 -20 -20 -20 -20 -20 -20 -20 -20 -20
-20 -20 -20 -20 -20 -20 -20 -20 -20 -20 -20 -20 -20 -20 -20 -20 -20 -20 -20 -20 -20 -20 -20 -20 -20 -20 -20 -20 -20 -20 -20 -20 -20 16 -16 -20 -20 -20 -20 -20 0 -20 -20 -20 -20 -20 -20 -20 -20
-20 -20 -20 -20 -20 -20 -20 -20 -20 -20 -20 -20 -20 -20 -20 -20 -20 -20 -20 -20 -20 -20 -20 -20 -20 -20 -20 -20 -20 -20 -20 -20 -11 -17 -1 -20 -20 -3 -16 27 26 -15 -20 -20 -20 -20 -20 -20 -20
-20 -20 -20 -20 -20 -20 -20 -20 -20 -20 -20 -20 -20 -20 -20 -20 -20 -20 -20 -20 -20 -20 -20 -20 -20 -20 -20 -20 -20 -20 -20 -20 -20 -20 -20 -20 -20 6 -18 23 20 -11 16 -20 -20 -20 -20 -20 -20
-20 -20 -20 -20 -20 -20 -20 -20 -20 -20 -20 -20 -20 -20 -20 -20 -20 -20 -20 -20 -20 -20 -20 -20 -20 -20 -20 -20 -20 -20 -20 -20 -20 -20 -20 -20 16 19 22 -16 -16 -20 -20 -20 -17 -20 -20 -20 -20
-20 -20 -20 -20 -20 -20 -20 -20 -20 -20 -20 -20 -20 -20 -20 -20 -20 -20 -20 -20 -20 -20 -20 -20 -20 -20 -20 -20 -20 -20 -20 -20 -20 -20 -20 -20 -20 8 19 8 9 -20 22 -20 22 17 -9 -7 -20
-20 -20 -20 -20 -20 -20 -20 -20 -20 -20 -20 -20 -20 -20 -20 -20 -20 -20 -20 -20 -20 -20 -20 -20 -20 -20 -20 -20 -20 -20 -20 -8 -20 -20 -20 -20 -20 -20 -20 13 -4 -7 -3 22 24 20 17 15 17
-20 -20 -20 -20 -20 -20 -20 -20 -20 -20 -20 -20 -20 -20 -20 -20 -20 -20 -20 -20 -20 -20 -20 -20 -20 -20 -20 -20 -20 -20 -20 -20 -20 -6 -20 -20 -20 -20 17 13 16 24 23 22 21 22 21 17 17
-20 -20 -20 -20 -20 -20 -20 -20 -20 -20 -20 -20 -20 -20 -20 -20 -20 -20 -20 -20 -20 -20 -20 -20 -20 -20 -20 -20 -20 -20 -20 -20 -20 -20 5 -20 -20 -20 -20 6 13 19 22 26 24 21 21 3 -20
-20 -20 -20 -20 -20 -20 -20 -20 -20 -20 -20 -20 -20 -20 -20 -20 -20 -20 -20 -20 -20 -20 -20 -20 -20 -20 -20 -20 -20 -20 -20 -20 -20 -20 -20 -20 -20 -20 -20 -20 -10 13 20 20 25 20 8 4 8
-20 -20 -20 -20 -20 -20 -20 -20 -20 -20 -20 -20 -20 -20 -20 -20 -20 -20 -20 -20 -20 -20 -20 -20 -20 -20 -20 -20 -20 -20 -20 -20 -20 -20 -20 -20 -20 -20 -20 -20 -20 -20 15 18 19 26 39 4 -8
-20 -20 -20 -20 -20 -20 -20 -20 -20 -20 -20 -20 -20 -20 -20 -20 -20 -20 -20 -20 -20 -20 -20 -20 -20 -20 -20 -20 -20 -20 -20 -20 -20 -20 -20 -20 -20 -20 -20 -20 -20 -20 -20 18 17 23 19 25 -11

GFSSGP_prec_radar_030.txt.gz
Reflectivity
-20 -20 -20 -20 -20 -20 -20 -20 -20 -20 -20 -20 -20 -20 -20 -20 -20 -20 -20 -20 -20 -20 -20 -20 12 3 6 10 -20 2 7 2 -7 -20 -20 -19 -13 -20 -20 -20 -20 11 20 1 14 -20 -20 -20 -20
-20 -20 -20 -20 -20 -20 -20 -20 -20 -20 -20 -20 -20 -20 -20 -20 -20 -20 -20 -20 -20 -20 -20 -20 -2 11 8 1 0 9 -14 14 -12 -20 -7 7 -20 -20 -20 -20 -8 9 -6 -20 -12 -20 -20 -20 -20
-20 -20 -20 -20 -20 -20 -20 -20 -20 -20 -20 -20 -20 -20 -20 -20 -20 -20 -20 -20 -20 -20 -20 -20 9 12 -0 4 10 11 4 15 11 -20 -20 -20 -20 -20 -20 -20 -20 -19 -20 -20 -20 -20 -20 -20 -20
-20 -20 -20 -20 -20 -20 -20 -20 -20 -20 -20 -20 -20 -20 -20 -20 -20 -20 -20 -20 -20 -20 -20 -20 7 8 4 6 10 11 12 15 16 -20 -20 -20 -20 -20 -20 -20 -20 -20 -20 -20 -20 -20 -20 -20 -20
-20 -20 -20 -20 -20 -20 -20 -20 -20 -20 -20 -20 -20 -20 -20 -20 -20 -20 -20 -20 -20 -20 -20 -20 15 4 -17 -20 -3 12 13 11 4 -20 -20 -20 -20 -20 -20 -20 -20 -20 -20 -20 -20 -20 -20 -20 -20
-20 -20 -20 -20 -20 -20 -20 -20 -20 -20 -20 -20 -20 -20 -20 -20 -20 -20 -20 -20 -20 -20 -20 -20 7 -20 -20 -20 -20 -15 -5 14 2 -20 -20 -20 -20 -20 -20 -20 -16 -20 -20 -20 14 -20 -20 -20 -20
-20 -20 -20 -20 -20 -20 -20 -20 -20 -20 -20 -20 -20 -20 -20 -20 -20 -20 -20 -20 -20 -20 -20 -20 -17 -20 -20 -20 -20 -20 -20 7 9 -20 -20 -20 -20 -20 -20 -20 -20 9 -20 10 -17 -20 -20 -20 -20
-20 -20 -20 -20 -20 -20 -20 -20 -20 -20 -20 -20 -20 -20 -20 -20 -20 -19 -20 -20 -20 -7 -20 -20 -20 -20 -20 -6 -20 -0 13 -9 12 -20 -20 -20 -20 -20 -20 -20 -20 -20 -18 -20 -20 -20 -20 -20 -20
-20 -20 -20 -20 -20 -20 -20 -20 -20 -20 -20 -20 -20 -20 -20 -20 -12 -9 -10 -20 14 -7 -1 -16 -20 -20 -20 -20 -20 -20 -20 7 8 4 -20 -20 -20 -20 -20 -20 -20 6 -20 -20 -20 -20 -20 -20 -20
-20 -20 -20 -20 -20 -20 -20 -20 -20 -20 -20 -20 -20 -20 -20 -20 -13 8 8 -2 2 -16 -20 -9 -20 -20 -20 -20 -20 -20 -20 -20 -20 3 -10 -20 -20 -20 -20 -20 -20 -7 -20 -20 -20 -20 -20 -20 -20
-20 -20 -20 -20 -20 -20 -20 -20 -20 -20 -20 -20 -20 -20 -20 -20 -20 6 -20 -20 -19 -14 -20 -8 -7 -20 -20 -20 -20 -20 -20 -20 -20 -20 -20 -20 -20 7 6 -8 -15 -18 -20 -20 -20 -20 -20 -20 -20
-20 -20 -20 -20 -10 -19 -20 -20 -20 -20 -20 -20 -20 -20 -20 -20 -20 -12 -20 -20 -20 -12 1 10 -19 -20 -20 -20 -20 -20 -20 -20 -20 -20 -20 -17 -3 -1 -0 9 6 10 -20 -20 -20 -20 -20 -20 -20
-20 -20 -20 -20 -18 -20 -20 -20 -20 -20 -20 -20 -20 -20 -20 -20 -20 -20 -20 -20 -20 -20 -20 -20 -20 -20 -15 -11 -20 -20 -20 -20 -20 -20 -20 -20 -20 -20 -20 -11 11 7 -3 -20 -20 -20 -20 -20 -20
-20 -20 -20 -20 -20 -20 -20 -20 -20 -20 -20 -20 -20 -20 -20 -20 -20 -20 -20 -20 -20 -20 -20 -20 -20 -19 -20 -20 -19 -20 -20 -20 -20 -20 -20 -20 -20 -20 -20 7 -2 11 -20 -20 -20 -20 -20 -20 -20
-20 -20 5 -17 -20 -20 -20 -20 -20 -20 -20 -20 -20 -20 -20 -20 -20 -20 -20 -20 -20 -20 -20 -20 -20 -20 -20 -20 -20 -20 -20 -20 -20 -20 -20 -20 -20 -20 -20 -3 -8 2 -20 -20 -20 -20 -20 -20 -20
-20 -20 -1 -3 -20 -20 -20 -20 -20 -20 -20 -20 -20 -20 -20 -20 -20 -20 -20 -20 -20 -20 -20 -20 -20 -20 -20 -20 -20 -20 -20 -20 -20 -20 -20 -20 -20 -20 -20 -13 -7 2 2 -20 -20 -20 -20 -20 -20
-20 -20 -20 -20 -20 -20 -20 -20 -20 -20 -20 -20 -20 -20 -20 -20 -20 -20 -20 -20 -20 -20 -20 -20 -20 -20 -20 -20 -20 -20 -2 -20 -20 -20 -20 -20 -20 -20 4 -20 -14 1 -20 -20 -20 -20 -20 -20 -20
-20 -20 -20 -20 -20 -20 -20 -20 -20 -20 -20 -20 -20 -20 -20 -20 -20 -20 -20 -20 -20 -20 -20 -20 -20 -20 -20 -19 -11 -12 -18 -7 -20 -20 -20 -20 -20 -20 -20 -20 -20 -5 -20 -20 -20 -20 -20 -20 -20
-20 -19 -20 -20 -20 -20 -20 -20 -20 -20 -20 -20 -20 -20 -20 -20 -20 -20 -20 -20 -20 -20 -20 -20 -20 -20 -20 -20 -12 6 2 -19 6 -1 -20 -20 -20 -20 -20 -20 -20 -20 -20 -20 -20 -20 -20 -20 -20
-20 -20 -13 -20 -20 -20 -20 -20 -20 -20 -20 -20 -20 -20 -20 -20 -20 -20 -20 -20 -20 -20 -20 -20 -20 -20 -20 -20 -20 -20 -20 -20 -8 -8 10 -19 -20 -20 -20 23 -20 -14 7 -20 -20 -20 -20 -20 -20
-20 -20 -15 -20 -20 -20 -20 -20 -20 -20 -20 -20 -20 -20 -20 -20 -20 -20 -20 -20 -20 -20 -20 -20 -20 -20 -20 -20 -20 -20 -20 -10 -9 -8 -20 -16 -20 -20 -20 3 -9 -15 -20 -20 -20 -20 -20 -20 -20
-20 -20 -20 -20 -20 -20 -20 -20 -20 -20 -20 -20 -20 -20 -20 -20 -20 -20 -20 -20 -20 -20 -20 -20 -20 -20 -20 -20 -20 -20 -20 -20 -20 -20 -20 -20 -17 -6 -20 -14 19 18 17 -20 -20 -20 -20 -20 -20
-8 -20 -20 -20 -20 -20 -20 -20 -20 -20 -20 -20 -20 -20 -20 -20 -20 -20 -20 -20 -20 -20 -20 -20 -20 -20 -20 -20 -20 -20 -20 -20 -20 -20 -20 -20 -20 -20 -0 -7 23 -12 -20 8 21 18 -20 -20 -20
-20 -20 -20 -20 -20 -20 -20 -20 -20 -20 -20 -20 -20 -20 -20 -20 -20 -20 -20 -20 -20 -20 -20 -20 -20 -20 -20 -20 -20 -20 -20 -20 -20 -19 4 -6 -20 -3 12 7 4 21 22 10 -20 20 24 -10 -20
-20 -20 -3 -20 -20 -20 -20 -20 -20 -20 -20 -20 -20 -20 -20 -20 -20 -20 -20 -20 -20 -20 -20 -20 -20 -20 -20 -20 -20 -20 -20 -20 -20 -18 -13 -3 -20 -20 -18 -7 4 10 18 21 24 2 23 22 12
-20 -20 -20 -20 -20 -20 -20 -20 -20 -20 -20 -20 -20 -20 -20 -20 -20 -20 -20 -20 -20 -20 -20 -20 -20 -20 -20 -20 -20 -20 -20 -20 -20 -20 -20 -7 -16 -17 -20 -20 -20 -20 13 22 23 24 24 21 21
-18 -20 -20 -20 -20 -20 -20 -20 -20 -20 -20 -20 -20 -20 -20 -20 -20 -20 -20 -20 -20 -20 -20 -20 -20 -20 -20 -20 -20 -20 -20 -20 -20 -20 -20 -20 -18 -11 -9 -11 -20 -20 3 17 11 22 25 25 23
-20 -20 -20 -20 -20 -20 -20 -20 -20 -20 -20 -20 -20 -20 -20 -20 -20 -20 -20 -20 -20 -20 -20 -20 -20 -20 -20 -20 -20 -20 -20 -20 -20 -20 -20 -20 -20 -20 -20 -20 -20 -20 15 15 5 18 19 24 24
-20 -20 -20 -20 -20 -20 -20 -20 -20 -20 -20 -20 -20 -20 -20 -20 -20 -20 -20 -20 -20 -20 -20 -20 -20 -20 -20 -20 -20 -20 -20 -20 -20 -20 -20 -20 -20 -20 -20 -20 -20 -20 -20 13 15 16 17 18 -6
-20 -20 -20 -20 -20 -20 -20 -20 -20 -20 -20 -20 -20 -20 -20 -20 -20 -20 -20 -20 -20 -20 -20 -20 -20 -20 -20 -20 -20 -20 -20 -20 -20 -20 -20 -20 -20 -20 -20 -20 -20 -20 -19 -20 1 10 23 15 18

GFSSGP_prec_radar_033.txt.gz
Reflectivity
-20 -20 -20 -20 -20 -20 -20 -20 -20 -20 -20 -20 -20 -20 -20 -20 -20 -20 -20 -20 -20 -20 -20 -20 -13 13 -13 -20 -6 -18 -15 10 -14 12 -20 -20 -20 -20 -20 -20 -5 15 -3 18 -9 -20 -20 -20 -20
-20 -20 -20 -20 -20 -20 -20 -20 -20 -20 -20 -20 -20 -20 -20 -20 -20 -20 -20 -20 -20 -20 -20 -20 -17 -14 11 -20 -13 12 -2 16 14 -20 -20 6 -20 -20 -20 -9 9 15 -7 -15 -18 -20 -20 -20 -20
-20 -20 -20 -20 -20 -20 -20 -20 -20 -20 -20 -20 -20 -20 -20 -20 -20 -20 -20 -20 -20 -20 -20 -20 -18 11 15 -20 -3 -11 9 -20 -12 -20 -20 -20 -20 -20 -20 -18 1 -20 -20 -20 -20 -20 -20 -20 -20
-20 -20 -20 -20 -20 -20 -20 -20 -20 -20 -20 -20 -20 -20 -20 -20 -20 -20 -20 -20 -20 -20 -20 -20 12 5 3 2 12 14 14 14 18 -20 -20 -20 -20 -20 -20 -20 -20 -20 -20 -20 -20 -20 -20 -20 -20
-20 -20 -20 -20 -20 -20 -20 -20 -20 -20 -20 -20 -20 -20 -20 -20 -20 -20 -20 -20 -20 -20 -20 -20 9 15 8 17 7 12 16 14 11 -20 -20 -20 -20 -20 -20 -20 -20 -20 -20 -20 -20 -20 -20 -20 -20
-5 -20 -20 -20 -20 -20 -20 -20 -20 -20 -20 -20 -20 -20 -20 -20 -20 -20 -20 -20 -20 -20 -20 -20 13 6 -8 1 -8 6 7 14 1 -20 -20 -20 -20 -20 -20 -20 -20 -20 -20 -20 -17 -20 -20 -20 -20
-5 -20 -20 -20 -20 -20 -20 -20 -20 -20 -20 -20 -20 -20 -20 -20 -20 -20 -20 -20 -20 -20 -20 -20 -20 -20 -20 -20 -16 -1 6 12 12 -20 -20 -20 -20 -20 -20 -20 -20 -20 -20 10 -20 -20 -20 -20 -20
35 25 22 -20 -20 -20 -20 -20 -20 -20 -20 -20 -20 -20 -20 -20 -20 -20 -20 -20 -20 -20 -20 -20 -20 -20 -20 -20 -20 -20 -20 13 16 -20 -20 -20 -20 -20 -20 -20 -20 -14 -20 -20 -20 -20 -20 -20 -20
-15 9 -14 -20 -20 -20 -20 -20 -20 -20 -20 -20 -20 -20 -20 -20 -20 -20 -20 -20 -20 -20 -20 -20 -20 -20 -20 -20 -19 -20 11 15 13 -2 -20 -20 -20 -20 -20 -20 -20 -20 13 -20 -20 -20 -20 -20 -20
-20 -7 -20 -20 -20 -20 -20 -20 -20 -20 -20 -20 -20 -20 -20 -20 -20 -20 -20 -20 8 -13 -20 -20 -20 -20 -20 -20 -20 -20 -9 -4 -18 -17 -19 -20 -20 -20 -20 -20 -20 5 -20 -20 -20 -20 -20 -20 -20
-19 -20 -20 -20 -20 -20 -20 -20 -20 -20 -20 -20 -20 -20 -20 -20 -20 -20 -20 -20 -20 -4 -20 -20 -20 -20 -20 -20 -20 -20 -20 -20 -20 -20 -20 -20 -20 -20 -20 -20 -20 -11 -20 -20 -20 -20 -20 -20 -20
-20 -20 -20 -20 -20 0 -19 -20 -20 -20 -20 -20 -20 -20 -20 -20 -20 -20 -20 -20 -20 -11 -10 -14 -20 -20 -20 -20 -20 -20 -20 -20 -20 -20 -20 -20 -12 -3 -1 -20 -20 -20 -20 -20 -20 -20 -20 -20 -20
-20 -20 -20 -20 -4 -4 -14 -20 -20 -20 -20 -20 -20 -20 -20 -20 -20 -20 -20 -20 -20 -20 -20 -3 -9 -19 -20 -20 -20 -20 -20 -20 -20 -20 -20 -20 -20 -4 6 10 -1 -10 -20 -20 -20 -20 -20 -20 -20
-20 -20 -20 -20 8 -9 -20 -20 -20 -20 -20 -20 -20 -20 -20 -20 -20 -20 -20 -20 -20 -20 -20 -20 3 -12 -19 -20 -20 -20 -20 -20 -20 -20 -20 -20 -20 -20 -20 -16 -3 5 -3 -20 -20 -20 -20 -20 -20
-20 -20 -20 -20 10 -20 -20 -20 -20 -20 -20 -20 -20 -20 -20 -20 -20 -20 -20 -20 -20 -20 -20 -20 -20 -20 -17 -20 -20 -20 -20 -20 -20 -20 -20 -20 -20 -20 -20 -20 -20 -15 9 -20 -20 -20 -20 -20 -20
-20 -20 -9 -20 10 -17 -20 -20 -20 -20 -20 -20 -20 -20 -20 -20 -20 -20 -20 -20 -20 -20 -20 -20 -20 -20 -20 -20 -20 -20 -20 -20 -20 -20 -20 -20 -20 -20 -20 -20 -20 -20 9 -1 -20 -20 -20 -20 -20
-17 -20 -16 -20 6 -19 -20 -20 -20 -20 -20 -20 -20 -20 -20 -20 -20 -20 -20 -20 -20 -20 -20 -20 -20 -20 -20 -20 -18 -12 -20 7 -20 -20 -20 -20 -20 -20 -20 -20 -20 -20 -19 -5 -20 -20 -20 -20 -20
-20 -20 -20 -17 -20 -20 -20 -20 -20 -20 -20 -20 -20 -20 -20 -20 -20 -20 -20 -20 -20 -20 -20 -20 -20 -20 -20 -20 -18 -20 1 -20 -20 -20 -20 -20 -20 -20 -20 -20 -20 -20 -17 -3 -20 -20 -20 -20 -20
-20 -20 -20 2 -20 -20 -20 -20 -20 -20 -20 -20 -20 -20 -20 -20 -20 -20 -20 -20 -20 -20 -20 -20 -20 -20 -20 -20 -20 -20 -18 1 -20 -20 -20 -20 -20 -20 -20 -20 -20 -20 -20 -20 -20 -20 -20 -20 -20
-20 -20 -20 -2 -19 -20 -18 -20 -20 -20 -20 -20 -20 -20 -20 -20 -20 -20 -20 -20 -20 -20 -20 -20 -20 -20 -20 -20 -20 -20 -20 -20 -20 -16 14 -20 -20 -20 -20 -20 -20 -20 -20 -20 -20 -20 -20 -20 -20
-20 -20 -20 -20 -20 -20 -20 -20 -20 -20 -20 -20 -20 -20 -20 -20 -20 -20 -20 -20 -20 -20 -20 -20 -20 -20 -20 -20 -20 -20 -20 -20 -20 -14 -20 5 11 -20 -20 -16 -7 -18 -20 -20 4 -20 -4 -20 -20
-20 -20 -20 -20 -11 -20 -20 -20 -20 -20 -20 -20 -20 -20 -20 -20 -20 -20 -20 -20 -20 -20 -20 -20 -20 -20 -20 -20 -20 -20 -20 -20 -20 -20 -20 -20 -20 -12 -1 -16 5 9 -20 -17 14 -20 -15 -16 15
-18 -20 -20 -20 -20 -19 -20 -20 -20 -20 -20 -20 -20 -20 -20 -20 -20 -20 -20 -20 -20 -20 -20 -20 -20 -20 -20 -20 -20 -20 -20 -20 -20 -20 -20 -20 -20 -20 -20 -6 -14 20 -20 26 20 -20 -20 23 -10
-20 -20 -20 -20 -20 -20 -20 -20 -20 -20 -20 -20 -20 -20 -20 -20 -20 -20 -20 -20 -20 -20 -20 -20 -20 -20 -20 -20 -20 -20 -20 -20 -20 -20 -20 -20 -14 5 -20 9 5 -2 8 -19 -12 20 -20 21 18
-20 -19 8 5 -7 -20 -20 -20 -20 -20 -20 -20 -20 -20 -20 -20 -20 -20 -20 -20 -20 -20 -20 -20 -20 -20 -20 -20 -20 -20 -20 -20 -20 -20 -20 -20 -20 -17 -20 -9 8 3 12 14 13 3 1 -5 20
-18 3 9 -8 -20 -20 -20 -20 -20 -20 -20 -20 -20 -20 -20 -20 -20 -20 -20 -20 -20 -20 -20 -20 -20 -20 -20 -20 -20 -20 -20 -20 -20 -20 -20 -20 -20 -20 -20 -9 -0 -0 3 1 5 17 15 16 13
-7 -20 -20 -20 -20 -20 -20 -20 -20 -20 -20 -20 -20 -20 -20 -20 -20 -20 -20 -20 -20 -20 -20 -20 -20 -20 -20 -20 -20 -20 -20 -20 -20 -20 -20 -20 -20 -20 -20 6 9 -15 -4 13 -19 10 20 19 20
-19 -20 -16 -20 -20 -20 -20 -20 -20 -20 -20 -20 -20 -20 -20 -20 -20 -20 -20 -20 -20 -20 -20 -20 -20 -20 -20 -20 -20 -20 -20 -20 -20 -20 -20 -20 -20 -20 -20 -5 -7 19 9 18 16 20 -8 21 19
-4 12 2 -20 -20 -20 -20 -20 -20 -20 -20 -20 -20 -20 -20 -20 -20 -20 -20 -20 -20 -20 -20 -20 -20 -20 -20 -20 -20 -20 -20 -20 -20 -20 -20 -20 -20 -20 -20 -19 -20 -20 -9 12 19 18 22 23 20
-20 -20 -20 -20 -20 -20 -20 -20 -20 -20 -20 -20 -20 -20 -20 -20 -20 -20 -20 -20 -20 -20 -20 -20 -20 -20 -20 -20 -20 -20 -20 -20 -20 -20 -20 -20 -20 -20 -20 -20 -20 -20 -16 -20 -3 3 10 20 22

GFSSGP_prec_radar_036.txt.gz
Reflectivity
-20 -20 -20 -20 -20 -20 -20 -20 -20 -20 -20 -20 -20 -20 -20 -20 -20 -20 -20 -20 -20 -20 -20 -20 2 -20 -20 9 -20 -20 -20 12 1 19 -20 -20 -20 -20 -20 -18 -2 -12 14 -3 -20 -20 -20 -20 -20
-20 -20 -20 -20 -20 -20 -20 -20 -20 -20 -20 -20 -20 -20 -20 -20 -20 -20 -20 -20 -20 -20 -20 -20 -2 13 -20 -20 -13 -2 11 19 14 -11 -20 -20 -20 -20 -20 13 11 8 -9 -20 -20 -20 -20 -20 -20
-20 -20 -20 -20 -20 -20 -20 -20 -20 -20 -20 -20 -20 -20 -20 -20 -20 -20 -20 -20 -20 -20 -20 -20 -19 8 16 -20 -13 5 12 10 10 -20 -20 -20 -20 -20 3 9 -18 -20 -20 -20 -20 -20 -20 -20 -20
-0 -20 -20 -20 -20 -20 -20 -17 -20 -20 -20 -20 -20 -20 -20 -20 -20 -20 -20 -20 -20 -20 -20 -20 -20 -20 8 -20 5 12 21 16 9 -20 -20 -20 -20 -20 -20 -20 -20 -20 -20 -20 -20 -20 -20 -20 -20
28 -1 -20 -20 -20 -20 -20 1 -20 -20 -20 -20 -20 -20 -20 -20 -20 -20 -20 -20 -20 -20 -20 -20 -15 0 -20 -20 -20 -16 -12 14 -13 -20 -20 -20 -20 -20 -20 -20 -20 -20 -20 -20 -20 -20 -20 -20 -20
31 12 12 -20 -20 -20 -20 -0 -20 -20 -20 -20 -20 -20 -20 -20 -20 -20 -20 -20 -20 -20 -20 -20 -4 5 -10 -20 -20 -4 -5 18 13 -20 -20 -20 -20 -20 -20 -20 -20 -20 -20 -9 -20 -20 -20 -20 -20
34 26 -7 -20 -20 -20 -20 -17 -20 -20 -20 -20 -20 -20 -20 -20 -20 -20 -20 -20 -20 -20 -20 -20 -20 -18 -20 -20 -17 13 17 14 14 -20 -20 -20 -20 -20 -20 -20 -20 -20 -20 -19 -20 -20 -20 -20 -20
14 29 18 -20 -2 -20 -20 -20 -20 -20 -20 -20 -20 -20 27 -20 -20 -20 -20 -20 -20 -20 -20 -20 -20 -20 -20 -20 -14 4 18 15 13 -20 -20 -20 -20 -20 -20 -20 -11 -20 2 -20 -20 -20 -20 -20 -20
14 23 23 -20 -2 -20 -17 -17 -20 -20 -20 -20 -20 -20 -20 -16 -20 -20 -20 -20 -20 -20 -20 -20 -20 -20 -20 -20 -20 -20 -20 16 11 -20 -20 -20 -20 -20 -20 -20 -20 -20 10 -20 -20 -20 -20 -20 -20
21 20 -15 -12 -20 12 12 20 -20 -20 -20 -20 -20 -20 -20 -20 -20 -20 -20 -20 -20 -20 -20 -20 -20 -20 -20 -20 -20 -20 -20 6 -20 -20 -20 -20 -20 -20 -20 -20 -20 -20 -20 -20 -20 -20 -20 -20 -20
-1 -20 -2 26 25 24 19 -2 -20 -20 -20 -20 -20 -20 -20 -20 -20 -20 -20 -20 -20 -20 -20 -20 -20 -20 -20 -20 -20 -20 -20 -20 -20 -20 -20 -20 -20 -20 -20 -20 -20 -20 -20 -20 -20 -20 -20 -20 -20
-8 -15 10 10 33 29 -14 5 -20 -20 -20 -20 -20 -20 -20 -20 -20 -20 -20 -20 -20 -20 -18 -20 -20 -20 -20 -20 -20 -20 -20 -20 -20 -20 -20 -20 -20 -20 -20 -20 -20 -20 -20 -20 -20 -20 -20 -20 -20
-20 5 10 7 14 -20 -20 -20 -20 -20 -20 -20 -20 -20 -20 -20 -20 -20 -20 -20 -20 -20 -6 2 -20 -20 -20 -20 -20 -20 -20 -20 -20 -20 -20 -20 -20 -20 -20 -20 -20 -20 -20 -20 -20 -20 -20 -20 -20
-20 6 12 11 -20 -17 -0 -18 -20 -20 -20 -20 -20 -20 -20 -20 -20 -20 -20 -20 -20 -20 -20 -20 -20 -20 -20 -20 -20 -20 -20 -20 -20 -20 -20 -20 -20 -20 -20 -20 -20 -20 -20 -20 -20 -20 -20 -20 -20
-20 -6 -6 6 -20 0 10 -10 -20 -20 -20 -20 -20 -20 -20 -20 -20 -20 -20 -20 -20 -20 -20 -20 -20 -20 -20 -20 -20 -20 -20 -20 -20 -20 -20 -20 -20 -20 -20 -20 -20 -20 -20 -20 -15 -20 -20 -20 -20
-9 -20 -7 -5 -20 -1 -7 -20 -20 -20 -20 -20 -20 -20 -20 -20 -20 -20 -20 -20 -20 -20 -20 -15 -20 -20 -20 -20 -20 -20 -20 -20 -20 -20 -20 -20 -20 -20 -20 -20 -20 -20 -20 -19 -18 -20 -20 -20 -20
-4 -20 -20 -20 -20 -7 -14 -20 -20 -20 -20 -20 -20 -20 -20 -20 -20 -20 -20 -20 -20 -20 -20 -20 -20 -5 -20 -19 -20 -6 -20 -6 -11 -20 -20 -20 -20 -20 -20 -20 -20 -20 -20 -19 -11 -20 -20 -20 -20
-19 -20 -20 -20 -5 -20 -20 -20 -20 -20 -20 -20 -20 -20 -20 -20 -20 -20 -20 -20 -20 -20 -20 -20 -20 -20 -20 -20 -7 -20 -20 -20 -20 -20 -20 -20 -20 -20 -20 -20 -20 -20 -20 -20 -20 -20 -20 -20 -20
-20 -20 -20 -20 -20 -20 -20 -20 -20 -20 -20 -20 -20 -20 -20 -20 -20 -20 -20 -20 -20 -20 -20 -20 -20 -20 -20 -20 -20 -20 -20 -20 -20 8 -20 -20 -13 -20 29 -20 -20 -20 -20 -20 -20 -20 -20 -20 -20
-20 -20 -20 -20 -20 -20 -20 -20 -20 -20 -20 -20 -20 -20 -20 -20 -20 -20 -20 -20 -20 -20 -20 -20 -20 -20 -20 -20 -20 -20 -20 -20 -20 -20 -20 4 11 -12 -1 22 -5 -12 -20 -20 -20 -20 -20 -20 -20
-20 -20 -20 -20 -20 -20 -20 -20 -20 -20 -20 -20 -20 -20 -20 -20 -20 -20 -20 -20 -20 -20 -20 -20 -20 -20 -20 -20 -20 -20 -20 -20 -20 -20 -20 -20 -20 -1 -20 -2 23 -13 5 -20 20 -20 -20 -20 -16
-20 -20 -20 -20 -20 -20 -15 -20 -20 -20 -20 -20 -20 -20 -20 -20 -20 -20 -20 -20 -20 -20 -20 -20 -20 -20 -20 -20 -20 -20 -20 -20 -20 -20 -20 -20 -20 -20 -20 18 22 25 2 -20 -16 20 24 -4 -13
-20 -20 -20 -20 -20 -20 -20 -20 -20 -20 -20 -20 -20 -20 -20 -20 -20 -20 -20 -20 -20 -20 -20 -20 -20 -20 -20 -20 -20 -20 -20 -20 -20 -20 -20 4 5 -20 -20 -20 -20 21 26 14 21 -10 25 18 -20
-17 -20 -20 -20 -20 -20 -20 -20 -20 -20 -20 -20 -20 -20 -20 -20 -20 -20 -20 -20 -20 -20 -20 -20 -20 -20 -20 -20 -20 -20 -20 -20 -20 -20 -20 -20 -20 -5 6 -13 3 20 17 22 22 23 25 15 21
16 -12 -8 9 -19 -20 -20 -20 -20 -20 -20 -20 -20 -20 -20 -20 -20 -20 -20 -20 -20 -20 -20 -20 -20 -20 -20 -20 -20 -20 -20 -20 -20 -20 -20 -20 -20 -10 -20 16 -9 16 13 7 20 25 19 25 14
-17 -20 -15 -20 -18 -20 -20 -20 -20 -20 -20 -20 -20 -20 -20 -20 -20 -20 -20 -20 -20 -20 -20 -20 -20 -20 -20 -20 -20 -20 -20 -20 -20 -20 -20 -20 -20 -20 -20 -20 -20 4 15 15 15 19 20 23 23
22 -20 -20 -20 -20 -20 -20 -20 -20 -20 -20 -20 -20 -20 -20 -20 -20 -20 -20 -20 -20 -20 -20 -20 -20 -20 -20 -20 -20 -20 -20 -20 -20 -20 -20 -20 -20 -20 -20 -20 -20 6 8 15 15 16 13 6 -2
-20 -20 -20 -20 -20 -20 -20 -20 -20 -20 -20 -20 -20 -20 -20 -20 -20 -20 -20 -20 -20 -20 -20 -20 -20 -20 -20 -20 -20 -20 -20 -20 -20 -20 -20 -20 -20 -20 -20 -20 -20 -20 -4 12 16 21 19 6 11
-20 -20 -20 -20 -20 -20 -20 -20 -20 -20 -20 -20 -20 -20 -20 -20 -20 -20 -20 -20 -20 -20 -20 -20 -20 -20 -20 -20 -20 -20 -20 -20 -20 -20 -20 -20 -20 -20 -20 -20 -20 -20 -20 -20 -20 -19 -16 5 19
20 0 -6 -20 -20 -20 -20 -20 -20 -20 -20 -20 -20 -20 -20 -20 -20 -20 -20 -20 -20 -20 -20 -20 -20 -20 -20 -20 -20 -20 -20 -20 -20 -20 -20 -20 -20 -20 -20 -20 -20 -20 -20 -20 -20 -20 -20 2 -0

GFSSGP_prec_radar_042.txt.gz
Reflectivity
-20 -20 -20 -20 -20 -20 -20 -20 -20 -20 -20 -20 -20 -20 -20 -20 -20 -20 -20 -20 -20 -20 -6 -20 7 -14 -14 -20 -20 -4 -20 6 -2 -20 -20 -20 -20 -20 -20 -9 -1 0 -20 -20 -20 -20 -20 -20 -20
-20 -20 -20 -20 -20 -20 -20 -20 -20 -20 -20 -20 -20 -20 -20 -20 -20 -20 -20 -20 -20 -20 -12 1 5 7 -16 -20 -20 -20 -8 -6 -20 -20 -20 -20 -20 -10 -10 1 16 12 -20 -20 -20 -20 -20 -20 -20
-20 -20 -20 -20 -20 -20 -20 -20 -20 -20 -20 -20 -20 -20 -20 -20 -20 -20 -20 -20 -20 -20 -20 -20 -20 -6 -20 -20 -20 -20 -20 -6 -20 -20 -20 -20 -20 13 16 14 -10 -20 -20 -20 -20 -20 -20 -20 -20
-12 -20 -20 -20 -20 -20 -20 -20 -20 -20 -20 -20 -20 -20 -20 -20 -20 -20 -20 -20 -20 -20 -20 -20 -20 -20 -20 -20 -20 -20 -16 -20 -20 -20 -20 -20 1 10 3 -20 -20 -20 -20 -20 -20 -20 -20 -20 -20
-15 -20 -20 -20 -20 -20 -20 -20 -20 -20 -20 -20 -20 -20 -20 -20 -20 -20 -20 -20 -20 -20 -20 -1 8 -20 -20 -12 -18 -13 -20 -20 -20 -20 -20 -20 -17 4 -20 -20 -20 -20 -20 -20 -20 -20 -20 -20 -20
23 -20 -20 -20 -20 -20 -20 -20 -20 -20 -20 -20 -20 -20 -20 -20 -20 -20 -20 -20 -20 -20 -20 -20 -10 -20 -20 -19 -20 -20 -10 -20 -20 -20 -20 -20 -17 -2 -4 -20 -20 -20 -20 -20 -20 -20 -20 -20 -20
11 -3 -13 -20 5 -19 -20 -20 -20 -20 -20 -20 -20 -20 -20 -20 -20 -20 -20 -20 -20 -20 -20 -20 -20 -20 -20 -20 -10 -10 2 -20 -20 -20 -20 -20 -20 -20 -2 -20 -20 -20 -20 -20 -20 -20 -20 -20 -20
-9 1 3 4 22 7 -20 -20 -20 -20 -20 -20 -20 -20 -20 -20 -20 -20 -20 -20 -20 -20 -20 -20 -20 -20 -20 -20 -13 3 -18 -20 -20 -20 -20 -20 -20 -20 -20 -20 -20 -1 -19 -20 -20 -20 -20 -20 -20
23 3 -2 16 26 18 -20 -20 -20 -20 -20 -20 -20 -20 -20 -20 -20 -6 -20 -20 -20 -20 -20 -20 -20 -20 -20 -20 -20 -1 -20 -20 -20 -20 -20 -20 -20 -20 -20 -20 -20 -8 -6 -20 -20 -20 -20 -20 -20
40 -3 -20 -20 16 15 -14 -20 -20 -20 -20 -20 -20 -20 -20 -20 -20 -20 -20 -20 -20 -20 -20 -20 -20 -20 -20 -20 -20 -20 -20 -20 -20 -20 -20 -20 -20 -20 -20 -20 -20 -20 -20 -20 -20 -20 -20 -20 -20
-18 -20 -20 2 30 33 24 -15 -20 -20 -20 -20 -20 -20 -20 -7 -14 -20 -20 -20 -20 -20 -20 -20 -20 -20 -20 -20 -20 -20 -20 -20 -20 -20 -20 -20 -20 -20 -20 -20 -20 -20 -20 -20 -20 -20 -20 -20 -20
-16 -6 -4 21 24 24 25 31 -20 -20 -20 -20 -20 -20 -20 -14 -20 -20 -20 -20 15 -20 -20 -20 -20 -20 -20 -20 -20 -20 -20 -20 -20 -20 -20 -20 -20 -20 -20 -20 -20 -20 -20 -20 -20 -20 -20 -20 -20
-16 9 27 29 22 31 24 9 3 -20 -8 -20 -20 -20 -20 -20 -20 -20 -20 -20 -20 -20 -20 -20 -20 -20 -20 -20 -20 -20 -20 -20 -20 -20 -20 -20 -20 -20 -20 -20 -20 -20 -20 -20 -20 -20 -20 -20 -20
-20 8 10 24 19 25 31 4 18 -18 -20 -19 -20 -20 -20 -20 -20 -20 -20 -20 -20 -20 -20 -20 -20 -20 -20 -20 -20 -20 -20 -20 -20 -20 -20 -20 -20 -20 -20 -20 -20 -20 -20 -20 -20 -20 -20 -20 -20
-20 18 21 9 3 11 26 32 32 -0 -20 -20 -20 -2 -20 -20 -20 -20 -20 -20 -20 -20 -20 -20 -20 -20 -20 -20 -20 -20 -20 -20 -20 -20 -20 -20 -20 -20 -20 -20 -20 -20 -20 -20 -20 -20 -20 -20 -20
-20 -17 4 -0 5 6 22 15 18 -20 -20 -20 -20 -20 -6 -20 -20 -20 -20 -20 -20 -20 -20 -20 -20 -20 -20 -20 -20 -20 -20 -20 -20 -20 -20 -20 -20 -20 -20 -20 -20 -20 -20 -20 -20 -20 -20 -20 -20
-20 -6 -14 6 -1 1 -9 13 28 17 15 -20 -20 -20 -20 -20 -20 -20 -20 -20 -20 -20 -20 -20 -20 -20 -20 -20 -20 -20 -20 -20 -20 -20 -20 -20 -20 -20 -20 -20 -20 -20 -20 -20 -20 -20 -20 -20 -20
-20 -20 -7 2 8 -20 -20 13 24 12 -20 -20 -20 -20 -20 -20 -20 -20 -20 -20 -20 -20 -20 -20 -20 -20 -20 -20 -20 -20 -20 -20 -20 -20 -20 -20 -20 -20 -20 -20 -20 -20 -20 -20 -20 -20 -20 -20 -20
-20 -20 -20 -6 0 -8 -20 5 15 -20 -20 -20 -20 -20 -20 -20 -20 -20 -20 -20 -20 -20 -20 -20 -20 -20 -20 -20 -20 -20 -20 -20 -20 -20 -20 -11 4 -8 32 -20 -20 -20 -20 -20 -20 -20 -14 25 -20
-20 -20 -20 -19 5 2 -1 -18 12 -20 -20 -20 -20 -20 -20 -20 -20 -20 -20 -20 -20 -20 -20 -20 -20 -20 -20 -20 -20 -20 -20 -20 -20 -20 -20 -20 -20 -18 -20 -20 -20 -19 -13 -15 18 -20 -20 23 20
-20 -20 -20 -20 -19 -19 -20 -20 -4 -20 -20 -20 -20 -20 -20 -20 -20 -20 -20 -20 -20 -20 -20 -20 -20 -20 -20 -20 -20 -20 -20 -20 -20 -20 -20 -20 -20 -20 0 -2 -12 -20 -20 3 3 -11 3 28 5
-20 -20 -20 -20 -20 -20 -20 -20 -20 -20 -20 -20 -20 -20 -20 -20 -20 -20 -20 -20 -20 -20 -20 -20 -20 -20 -20 -20 -20 -20 -20 -20 -20 -20 -20 -20 -20 -20 -20 -20 -20 -20 -20 -20 -20 -20 16 20 11
-20 -20 -20 -20 -20 -20 -20 -20 -20 -20 -20 -20 -20 -20 -20 -20 -20 -20 -20 -20 -20 -20 -20 -20 -20 -20 -20 -20 -20 -20 -20 -20 -20 -20 -20 -20 -20 -20 -20 -20 -20 6 -20 -20 -20 -19 6 11 10
-20 -20 -20 -20 -20 -20 -20 -20 -20 -20 -20 -20 -20 -20 -20 -20 -20 -20 -20 -20 -20 -20 -20 -20 -20 -20 -20 -20 -20 -20 -20 -20 -20 -20 -20 -20 -20 -20 -20 -20 -20 -20 -20 12 -20 -20 -3 -4 -20
-20 -20 -20 -20 -20 -20 -20 -20 -20 -20 -20 -20 -20 -20 -20 -20 -20 -20 -20 -20 -20 -20 -20 -20 -20 -20 -20 -20 -20 -20 -20 -20 -20 -20 -20 -20 -20 -20 -20 -20 -20 -20 14 -20 -11 -3 -15 -15 8
-20 -20 -20 -20 -20 -20 -20 -20 -20 -20 -20 -20 -20 -20 -20 -20 -20 -20 -20 -20 -20 -20 -20 -20 -20 -20 -20 -20 -20 -20 -20 -20 -20 -20 -20 -20 -20 -20 -20 -20 -20 -20 -20 -20 -18 -20 -20 -20 -7
-20 -20 -20 -20 -20 -20 -20 -20 -20 -20 -20 -20 -20 -20 -20 -20 -20 -20 -20 -20 -20 -20 -20 -20 -20 -20 -20 -20 -20 -20 -20 -20 -20 -20 -20 -20 -20 -20 -20 -20 -20 -20 -20 -20 -20 -20 -20 -20 -20
-20 -20 -20 -20 -20 -20 -20 -20 -20 -20 -20 -20 -20 -20 -20 -20 -20 -20 -20 -20 -20 -20 -20 -20 -20 -20 -20 -20 -20 -20 -20 -20 -20 -20 -20 -20 -20 -20 -20 -20 -20 -20 -20 -20 -20 -20 -20 -20 -20
-20 -1 -20 -20 -20 -20 -20 -20 -20 -20 -20 -20 -20 -20 -20 -20 -20 -20 -20 -20 -20 -20 -20 -20 -20 -20 -20 -20 -20 -20 -20 -20 -20 -20 -20 -20 -20 -20 -20 -20 -20 -20 -20 -20 -20 -20 -20 -20 -20
-20 -20 -20 -18 -7 -20 -20 -20 -20 -20 -20 -20 -17 -20 -20 -20 -20 -20 -20 -20 -20 -20 -20 -20 -20 -20 -20 -20 -20 -20 -20 -20 -20 -20 -20 -20 -20 -20 -20 -20 -20 -20 -20 -20 -20 -20 -20 -20 -20

GFSSGP_prec_radar_045.txt.gz
Reflectivity
-20 -20 -20 -20 -20 -20 -20 -20 -20 -20 -20 -20 -20 -20 -20 -20 -20 -20 -20 -20 -20 -4 -20 8 -20 11 -20 19 -20 -17 -14 7 2 -20 -20 -20 -20 -20 -20 13 -19 -20 -20 -20 -20 -20 -20 -20 -20
-20 -20 -20 -20 -20 -20 -20 -20 -20 -20 -20 -20 -20 -20 -20 -20 -20 -20 -20 3 -20 -20 -20 14 -20 3 -20 -20 -20 -12 -18 -20 -20 -20 -20 -20 -20 -5 1 11 6 -18 -20 -20 -20 -20 -20 -20 -20
10 -20 -20 -20 -20 -20 -20 -20 -20 -20 -20 -20 -20 -20 -20 -20 -20 -20 -20 -14 -20 -20 -20 7 -20 -5 -20 -20 -20 -20 -9 -20 -20 -20 -20 -20 7 10 0 7 -5 -20 -20 -20 -20 -20 -20 -20 -20
16 -2 -20 -20 -20 -20 -20 -20 -20 -20 -20 -20 -20 -20 -20 -20 -20 -20 -20 -20 -20 -20 -20 11 -20 -20 -20 -18 -10 11 -20 -20 -20 -20 -20 -20 11 13 10 -2 -20 -20 -20 -20 -20 -20 -20 -20 -20
-6 10 -20 -20 -20 -20 -20 -20 -20 -20 -20 -20 -20 -20 -20 -20 -20 -20 -20 -20 -20 -20 -20 -20 -14 -20 -20 -20 15 -20 -20 -20 -20 -20 -20 0 0 9 -20 -20 -20 -20 -20 -20 -20 -20 -20 -20 -20
8 2 -11 -20 -20 -20 -20 -20 -20 -20 -20 -20 -20 -20 -20 -20 -20 -20 -20 -20 -20 -20 -20 -20 7 -20 -20 -19 -20 -20 -20 -20 -20 -20 -20 -13 -3 14 4 -20 -20 -20 -20 -20 -20 -20 -20 -20 -20
-4 -20 -1 -20 -14 -20 -20 -20 -20 -20 -20 -20 -20 -20 -20 -20 -20 -20 -20 -20 -20 -20 -20 -20 -20 -20 -20 9 -13 -6 -20 -20 -20 -20 -20 -20 -20 -13 -2 -20 -20 -20 -20 -20 -20 -20 -20 -20 -20
22 -14 -1 3 16 -3 -20 -20 -20 -20 -20 -20 -20 -20 -20 -20 -20 -20 -20 -20 -20 -20 -20 -20 -20 -20 -20 -20 6 12 8 -20 -20 -20 -20 -20 -20 -20 -20 -20 -20 -20 -20 -20 -20 -20 -20 -20 -20
25 23 -18 11 15 7 -20 -20 -20 -20 -20 -20 -20 -20 -20 -20 -20 -20 -20 -20 -20 -20 -20 -20 -20 -20 -20 -20 -15 10 -20 -20 -20 -20 -20 -20 -20 -20 -20 -20 -20 0 -20 -20 -20 -20 -20 -20 -20
21 32 -19 -20 14 -1 -8 -20 -20 -20 -20 -20 25 -20 -20 -20 -20 -20 -20 -20 -20 -20 -20 -20 -20 -20 -20 -20 -20 -20 -20 -20 -20 -20 -20 -20 -20 -20 -20 -20 -20 -20 -20 -20 -20 -20 -20 -20 -20
37 26 -20 3 14 18 -1 -0 -20 -20 -20 -20 -20 -20 -20 -20 -20 -20 -20 -20 -20 -20 -20 -20 -20 -20 -20 -20 -20 -20 -20 -20 -20 -20 -20 -20 -20 -20 -20 -20 -20 -20 -20 -20 -20 -20 -20 -20 -20
-20 -18 -10 16 3 -4 8 25 -20 -20 -20 -20 -20 25 -20 -20 -20 -20 -20 -20 -20 -20 -20 -20 -20 -20 -20 -20 -20 -20 -20 -20 -20 -20 -20 -20 -20 -20 -20 -20 -20 -20 -20 -20 -20 -20 -20 -20 -20
-19 -3 13 10 -7 5 21 25 8 -20 -20 -20 -20 -20 24 -20 -16 -20 -20 -20 -20 -20 -20 -20 -20 -20 -20 -20 -20 -20 -20 -20 -20 -20 -20 -20 -20 -20 -20 -20 -20 -20 -20 -20 -20 -20 -20 -20 -20
-20 14 12 19 4 24 11 21 32 -16 -20 -20 -20 2 -6 -20 -20 -20 -20 -20 -20 -20 -20 -20 -20 -20 -20 -20 -20 -20 -20 -20 -20 -20 -20 -20 -20 -20 -20 -20 -20 -20 -20 -20 -20 -20 -20 -20 -20
13 19 23 23 21 13 17 26 34 15 -20 -20 -20 24 -20 -17 -20 -20 10 -20 -20 -20 -20 -20 -20 -20 -20 -20 -20 -20 -20 -20 -20 -20 -20 -20 -20 -20 -20 -20 -20 -20 -20 -20 -20 -20 -20 -20 -20
14 -8 20 9 26 27 28 -3 15 32 -18 -20 -20 -20 5 -20 -20 -20 -20 -20 -20 -20 -20 -20 -20 -20 -20 -20 -20 -20 -20 -20 -20 -20 -20 -20 -20 -20 -20 -20 -20 -20 -20 -20 -20 -20 -20 -20 -20
-20 -20 -20 -15 14 -2 -17 -20 27 29 2 -20 -20 -20 -20 -1 -20 -20 -20 -20 -20 -20 -20 -20 -20 -20 -20 -20 -20 -20 -20 -20 -20 -20 -20 -20 -20 -20 -20 -20 -20 -20 -20 -20 -20 -20 -20 -20 -20
-19 -20 -20 -20 10 -17 -16 -20 -1 -1 -4 -20 -20 -20 -20 -20 -20 -20 -20 -20 -20 -20 -20 -20 -20 -20 -20 -20 -20 -20 -20 -20 -20 -20 -20 -20 -20 -20 -20 -20 -20 -20 -20 -20 -20 -20 -20 -20 -20
-20 -20 -20 -20 4 -8 2 -16 -3 18 20 10 -20 -20 -20 -20 -20 -20 -20 -20 -20 -20 -20 -20 -20 -20 -20 -20 -20 -20 -20 -20 -20 -20 -20 -20 -20 -20 -20 -20 -20 -20 -20 -20 -20 -20 -20 7 -20
-20 -20 -20 -20 -7 2 2 4 -14 17 2 6 -20 -20 -20 -20 -20 -20 -20 -20 -20 -20 -20 -20 -20 -20 -20 -20 -20 -20 -20 -20 -20 -20 -20 -20 -20 -10 -20 -20 4 -20 -20 -20 -20 -10 8 -20 -20
-20 -20 -20 -20 -20 -15 -6 -6 2 5 5 4 -20 -20 -20 -20 -20 -20 -20 -20 -20 -20 -20 -20 -20 -20 -20 -20 -20 -20 -20 -20 -20 -20 -20 -20 -20 -20 -20 -20 -20 -20 -20 -20 -20 -20 -20 15 -20
-20 -20 -20 -20 -20 -20 -18 -20 -15 5 3 -6 -20 -20 -20 -20 -20 -20 -20 -20 -20 -20 -20 -20 -20 -20 -20 -20 -20 -20 -20 -20 -20 -20 -20 -20 -20 -20 -20 -20 -20 -20 -20 -20 -20 -20 -20 -20 -11
-20 -20 -20 -20 -20 -20 -20 -20 -12 -16 -7 3 -20 -20 -20 -20 -20 -20 -20 -20 -20 -20 -20 -20 -20 -20 -20 -20 -20 -20 -20 -20 -20 -20 -20 -20 -20 -20 -20 -20 -20 -20 -20 -20 -20 -20 -20 10 -9
-20 -20 -20 -20 -20 -20 -20 -20 -20 -13 -20 -20 -11 -20 -20 -20 -20 -20 -20 -20 -20 -20 -20 -20 -20 -20 -20 -20 -20 -20 -20 -20 -20 -20 -20 -20 -20 -20 -20 -20 -20 -20 -20 -17 -15 -18 -17 10 15
-20 -20 2 -15 -20 -20 -20 -20 -20 -20 -20 -20 -20 -20 -20 -20 -20 -20 -20 -20 -20 -20 -20 -20 -20 -20 -20 -20 -20 -20 -20 -20 -20 -20 -20 -20 -20 -20 -20 -20 -20 -20 -20 -20 -20 -1 -15 4 -20
-20 -20 -20 -20 -20 -20 -20 -20 -20 -20 -20 -20 -20 -20 -20 -20 -20 -20 -20 -20 -20 -20 -20 -20 -20 -20 -20 -20 -20 -20 -20 -20 -20 -20 -20 -20 -20 -20 -20 -20 -20 -20 -20 -20 -20 -20 -20 -20 -20
-20 -20 -20 -20 -20 -20 -20 -20 -20 -20 -20 -20 -20 -20 -20 -20 -20 -20 -20 -20 -20 -20 -20 -20 -20 -20 -20 -20 -20 -20 -20 -20 -20 -20 -20 -20 -20 -20 -20 -20 -20 -20 -20 -20 -20 -20 -20 -17 6
-20 -20 -20 -20 -20 -20 -20 -20 -20 -20 -20 -20 -20 -20 -20 -20 -20 -20 -20 -20 -20 -20 -20 -20 -20 -20 -20 -20 -20 -20 -20 -20 -20 -20 -20 -20 -20 -20 -20 -20 -20 -20 -20 -20 -20 -20 -20 -20 -0
-20 -20 -20 -20 -20 -20 -20 -20 -20 -20 -20 -20 -20 -20 -20 -20 -20 -20 -20 -20 -20 -20 -20 -20 -20 -20 -20 -20 -20 -20 -20 -20 -20 -20 -20 -20 -20 -20 -20 -20 -20 -20 -20 -20 -20 -20 -20 -20 -20
-20 -20 -20 -20 -20 -20 -20 -20 -20 -20 -20 -20 -20 -20 -20 -20 -20 -20 -20 -20 -20 -20 -20 -20 -20 -20 -20 -20 -20 -20 -20 -20 -20 -20 -20 -20 -20 -20 -20 -20 -20 -20 -20 -20 -20 -20 -20 -20 -20

GFSSGP_prec_radar_048.txt.gz
Reflectivity
-14 -20 -20 -20 -20 -20 -20 -20 -20 -20 -9 -20 -20 -20 -20 -20 -20 -20 -20 -20 -20 -20 -14 -15 -4 -20 -20 -20 -20 -20 -20 -20 -20 -20 -20 -20 -20 -20 10 -20 -20 -20 -20 -20 -20 -20 -20 -20 -20
-10 -15 -20 -20 -20 -20 -20 -20 -20 -20 -20 -20 -20 -20 -20 -20 -20 -20 -20 -20 -20 -20 -14 7 -20 16 4 -20 -20 -20 -18 -20 -20 -20 -20 -20 -20 -20 12 -15 -17 -20 -20 -20 -20 -20 -20 -20 -20
-20 -1 -20 -20 -20 -20 -20 -20 -20 -20 -20 -20 -20 -20 -20 -20 -20 -20 -20 -0 -12 -20 -20 -20 -20 -20 -20 -20 -20 -20 -17 -20 -1 -20 -20 -20 -12 -2 11 -14 -18 -20 -20 -20 -20 -20 -20 -20 -20
-19 -12 -9 -20 -20 -20 -20 -20 -20 -20 -20 -20 -20 -20 -20 -20 -20 -20 -20 5 -20 -20 -20 17 -20 -20 -20 -20 -20 15 -20 -20 -20 -20 -20 -14 4 14 13 1 -20 -20 -20 -20 -20 -20 -20 -20 -20
-19 -20 0 -20 -20 -20 -20 -20 -20 -20 -20 -20 -20 -20 -20 -20 -20 -20 -4 -20 -20 -20 -20 -12 10 -20 -20 -20 -8 -20 -20 -20 -20 -20 -20 5 14 17 -1 -20 -20 -20 -20 -20 -20 -20 -20 -20 -20
-19 -20 -19 -20 -20 -20 -20 -20 -20 -20 -20 -20 -20 -20 -20 -20 -20 -15 -20 -20 -20 -20 -20 -7 -20 -20 -20 -18 -1 -20 -20 -20 -20 -20 -20 -8 17 14 5 -20 -20 -20 -20 -20 -20 -20 -20 -20 -20
-17 -20 -20 -20 7 -5 -20 -20 -20 -20 -20 -20 -20 -20 -20 -20 -20 -20 -20 -20 -20 -20 -20 -20 14 -20 -20 -10 -20 -7 -4 -20 -20 -20 -20 -20 -18 9 15 -20 -20 -20 -20 -20 -20 -20 -20 -20 -20
5 -20 -20 -20 10 11 -19 -20 -20 -20 -20 -20 -20 -20 -20 -20 -20 -20 -20 -20 -20 -20 -20 -20 -20 -20 -20 16 7 8 -20 -20 -20 -20 -20 -20 -20 -20 -20 -20 -20 -20 -20 -20 -20 -20 -20 -20 -20
30 20 -20 -20 -15 19 -13 -20 -20 -20 -20 -20 -20 -20 -20 -20 -20 -20 -20 -20 -20 -20 -20 -20 -20 -20 -20 -20 -2 12 -5 -20 -20 -20 -20 -20 -20 -20 -20 -20 -20 -6 -20 -20 -20 -20 -20 -20 -20
34 31 11 -20 -0 15 -9 -20 -20 -20 -20 -20 -20 -20 -3 -16 -20 -20 -20 -20 -20 -20 -20 -20 -20 -20 -20 -20 -20 -18 -20 -20 -20 -20 -20 -20 -20 -20 -20 -20 -20 -5 -20 -20 -20 -20 -20 -20 -20
21 -0 -19 -20 14 18 10 -15 -20 -20 -20 -20 -20 -20 -15 26 20 -1 -20 -20 -20 -20 -20 -20 -20 -20 -20 -20 -20 -20 -20 -20 -20 -20 -20 -20 -20 -20 -20 -20 -20 -20 -20 -20 -20 -20 -20 -20 -20
12 30 -11 -20 18 12 15 -4 -20 -20 -20 -20 -20 -20 -20 21 16 6 -5 -20 -20 -20 -20 -20 -20 -20 -20 -20 -20 -20 -20 -20 -20 -20 -20 -20 -20 -20 -20 -20 -20 -20 -20 -20 -20 -20 -20 -20 -20
9 -18 -3 13 21 20 19 12 1 -20 -20 -20 -20 -20 -20 -20 20 26 -12 -20 -20 -20 -20 -20 -20 -20 -20 -20 -20 -20 -20 -20 -20 -20 -20 -20 -20 -20 -20 -20 -20 -20 -20 -20 -20 -20 -20 -20 -20
-15 13 4 25 24 24 16 -10 10 -20 -20 -20 -20 -20 -20 -7 23 17 27 -20 -20 -20 -20 -20 -20 -20 -20 -20 -20 -20 -20 -20 -20 -20 -20 -20 -20 -20 -20 -20 -20 -20 -20 -20 -20 -20 -20 -20 -20
21 19 16 12 19 25 28 10 6 13 -9 -20 -20 -20 -20 -20 -20 -3 9 -14 -20 -20 -20 -20 -20 -20 -20 -20 -20 -20 -20 -20 -20 -20 -20 -20 -20 -20 -20 -20 -20 -20 -20 -20 -20 -20 -20 -20 -20
21 25 21 11 -2 15 3 -20 -20 15 18 -20 -20 -20 -20 -20 -20 -20 -15 -14 -20 -20 -20 -20 -20 -20 -20 -20 -20 -20 -20 -20 -20 -20 -20 -20 -20 -20 -20 -20 -20 -20 -20 -20 -20 -20 -20 -20 -20
-2 -20 -18 17 -20 -2 0 -20 6 17 34 -8 -20 -20 -20 -20 -20 -20 -20 -20 -20 -20 -20 -20 -20 -20 -20 -20 -20 -20 -20 -20 -20 -20 -20 -20 -20 -20 -20 -20 -20 -20 -20 -20 -20 -20 -20 -20 -20
-20 -20 -20 -20 -20 -20 -12 -20 -7 -7 18 9 -20 -20 -20 -20 -20 -20 -20 -20 -20 -20 -20 -20 -20 -20 -20 -20 -20 -20 -20 -20 -20 -20 -20 -20 -20 -20 -20 -20 -20 -20 -20 -20 -20 -20 -20 -20 -20
-20 -20 -20 -20 -20 -20 -11 12 -12 -13 20 32 -19 -20 -20 -20 -20 -20 -20 -20 -20 -20 -20 -20 -20 -20 -20 -20 -20 -20 -20 -20 -20 -20 -20 -20 -20 -20 -20 -20 -20 -20 -20 -20 -20 -20 -20 -20 -20
-20 -20 -20 -20 -19 -18 -1 -16 -8 3 -11 19 0 -20 -20 -20 -20 -20 -20 -20 -20 -20 -20 -20 -20 -20 -20 -20 -20 -20 -20 -20 -20 -20 -20 -20 -20 -20 -20 -20 -20 -20 -20 -20 -20 -20 -20 -20 -20
-20 -20 -20 -20 -20 -16 -20 -3 7 -19 -20 -6 25 1 -20 -20 -20 -20 -20 -20 -20 -20 -20 -20 -20 -20 -20 -20 -20 -20 -20 -20 -20 -20 -20 -20 -20 -20 -20 -20 -20 -20 -20 -20 -20 -20 -20 -10 -20
-20 -20 -20 -20 -20 -19 -20 -14 4 6 1 13 -20 2 -16 -20 -20 -20 -20 -20 -20 -20 -20 -20 -20 -20 -20 -20 -20 -20 -20 -20 -20 -20 -20 -20 -20 -20 -20 -20 -20 -20 -20 -20 -20 -20 -20 -20 -20
-20 -20 -20 -20 -20 -20 -20 -20 -20 -19 -3 -20 8 -19 2 -14 -18 -20 -20 -20 -20 -20 -20 -20 -20 -20 -20 -20 -20 -20 -20 -20 -20 -20 -20 -20 -20 -20 -20 -20 -20 -20 -20 -20 -20 -20 -20 -20 -20
-20 -20 -20 -20 -20 -20 -20 -20 -20 -3 -20 -20 10 12 -11 -12 -20 -20 -20 -20 -20 -20 -20 -20 -20 -20 -20 -20 -20 -20 -20 -20 -20 -20 -20 -20 -20 -20 -20 -20 -20 -20 -20 -20 -20 -20 -20 -1 -18
-20 -20 -20 -20 -20 -20 -20 -20 -16 -4 -20 -18 -18 4 6 -18 -20 -20 -20 -20 -20 -20 -20 -20 -20 -20 -20 -20 -20 -20 -20 -20 -20 -20 -20 -20 -20 -20 -20 -20 -20 -20 -20 -20 -20 -20 -20 -3 -20
-20 -20 -20 -20 -20 -20 -20 -20 -20 -18 -19 -20 -20 -20 -5 2 -20 -20 -20 -20 -20 -20 -20 -20 -20 -20 -20 -20 -20 -20 -20 -20 -20 -20 -20 -20 -20 -20 -20 -20 -20 -20 -20 -20 -20 -20 1 -20 -20
-20 -20 -20 -20 -20 -20 -20 -20 -20 -20 -20 -20 -20 -20 -20 -20 1 -20 -20 -20 -20 -20 -20 -20 -20 -20 -20 -20 -20 -20 -20 -20 -20 -20 -20 -20 -20 -20 -20 -20 -20 -20 -20 -20 -20 -20 -20 -10 -20
-20 -20 -20 -20 -20 -20 -20 -20 -20 -20 -20 -20 -20 -20 -20 -20 -20 -20 -20 -20 -20 -20 -20 -20 -20 -20 -20 -20 -20 -20 -20 -20 -20 -20 -20 -20 -20 -20 -20 -20 -20 -20 -20 -20 -20 -20 -6 -15 -8
-20 -20 -20 -20 -20 -20 -20 -20 -20 -20 -20 -20 -20 -20 -20 -20 -20 -20 -20 -20 -20 -20 -20 -20 -20 -20 -20 -20 -20 -20 -20 -20 -20 -20 -20 -20 -20 -20 -20 -20 -20 -20 -20 -20 -20 -20 -20 -20 -20
-20 -20 -20 -20 -20 -20 -20 -20 -20 -20 -20 -20 -20 -20 -20 -20 -20 -20 -20 -20 -20 -20 -20 -20 -20 -20 -20 -20 -20 -20 -20 -20 -20 -20 -20 -20 -20 -20 -20 -20 -20 -20 -20 -20 -20 -20 -20 -20 -20

GFSSGP_prec_radar_054.txt.gz
Reflectivity
-15 -13 8 -20 -20 -20 -20 -20 -20 8 -20 -20 -20 -20 -20 -20 -20 -20 -20 -20 -20 -20 -20 -20 6 12 -7 -18 -3 -4 4 7 -20 -20 -20 -16 -7 -20 -20 -20 -20 -20 -19 9 -14 1 8 -17 -20
-9 -20 -12 4 -20 -20 -20 -20 -20 -14 -13 -20 -20 -20 -20 -20 -20 -20 -20 -20 -20 -20 -20 -20 -20 -20 -20 -0 3 -3 -20 -20 -20 -20 -20 -20 -2 -20 -20 -20 -20 -20 -20 -20 -20 -20 -20 -20 -20
-16 -20 -12 4 -15 -20 -20 -20 -20 -20 5 -19 -20 -20 -20 -20 -20 -20 -20 -20 -20 -20 -20 -20 4 -20 -6 -10 -20 -20 -20 -20 -20 -20 -20 -20 14 3 -17 -20 -20 -20 -20 -20 -20 -20 -20 -20 -20
-20 -18 -20 -18 -4 -20 -20 -20 -20 -20 -20 -6 -20 -20 -20 -20 -20 -20 -20 -20 -20 -20 -20 -19 -20 14 -20 -20 -20 -20 -20 -20 -20 -20 -20 -20 15 -4 -20 -20 -20 -20 -20 -20 -20 -20 -20 -20 -20
-13 -20 -20 -20 -20 -3 -20 -20 -20 -20 -20 -20 -2 -20 -20 -20 -20 -20 -20 -20 -20 -20 -20 -20 -4 -16 -13 -20 -20 -20 -20 -20 -20 -20 -20 -13 12 4 -20 -20 -20 -20 -20 -20 -20 -20 -20 -20 -20
-1 -20 -20 -20 -20 0 -15 -20 -20 -20 -20 -20 -19 -16 -20 -11 -8 -14 -20 -20 -20 -20 -20 5 10 -20 -20 15 -20 -20 -20 -20 -20 -20 14 19 11 12 -6 -20 -20 -20 -20 -20 -20 -20 -20 -20 -20
12 -20 -20 -20 -18 -19 11 -0 -20 -20 -20 -20 -20 -20 -20 -20 12 6 -8 -20 -20 -14 -20 8 3 -20 -20 -20 -1 -20 -20 -20 -20 -20 -20 -14 -3 -20 -20 -20 -20 -20 -20 -20 -20 -20 -20 -20 -20
-5 -15 12 -20 -20 -3 7 9 0 -20 -20 -20 -20 -20 -20 -20 13 9 -5 -1 -20 9 11 -2 4 -20 7 -7 12 -20 -20 -20 -20 -20 -20 -20 -20 -18 9 -20 -20 -20 -20 -20 -20 -20 -20 -20 -20
15 3 8 13 -20 -8 -5 10 -0 -17 -20 -20 -20 -20 -20 -20 -3 8 14 6 -9 4 2 -20 -1 -20 -4 14 -11 10 -3 -20 -20 -20 -20 -20 -20 -20 -20 -20 -20 -20 -20 -20 -20 -20 -20 -20 -20
24 -16 3 5 -7 -20 5 -4 8 -20 -20 -20 -20 -20 -20 -1 9 5 -14 -13 -20 2 1 -18 -1 -14 -20 -6 -20 -13 -20 -20 -20 -20 -20 -20 -20 -20 -20 -20 -20 -20 -20 -20 -20 -20 -20 -20 -20
-17 -18 0 -20 -7 -20 -9 11 1 -0 -20 -20 -20 -20 -20 12 -3 9 1 -20 -20 -20 -19 3 7 5 -20 9 -20 -20 -20 3 -20 -20 -20 -20 -20 -20 -20 -20 -20 -20 -20 -20 -20 -20 -20 -20 -20
-20 18 1 -13 -20 24 -20 -20 -7 -20 -5 -20 -20 -20 -20 14 -6 9 2 -17 -20 -20 -20 -20 -20 1 4 11 7 -18 -20 -20 -9 -20 -20 -20 -20 -20 -20 -20 -20 -20 -20 -20 -20 -20 -20 -20 -20
-8 -3 -13 -19 -20 -17 -14 0 6 -18 -20 -2 -20 -20 -20 -17 -20 -3 -1 -1 5 0 -2 -20 -20 -20 -20 -4 8 1 -11 -20 -20 -20 -20 -20 -20 -20 -20 -20 -20 -20 -20 -20 -20 -20 -20 -20 -20
-6 29 28 -5 18 -20 -20 -20 5 11 -20 -20 -9 -20 -20 -20 -20 -20 -20 -11 -19 -20 -20 -20 -20 -20 -20 -20 3 4 3 -20 -20 -20 -20 -20 -20 -20 -20 -20 -20 -20 -20 -20 -20 -20 -20 -20 -20
-17 -17 -13 22 -17 -19 26 -1 -2 11 -20 -20 -20 -12 -20 -17 -20 -20 -20 -20 -20 -20 -20 -20 -20 -20 -20 -20 -20 -20 -20 -20 -20 -20 -20 -20 -20 -20 -20 -20 -20 -20 -20 -20 -20 -20 -20 -20 -20
-20 21 18 -4 9 -5 28 1 -20 12 -20 -20 -20 -20 -7 -20 -20 -20 -20 -20 -20 -20 -20 -19 -6 -20 -20 -20 -20 -20 -20 -20 -20 -20 -20 -20 -20 -20 -20 -20 -20 -20 -20 -20 -20 -20 -20 -20 -20
6 7 0 17 6 12 4 -13 -20 11 10 -20 -20 -20 -20 -2 -20 -20 -20 -20 -20 -20 -20 -20 7 -17 -20 -20 -20 -20 -20 -20 -20 -20 -20 -20 -20 -20 -20 -20 -20 -20 -20 -20 -20 -20 -20 -20 -20
-20 -3 8 21 14 15 9 11 -20 -20 -20 -20 -20 -20 -20 -20 -20 -20 -20 -20 -20 -20 -20 -20 4 7 -20 -20 -20 -20 -20 -20 -20 -20 -20 -20 -20 -20 -20 -20 -20 -20 -20 -20 -20 -20 -20 -20 -20
-20 -2 11 -13 -14 15 14 15 -14 -20 -20 -20 -20 -20 -20 -20 -20 -20 -20 -20 -20 -20 -20 -20 -20 19 14 -3 -20 -20 -20 -20 -20 -20 -20 -20 -20 -20 -20 -20 -20 -20 -20 -20 -20 -20 -20 -1 -13
-20 -20 -11 -13 10 28 23 -15 -12 -20 -20 -7 -20 -18 -20 -20 -20 -3 -19 -20 -20 -20 -20 -20 -20 -20 -20 -6 -20 -20 -20 -20 -20 -20 -20 -20 -20 -20 -8 -20 -20 -20 -17 -19 -19 -17 -10 -20 -20
-20 -20 -16 -20 7 18 -11 -15 -20 -20 -20 -20 -20 -20 -20 -20 -20 -16 3 -14 -20 -20 -20 -20 -20 -20 -20 -18 -20 -20 -20 -20 -20 -20 -20 -20 -20 -20 -20 -19 -5 -12 5 6 1 1 10 -4 -9
-20 -20 -20 -20 -20 -18 -20 -20 -19 -19 -20 -20 -20 -20 -20 -20 -20 -20 -19 -10 -9 0 -19 -20 -20 -20 -20 -20 -20 -20 -20 -20 -20 -20 -20 -20 -20 -20 -20 -20 -20 -20 -20 -11 -20 -20 -19 -14 -14
-20 -20 -20 -20 -20 -20 -20 -20 -20 -20 -20 -20 -20 -20 -20 -20 -20 -20 -20 -16 2 -9 -20 -20 -20 -20 -20 -20 -19 -20 -20 -20 -20 -20 -20 -20 -20 -20 -20 -20 -20 -20 -20 -20 -20 -20 -20 -20 -12
-8 -20 -20 -20 4 -6 -20 -20 -20 -20 -20 -20 -20 -20 -20 -20 -20 -20 -12 -20 -20 -20 9 -11 -20 -20 -20 -20 -20 -20 -20 -20 -20 -20 -20 -20 -20 -20 -20 -20 -20 -20 -20 -20 -20 -20 -20 -20 8
-15 -20 9 4 7 -12 -20 -20 -20 -20 -20 -20 -20 -20 -20 -20 -20 -13 -19 -20 -20 -20 -20 -14 -16 -20 -20 -20 -20 -20 -20 -20 -20 -20 -20 -20 -20 -20 -20 -20 -20 -20 -20 -20 -11 6 11 4 10
-18 -20 -19 -18 -1 -18 -20 -20 -20 -20 -20 -20 -20 -20 -20 -20 -20 -17 11 11 -14 -20 -19 -20 -20 -20 -20 -20 -20 -20 -20 -20 -20 -20 -20 -20 -20 -20 -20 -20 -20 -20 -20 -20 -18 -20 -18 -20 -11
-6 1 -20 -20 -20 -20 -20 -20 -20 -20 -20 -20 -20 -20 -20 -20 -20 -6 -4 4 9 21 5 -14 -20 -20 -20 -20 -20 -20 -20 -20 -20 -20 -20 -20 -20 -20 -20 -20 -20 -20 -20 -20 -20 -20 -20 -20 -1
-6 -20 -20 -20 -20 -20 -20 -20 -20 -20 -20 -20 -20 -20 -20 -20 -20 -20 -20 8 5 -5 4 2 -20 -20 -20 -20 -20 -20 -20 -20 -20 -20 -20 -20 -20 -20 -20 -20 -20 -20 -20 -20 -20 -20 -20 -20 -20
-20 -20 -20 -13 -20 -20 -20 -20 -20 -20 -20 -20 -20 -20 -20 -20 -20 -20 -20 -20 -19 -13 -20 -20 -20 -20 -20 -20 -20 -20 -20 -20 -20 -20 -20 -20 -20 -20 -20 -20 -20 -20 -20 -20 -20 -20 -20 -20 -20
-20 -20 -20 -7 -18 -20 -20 -20 -20 -20 -20 -20 -20 -20 -20 -20 -20 -20 -20 -20 -20 -20 -20 -14 -20 -20 -20 -20 -20 -20 -20 -20 -20 -20 -20 -20 -20 -20 -20 -20 -20 -20 -20 -20 -20 -20 -20 -20 -20

GFSSGP_prec_radar_057.txt.gz
Reflectivity
-20 -14 -2 -18 -20 -20 -20 -20 -20 10 -18 -20 -20 -20 18 7 0 -20 -20 -20 -20 -20 -20 -5 -20 -20 -20 -20 9 -20 12 -1 -4 -20 -20 -20 -20 -20 -20 -20 -20 -6 17 18 12 15 -18 -20 -20
-20 -11 -5 1 -20 -20 -20 -4 -20 -17 14 -20 -20 -14 11 -14 -20 -20 -20 -20 -20 -20 -20 -20 -10 -20 -20 -18 -20 -20 -3 -20 -20 -20 -20 -12 -19 -6 -20 -20 -20 -20 -20 -20 2 -19 -20 -20 -20
-20 -20 -5 -9 -20 -20 -20 -20 0 -20 6 2 -7 -15 20 -19 -20 -20 -20 -20 -20 -20 -20 -7 14 -20 -20 -20 -20 -20 -20 -20 -20 -20 -20 14 -0 -18 -20 -20 -20 -20 -20 -20 -20 -20 -20 -20 -20
-20 -20 -20 -19 -20 -20 -20 -20 -7 -20 -20 20 10 -19 9 9 -19 -20 -20 -20 -20 -20 -20 -20 -20 -20 -20 -20 -20 -20 -20 -20 -20 -20 -20 16 5 -20 -20 -20 -20 -20 -20 -20 -20 -20 -20 -20 -20
-20 -20 -20 -20 -20 -18 -19 -20 -20 -20 -16 -6 17 0 -3 -17 -20 -20 -20 -20 -20 -20 -20 -20 -20 -20 -20 -20 -20 -20 -20 -20 -20 -20 -20 16 -20 -20 -20 -20 -20 -20 -20 -20 -20 -20 -20 -20 -20
-18 -20 -20 -20 -20 -8 -8 -20 -4 -16 -20 -20 18 -3 -9 -12 -14 -20 -20 -20 -20 -20 -20 -20 -13 -20 -20 -1 -20 -20 -20 -20 -20 -20 10 13 11 -20 -20 -20 -20 -20 -20 -20 -20 -20 -20 -20 -20
-11 -20 -20 -20 -20 11 -20 -7 -1 -20 -20 -20 -20 7 9 4 -19 -18 -20 -20 -20 -20 -20 -12 9 -9 -20 -20 -20 -20 -20 -20 -20 -20 9 -13 -0 -20 -20 -20 -20 -20 -20 -20 -20 -20 -20 -20 -20
-7 -18 -20 -20 0 21 -20 -1 7 -20 -20 -20 -20 -20 15 5 -10 -5 -20 -20 -20 -20 -20 5 -1 -20 1 -12 11 -20 -20 -20 -20 -20 -20 -20 -20 -20 -20 -20 -20 -20 -20 -20 -20 -20 -20 -20 -20
-3 20 -3 3 8 14 -15 -3 10 -18 -20 -20 -20 -20 -20 3 14 -4 -15 -20 -20 -11 -18 17 8 -20 8 -7 -1 4 -20 -20 -20 -20 -20 -20 -20 -20 -20 -20 -20 -20 -20 -20 -20 -20 -20 -20 -20
16 19 -8 10 -5 6 -10 -1 -20 6 -20 -20 -20 -20 -13 -0 -8 15 -4 -2 -20 -4 13 9 17 -20 -4 -4 -20 -16 -20 -20 -20 -20 -20 -20 -20 -20 -20 -20 -20 -20 -20 -20 -20 -20 -20 -20 -20
12 -3 -20 21 21 -20 -9 -1 -20 2 -1 -20 -20 -20 -17 -9 -12 8 -4 2 -20 -4 -9 -16 4 -20 14 9 -20 -20 -20 -20 -20 -20 -20 -20 -20 -20 -20 -20 -20 -20 -20 -20 -20 -20 -20 -20 -20
22 -20 -2 24 14 -14 -14 -6 -20 -13 -4 -19 -20 -20 -20 6 -19 3 -3 -17 -19 -20 -20 -20 -13 -6 -0 5 -20 -20 -20 -20 -20 -20 -20 -20 -20 -20 -20 -20 -20 -20 -20 -20 -20 -20 -20 -20 -20
5 -7 23 3 14 -5 21 -11 -13 -20 -20 -4 -16 -20 -20 -20 22 25 -12 30 1 -14 -4 -16 -18 -13 -14 13 -11 -20 -20 -20 -20 -20 -20 -20 -20 -20 -20 -20 -20 -20 -20 -20 -20 -20 -20 -20 -20
28 10 29 10 25 -16 -20 8 -15 4 -20 -16 3 -13 -20 -20 -20 -20 -15 -20 -15 10 -17 -17 -20 -10 -14 -18 4 -2 -8 -20 -20 -20 -20 -20 -20 -20 -20 -20 -20 -20 -20 -20 -20 -20 -20 -20 -20
36 -14 24 -20 -19 -19 -20 -19 -20 4 -19 -20 -20 -0 -15 -20 -20 -20 -20 -20 -16 11 11 10 -5 -20 4 -20 -20 -19 -20 -20 -20 -20 -20 -20 -20 -20 -20 -20 -20 -20 -20 -20 -20 -20 -20 -20 -20
3 26 16 -20 -20 -18 -20 -20 -20 12 14 -20 -18 -20 -13 -9 -20 -20 -20 -20 -20 -20 -20 -20 -10 -20 -20 -20 -20 -20 -20 -20 -20 -20 -20 -20 -20 -20 -20 -20 -20 -20 -20 -20 -20 -20 -20 -20 -20
13 32 39 3 -20 -10 -20 -20 -3 -5 -3 -20 -7 -20 -20 -16 -13 -20 -20 -20 -20 -20 -20 -20 -20 -20 -20 -20 -20 -20 -20 -20 -20 -20 -20 -20 -20 -20 -20 -20 -20 -20 -20 -20 -20 -20 -20 -18 -12
-11 -4 -16 -19 3 12 -20 -20 -20 -20 -20 -20 -20 -14 -20 -20 -20 -16 -20 -20 -20 -20 -20 -20 -20 -20 -20 -20 -18 -20 -20 -20 -20 -20 -20 -20 -20 -20 -20 -20 -20 -20 -20 -20 -19 6 4 -2 7
-20 -20 -20 -20 21 4 -18 -8 -20 -16 -20 -20 -20 -16 -20 -20 -20 -20 -10 -20 -20 -20 -20 -20 -20 -20 -20 -19 4 7 3 -17 -20 -20 -20 -20 -20 -20 -20 -20 -20 -7 -20 -20 1 -4 1 -1 -20
-20 -20 -20 13 -18 17 2 16 10 -18 -20 -20 -20 -20 -20 -20 -20 -20 -20 -19 -20 -20 -20 -20 -20 -20 -20 -1 -18 1 12 3 -20 -13 -14 -20 -20 -8 1 -6 1 -5 -6 -6 -7 -8 1 -4 1
-20 -20 -20 -6 4 3 1 -1 -14 -13 -20 -20 -20 -20 -20 -20 -20 -20 -20 -7 -20 -20 -20 -20 -20 -20 -20 -13 5 -15 -20 -12 -8 -20 -8 -19 -20 -20 -20 -20 0 -16 14 4 -0 -4 8 13 3
-20 -20 8 -14 0 -14 -20 -10 -20 -3 -20 -20 -20 -20 -20 -20 -20 -20 -20 -20 -20 -20 -20 -20 -20 -20 -20 -20 -20 -20 -20 -9 -20 -20 -20 -20 -20 -20 -20 -20 -20 -20 -16 -15 -20 -20 -1 4 5
-20 -20 -20 -20 -20 -20 -20 -20 -20 -20 3 -2 -20 -20 -20 -20 -20 -2 -19 -20 -20 -20 -19 -20 -20 -17 -17 -20 -20 -20 -20 -20 -20 -20 -20 -20 -20 -20 -20 -20 -20 -20 -20 -20 -20 -20 -20 -20 -20
-17 -13 -20 -20 -20 -20 -20 -20 -20 -20 -20 -20 -20 -20 -20 -20 -20 -20 -20 -20 -20 -20 -2 13 3 -6 -4 2 -20 -20 -20 -20 -20 -20 -20 -20 -20 -20 -20 -20 -20 -20 -20 -20 -20 -20 -20 -20 -20
-20 -13 -10 1 4 -0 -20 -20 -20 -20 -20 -20 -20 -8 -20 -20 -20 -20 -20 -20 -20 -20 -20 -18 -3 -17 1 -20 -14 -20 -20 -20 -20 -20 -20 -20 -20 -20 -20 -20 -20 -20 -20 -20 -20 -20 -10 -7 3
-20 -20 -20 -19 -18 -20 -20 -20 -20 -20 -20 -20 -20 -20 -20 -20 -20 -20 -20 -20 -20 -20 -20 -20 -20 -20 -6 -5 6 -20 -20 -20 -20 -20 -20 -20 -20 -20 -20 -20 -20 -20 -20 -20 -20 4 0 -12 -16
-20 -4 -20 -20 -20 -20 -20 -20 -20 -20 -20 -20 -20 -20 -20 -20 -20 -20 -20 -20 -20 -13 -3 -1 -20 -20 -20 -20 -20 -20 -20 -20 -20 -20 -20 -20 -20 -20 -20 -20 -20 -20 -20 -20 -20 -10 13 11 -4
-6 -20 -13 -20 -20 -20 -20 -20 -20 -20 -20 -20 -20 -20 -20 -20 -20 -20 -20 -20 -20 -16 -6 24 20 -7 -10 -20 -19 -20 -20 -20 -20 -20 -20 -20 -20 -20 -20 -20 -20 -20 -20 -20 -20 -20 -20 -20 -20
-20 -20 -10 1 -20 -7 -20 -20 -20 -20 -20 -20 -20 -20 -20 -20 -20 -20 -20 -20 -20 -20 -12 5 7 3 21 17 -6 -20 -20 -20 -20 -20 -20 -20 -20 -20 -20 -20 -20 -20 -20 -20 -20 -20 -20 -20 -20
-20 2 -20 -0 -5 -20 -20 -20 -20 -20 -20 -20 -20 -20 -20 -20 -20 -20 -20 -20 -20 -20 -20 6 -2 5 1 -4 2 -2 -20 -20 -20 -20 -20 -20 -20 -20 -20 -20 -20 -20 -20 -20 -20 -20 -20 -20 -20

GFSSGP_prec_radar_060.txt.gz
Reflectivity
-20 -20 -3 -4 -20 5 -20 -20 -6 26 3 -1 10 7 8 0 5 -20 -20 -20 -20 -20 -20 -20 -20 -17 -20 -20 8 -20 -20 -20 -20 3 -20 -20 -20 -20 -20 -20 14 18 13 15 15 -5 -20 -20 -20
-20 -20 -16 4 -20 -2 -20 -20 6 -17 14 -20 7 10 -9 -20 -20 -20 -20 -20 -20 -20 -20 -20 -20 13 10 4 -20 -20 -20 -20 -20 2 -5 -20 -20 -20 -20 -20 -15 -4 16 13 -15 -20 -20 -20 -20
-20 -13 -20 -15 -19 -20 -20 -16 -7 -19 -15 22 21 22 -20 -20 -20 -20 -20 -20 -20 -20 -20 -20 -20 15 -20 -20 -20 -20 -20 -20 -20 -20 13 -2 -20 -20 -20 -20 -20 -20 -20 -20 -20 -20 -20 -20 -20
-13 -19 -15 -19 -20 -20 -0 4 -20 -20 -14 16 13 4 8 32 8 -20 -20 -20 -20 -20 -20 -20 3 -20 -20 -20 -20 -20 -20 -20 -20 -20 13 7 -20 -20 -20 -20 -20 -20 -20 -20 -20 -20 -20 -20 -20
9 -11 -20 -20 -20 -13 4 14 10 -20 -1 -6 27 -11 34 24 18 22 -15 -20 -20 -20 -20 -20 -20 -20 -20 -20 -20 -20 -20 -20 -20 -20 -20 -2 -20 -20 -20 -20 -20 -20 -20 -20 -20 -20 -20 -20 -20
28 -17 -20 -20 -20 -4 18 8 -20 -20 -12 -20 -20 18 11 -6 29 21 -13 -20 -20 -20 -20 -20 -20 -20 -20 -20 -20 -20 -20 -20 -20 -20 14 -7 -20 -20 -20 -20 -20 -20 -20 -20 -20 -20 -20 -20 -20
20 19 -20 -20 -20 5 25 2 -20 -9 -7 -20 -20 -7 34 -3 18 20 -20 -20 -20 -20 -20 -20 -20 -20 -20 -20 -20 -20 -20 -20 -20 -20 13 7 -20 -20 -20 -20 -20 -20 -20 -20 -20 -20 -20 -20 -20
25 19 -20 -20 -8 9 25 -20 -20 -15 6 5 -20 12 27 7 24 13 11 -19 -20 -20 -20 -2 -20 -20 -20 -20 -20 -20 -20 -20 -20 -20 -20 -20 -20 -20 -20 -20 -20 -20 -20 -20 -20 -20 -20 -20 -20
13 15 -20 -20 -20 15 -10 -20 -20 0 -0 -1 3 -20 17 31 29 10 7 -20 -20 -4 -14 11 1 -6 -20 -20 -5 -20 -20 -20 -20 -20 -20 -20 -20 -20 -20 -20 -20 -20 -20 -20 -20 -20 -20 -20 -20
29 27 -15 -20 3 24 -20 -20 -20 1 -6 -20 -1 -11 8 13 31 23 16 10 -1 10 9 -16 -9 -20 5 3 -20 -20 -20 -20 -20 -20 -20 -20 -20 -20 -20 -20 -20 -20 -20 -20 -20 -20 -20 -20 -20
24 23 -8 -18 -20 -18 -20 -20 -20 1 9 -20 -20 -10 1 -17 7 34 28 14 15 2 -20 9 -20 -19 -17 -20 -20 -20 -20 -20 -20 -20 -20 -20 -20 -20 -20 -20 -20 -20 -20 -20 -20 -20 -20 -20 -20
21 12 23 18 21 -20 -20 -20 -11 18 4 -20 -20 -20 -6 -1 -7 15 18 11 14 22 -17 3 -20 -4 -13 -20 -20 -20 -20 -20 -20 -20 -20 -20 -20 -20 -20 -20 -20 -20 -20 -20 -20 -20 -20 -20 -20
22 -10 32 11 5 16 -20 -19 -20 -19 -20 -20 -20 -20 -20 -6 3 -20 4 1 -13 2 -10 3 -4 -20 8 -11 1 -20 -20 -20 -20 -20 -20 -20 -20 -20 -20 -20 -20 -20 -20 -20 -20 -20 -20 -20 -20
-16 10 5 19 2 23 -1 21 -16 -20 -20 -4 -14 -20 -20 -20 -20 -20 -20 7 -20 -12 -2 -13 -20 -6 8 -10 -17 -13 -20 -20 -20 -20 -20 -20 -20 -20 -20 -20 -20 -20 -20 -20 -20 -20 -20 -20 -20
21 12 23 18 37 -13 34 18 -20 -20 -20 -10 -3 -20 -20 -20 -20 -20 -16 30 -20 9 11 -20 -5 -17 -20 11 4 -20 -20 -20 -20 -20 -20 -20 -20 -20 -20 -20 -20 -20 -20 -20 -20 -20 -20 -20 -20
3 -16 29 31 12 12 -20 -20 -20 -20 -20 -20 -20 -20 -20 -20 -20 -20 -10 -20 -20 5 8 23 17 -5 -16 21 -8 -2 -20 -20 -20 -20 -20 -20 -20 -20 -20 -20 -20 -20 -20 -20 -20 -20 -20 -20 -20
-11 4 28 41 6 34 -20 -20 -20 -20 -14 -20 -11 -12 -17 -16 -20 -20 -20 -20 -20 -1 -2 -4 -2 -16 -20 -20 -20 -20 -20 -20 -20 -20 -20 -20 -20 -20 -20 -20 -20 -20 -20 -11 -10 -13 -17 5 1
18 9 20 -3 -6 -20 -20 -20 -20 -20 -20 5 -17 3 2 -3 -20 -20 -20 -20 -20 -20 -20 18 -20 -20 -20 -20 -20 -20 -20 -20 -20 -20 -20 -20 -20 -20 -20 -20 -20 -5 3 9 3 0 -16 -20 -2
-20 11 16 -1 27 1 -20 -20 -20 -20 -20 -20 -20 -20 -20 -19 -20 -20 -20 -14 -15 -20 -20 -20 -1 -20 -20 -20 -20 -20 -20 -20 -20 -7 -15 -20 -20 -20 -20 -20 -20 3 -4 -2 -10 6 -10 -20 -20
-14 8 22 9 20 -7 -11 -17 -20 -20 -20 -20 -20 -20 -20 -20 0 -16 -20 -20 -20 -20 -20 -20 -15 -20 -20 -20 -20 -20 -20 -20 -20 -20 -20 -18 -20 -20 4 -9 -5 7 6 -1 2 4 7 4 3
3 16 33 16 29 -2 -8 -17 -20 -20 -20 -20 -20 -20 -20 -20 -19 -16 -20 -20 -19 -20 -20 -10 -8 -20 -20 -20 -20 -20 -20 -20 -16 -10 -19 -20 -20 -18 -20 -20 -20 -17 -14 -7 -18 4 -2 6 -6
-17 -15 6 28 -20 -15 -20 -20 -20 -20 -20 -0 -20 -20 -20 -20 -20 -20 -20 -20 -20 -20 -20 -20 -15 -10 -20 -17 -20 30 14 -19 -11 -20 -11 -20 -20 -20 -20 -20 -20 -20 -20 -20 -20 -20 -20 -18 -15
7 9 30 24 -2 -16 -20 -20 -20 -20 6 -20 -20 -20 -20 -20 -20 -20 -20 -20 -20 -20 -20 -20 -20 5 24 5 -9 0 -16 -20 -18 -20 -20 -20 -14 -20 -20 -20 -20 -20 -20 -20 -20 -20 -20 -20 -20
-20 -20 -20 -20 -20 -20 -20 -20 -20 -20 -8 -19 -20 -20 -19 -20 -20 -20 -20 -20 -20 -20 -20 -20 -20 -20 -20 -20 -20 -20 -20 10 -20 -20 -20 -20 -20 -20 -20 -20 -20 -20 -20 -20 -20 -20 -20 -20 -20
-20 -20 -20 -20 -20 -20 -20 -20 -20 -20 -20 -20 -20 0 -20 -20 -20 -20 -20 -20 -20 -20 -20 -20 -20 -20 -20 -20 -20 -13 12 -20 -20 -20 -20 -20 -20 -20 -20 -20 -20 -20 -20 -20 -20 -20 -20 -20 -20
-20 -20 -20 -20 -20 -20 -20 -20 -20 -20 -20 -13 -20 -20 -20 -20 -20 -20 -20 -20 -20 -20 -20 -20 -20 -19 -20 -12 0 -6 -20 -20 -20 -20 -1 -20 -20 -20 -20 -20 -20 -20 -20 -20 -20 -20 -18 -20 -14
-20 3 -20 -20 -20 -18 -20 -20 -20 -20 -20 -20 -20 -20 -20 -20 -20 -20 -20 -20 -20 -20 -20 -20 -19 -15 -20 -20 -20 -16 -20 -20 -14 -20 -20 -20 -20 -20 -20 -20 -20 -20 -20 -20 -20 -20 -20 -20 -15
-20 -20 -20 -20 -20 -20 -20 -19 -20 -20 -20 -20 -20 -20 -20 -20 -20 -20 -20 -20 -20 -20 -20 -20 -20 -20 -8 3 -16 -20 -18 -20 -20 -20 -20 -20 -20 -20 -20 -20 -20 -20 -20 -20 -20 -20 -5 -12 -20
-20 -20 -20 -20 -20 3 -20 -20 -20 -20 -20 -20 -20 -20 -20 -20 -20 -20 -20 -20 -20 -20 -20 -20 -20 -20 -14 -14 19 21 -2 -6 -20 -20 -20 -20 -20 -20 -20 -20 -20 -20 -20 -20 -20 -20 -8 -9 -20
-20 -19 -6 -2 -7 -20 -20 -20 -20 -20 -20 -20 -20 -20 -20 -20 -20 -20 -20 -20 -20 -20 -20 -20 -20 -20 -20 -20 -20 -7 -9 9 16 26 20 4 -20 -20 -20 -20 -20 -20 -20 -20 -20 -20 -20 -20 -20

GFSSGP_prec_radar_063.txt.gz
Reflectivity
-20 -7 -20 2 -20 -20 -20 3 3 31 15 -20 -20 -8 4 -20 -20 -20 -20 -20 -20 -20 -20 -20 -14 -20 -20 -20 -20 -20 -20 -20 1 -20 -20 -20 -20 -20 -16 4 5 4 1 -11 -20 -20 -20 -20 -20
-20 -20 -20 -5 -8 -20 -14 14 11 22 -4 3 -20 -10 -18 16 -20 -20 -20 -20 -20 -20 -20 -20 -20 -20 -20 -5 -20 -20 -20 -20 3 -20 -20 -20 -20 -20 -20 14 15 9 -20 -18 -20 -20 -20 -20 -20
-20 -8 -17 -20 -17 -20 -19 18 -6 -0 27 30 -19 22 -1 -12 -20 -20 -20 -20 -20 -20 -20 -20 -20 -10 -20 -20 -20 -20 -20 -20 -2 0 -3 -20 -20 -20 -20 -20 -15 -14 -20 -18 -20 -20 -20 -20 -20
21 25 -20 -20 -20 -20 -14 20 16 5 30 20 -13 4 31 30 -20 -20 -20 -20 -20 -20 -20 15 -11 -20 -20 -20 -20 -20 -20 -20 -20 15 -8 -20 -20 -20 -20 -20 -20 -20 -20 -20 -20 -20 -20 -20 -20
27 17 12 -20 -20 -19 11 16 10 10 2 17 17 23 20 39 9 -15 -20 -20 -20 -20 -20 -20 14 -20 3 -20 -20 -20 -20 -20 -20 15 -15 -20 -20 -20 -20 -20 -20 -20 -20 -20 -20 -20 -20 -20 -20
25 24 -20 -20 -20 -16 16 8 2 -17 -8 -15 13 28 26 29 28 2 -20 -20 -20 -20 -20 -20 -20 -20 -5 -20 -20 -20 -20 -20 -20 17 9 -20 -20 -20 -20 -20 -20 -20 -20 -20 -20 -20 -20 -20 -20
-10 -16 -20 -20 -20 -17 14 -11 -18 -20 -20 -20 2 1 26 -15 7 19 6 2 -20 -20 -20 -1 -20 -20 -20 -20 -20 -20 -20 -4 -20 6 -20 -20 -20 -20 -20 -20 -20 -20 -20 -20 -20 -20 -20 -20 -20
-18 17 -20 -20 -20 0 -5 -20 -5 -20 -16 -16 -20 -19 -5 -3 37 11 -15 27 9 -19 -20 -20 -20 -20 -20 -20 -20 -20 -20 -20 -20 -2 -20 -20 -20 -20 -20 -20 -20 -20 -20 -20 -20 -20 -20 -20 -20
20 17 -20 -20 -20 -12 -12 -20 -20 -20 -20 6 2 -11 9 13 31 35 27 31 13 3 -20 -20 -20 -20 -20 -20 -20 -20 -20 -20 -20 -20 -20 -20 -20 -20 -20 -20 -20 -20 -20 -20 -20 -20 -20 -20 -20
32 26 -20 -20 -20 -20 -19 -20 -20 -20 -20 -2 15 18 11 -19 -6 36 32 -20 11 -9 15 -20 -20 -20 -20 -20 -20 -20 -20 -20 -20 -20 -20 -20 -20 -20 -20 -20 -20 -20 -20 -20 -20 -20 -20 -20 -20
-5 38 -20 1 -20 -20 -20 -20 -20 -20 -20 -20 2 9 -14 -20 -20 0 31 33 19 4 30 14 12 1 -20 -20 -20 -20 -20 -20 -20 -20 -20 -20 -20 -20 -20 -20 -20 -20 -20 -20 -20 -20 -20 -20 -20
22 0 -8 1 12 -20 -20 -20 -20 -16 -20 -20 -20 6 8 -20 -15 3 19 32 39 14 34 -4 -19 13 -20 -20 -20 -20 -20 -20 -20 -20 -20 -20 -20 -20 -20 -20 -20 -20 -20 -20 -20 -20 -20 -20 -20
13 36 5 1 18 -20 -20 -20 -20 -20 -20 -20 3 -10 8 3 -14 11 -2 9 24 5 11 -16 -20 -7 5 -20 -20 -20 -20 -20 -20 -20 -20 -20 -20 -20 -20 -20 -20 -20 -20 -20 -20 -20 -20 -20 -20
-1 20 23 24 24 21 12 -20 -20 -20 -20 -20 2 7 -15 12 -1 -18 22 6 18 35 26 1 -19 17 15 2 -18 -20 -20 -20 -20 -20 -20 -20 -20 -20 -20 -20 -20 -20 -20 -20 -20 -20 -20 -20 -20
23 28 34 38 36 29 11 -20 -20 -20 -20 -20 -17 -2 -3 -8 10 7 31 32 28 37 26 25 -6 1 11 -20 6 -12 -20 -20 -20 -20 -20 -20 -20 -20 -20 -20 -20 -20 -20 -20 -20 -20 -20 -20 -20
31 41 36 22 22 29 13 -20 -20 -20 -20 -20 -20 -20 -20 -20 -6 4 10 -12 31 -4 1 5 1 -20 -20 -19 7 3 -19 -20 -20 -20 -20 -20 -20 -20 -20 -20 -20 -20 -20 -20 -20 -20 -20 -20 -20
11 34 31 -6 29 39 -13 3 7 -17 -20 -20 -20 -20 -20 -20 -20 -9 5 6 -20 2 -3 -20 -14 26 0 -20 -20 -20 23 -19 -20 -13 -20 -20 -20 -20 -20 -20 -20 -20 -20 -20 2 0 -2 -12 -11
-18 -20 -12 -20 27 24 22 -14 8 -16 -20 -20 -20 -20 -20 -20 -20 -20 -19 -19 -13 21 -9 26 1 6 -20 -20 -20 -20 -20 -19 -20 -17 -20 -20 -20 -20 -20 -20 -20 -20 -8 2 8 10 -1 -4 -13
-20 -13 -20 1 9 31 -0 19 -20 -20 -20 -20 -20 -20 -20 -20 -20 -20 -20 -20 -20 6 -11 -10 -4 -19 -20 -20 -20 -20 -20 -20 -20 -20 -20 -5 -14 -20 -20 -20 -20 -1 7 -2 12 6 8 5 -11
-10 5 3 14 26 27 -14 -20 -20 -20 -20 -20 -20 -20 -20 -20 -20 -20 -20 -20 -20 -13 -20 -16 -7 4 2 -13 -20 -20 -20 -20 -20 -20 -20 -12 -20 6 -20 -2 3 -2 -13 2 10 6 7 5 7
-2 -20 -20 -8 7 21 2 -13 -20 -20 -20 -20 -20 -20 -20 -20 -11 -20 -20 -20 -20 -7 -20 -20 -20 -13 6 -11 -19 -20 -20 -20 -20 -20 -20 -20 -20 -20 -20 -15 -16 -20 -14 -10 -19 -10 13 -0 -16
-20 -20 -1 21 24 12 2 -20 -20 -20 -20 -20 -20 -20 -20 -20 -20 -20 -20 -20 -20 -20 -20 -20 23 -18 -18 -19 -18 -17 -14 -9 16 -15 -20 -12 -20 -20 -20 -20 -20 -20 -20 -20 -20 -20 -20 -20 -20
-20 -20 -20 4 -5 -20 -20 -20 -20 -20 -20 -20 -20 -20 -20 -20 -20 -20 -20 -20 -20 -20 -20 -20 -20 -15 -12 28 31 31 9 31 30 -9 -18 30 -20 -20 -20 -20 -20 -20 -20 -20 -20 -20 -20 -20 -20
-20 -20 19 33 20 -6 -20 -20 -20 -20 -20 -20 -20 -20 -20 -20 -20 -20 -20 -20 -20 -20 -20 -20 -20 -11 -20 -15 4 15 28 14 28 29 -3 -6 -7 -20 -20 -20 -20 -20 -20 -20 -20 -20 -20 -20 -20
-8 -20 28 23 10 -20 -20 -20 -20 -20 -20 -20 -20 -20 -20 -20 -20 -20 -20 -20 -20 -20 -20 -20 -20 -20 -20 29 0 -19 -19 -13 13 15 -20 -8 -13 -17 -20 5 -2 -20 -20 -20 -20 -20 -20 -20 -20
-20 -16 -19 -2 -20 -20 -20 -20 -20 -20 -20 -20 -20 -20 -20 -20 -20 -20 -20 -20 -20 -20 -20 -20 -20 -20 -20 -20 -20 -20 -14 -20 -20 -20 -20 -12 28 23 4 -18 -20 -20 -20 -20 -20 -20 -20 -20 -20
-20 -20 -20 -20 -20 -20 -20 -20 -20 -20 -20 -20 -20 -20 -20 -20 -20 -20 -20 -20 -20 -17 -20 -20 -20 -20 -20 -20 -9 -17 -20 -20 -16 2 -4 -20 -6 -20 -20 -20 -20 -20 -20 -20 -20 -20 -20 -20 -20
-20 -20 -20 -20 -20 -20 -20 -20 -20 -20 -20 -20 -20 -20 -20 -20 -20 -20 -20 -20 -20 -20 -20 -20 -20 -20 -20 -17 8 10 6 4 -5 4 1 -14 -20 -20 -20 -20 -20 -20 -20 -20 -20 -20 -20 -20 -20
-20 -20 -20 -20 -20 -20 -20 -20 -20 -20 -20 -20 -20 -20 -20 -20 -20 -20 -20 -20 -20 -20 -20 -20 -20 -20 -20 -20 -15 11 -13 -12 -19 -20 -20 -20 -16 7 -20 -20 -20 -20 -20 -20 -20 -20 -20 -20 -20
-20 -20 -20 -20 -20 -20 -20 -20 -20 -20 -20 -20 -20 -20 -20 -20 -20 -20 -20 -20 -20 -20 -20 -20 -20 -20 -20 -20 -20 -20 -20 -20 -20 -20 -7 -18 -19 -19 -15 4 14 11 4 -20 -20 -20 -19 -20 -20

GFSSGP_prec_radar_066.txt.gz
Reflectivity
-20 -20 -20 -20 -16 24 -20 7 10 23 23 -19 -20 -20 -13 -20 -20 -20 -20 -20 -20 -15 4 -16 3 -20 -20 -20 -20 -20 5 -20 -20 -20 -20 -20 -20 -20 -19 6 -17 -20 -20 -20 -20 -20 -20 -20 -20
-4 -17 -12 -20 -20 -20 -20 14 29 29 8 -10 -20 -20 -19 29 -20 -4 -8 -1 -20 -15 10 10 -2 -13 -20 -12 -20 -20 9 -20 -20 -20 -20 -20 -20 -19 16 17 -19 -20 -20 -20 -20 -20 -20 -20 -20
13 28 -9 -20 -20 -20 -13 3 12 22 24 17 -20 -4 -11 7 -20 -20 -20 5 -20 -17 5 -20 -20 -20 6 -20 -20 -20 3 -20 -20 -20 -20 -20 -20 -20 14 6 -20 -20 -20 -20 -20 -20 -20 -20 -20
20 17 23 -20 -20 -20 2 10 18 32 35 21 -20 -10 -17 31 -20 -20 -20 -20 -20 4 7 16 -20 -20 -20 -20 -20 -20 -20 -5 5 -20 -20 -20 -20 -20 -20 -20 -20 -20 -20 -20 -20 -20 -20 -20 -20
31 15 13 -20 -20 -19 8 20 11 26 19 32 -2 -12 31 -18 -14 -2 -18 -20 -20 -4 -16 -20 -13 -15 -20 -20 -20 -20 -20 10 5 -20 -20 -20 -20 -20 -20 -20 -20 -20 -20 -20 -20 -20 -20 -20 -20
27 28 25 -20 -20 -14 7 16 -19 7 23 22 27 -20 12 18 29 -20 1 -20 -20 -2 13 15 4 -12 -20 -20 -20 -20 -20 -6 11 -20 -20 -20 -20 -20 -20 -20 -20 -20 -20 -20 -20 -20 -20 -20 -20
31 25 24 -20 -20 -16 -1 -6 -4 3 29 28 20 -18 24 45 26 -6 1 26 -20 -20 -1 18 -6 -20 -20 -20 -20 -20 -20 -20 18 -20 -20 -20 -20 -20 -20 -20 -20 -20 -20 -20 -20 -20 -20 -20 -20
26 27 6 -20 -20 -20 -17 -5 -10 -1 14 24 18 7 21 19 29 29 -4 2 -12 -20 -20 -6 -12 -17 -20 -20 -20 -20 -20 -20 12 -20 -20 -20 -20 -20 -20 -20 -20 -20 -20 -20 -20 -20 -20 -20 -20
26 15 20 -20 -20 -20 -20 -20 -8 -13 -2 14 4 -6 10 28 35 28 33 28 4 -6 -20 -20 -4 -20 -20 -20 -20 -20 -20 -20 -20 -20 -20 -20 -20 -20 -20 -20 -20 -20 -20 -20 -20 -20 -20 -20 -20
34 4 25 -20 -20 -20 -20 -20 -20 -18 -20 6 14 -6 9 4 32 17 39 31 31 4 -14 -20 -20 -20 -20 -20 -20 -20 -20 -20 -20 -20 -20 -20 -20 -20 -20 -20 -20 -20 -20 -20 -20 -20 -20 -20 -20
40 10 30 4 -20 -20 -20 -6 6 -20 -12 -5 9 7 5 -9 4 -20 -12 23 30 34 -12 -19 -20 -20 -20 -20 -20 -20 -20 -20 -20 -20 -20 -20 -20 -20 -20 -20 -20 -20 -20 -20 -20 -20 -20 -20 -20
32 21 35 9 -20 12 -20 -20 -20 -20 -16 -11 1 9 14 17 9 -20 -13 38 34 37 31 1 -15 -20 -20 -20 -20 -20 -20 -20 -20 -20 -20 -20 -20 -20 -20 -20 -20 -20 -20 -20 -20 -20 -20 -20 -20
25 -20 15 13 -19 18 9 -20 -20 -20 -20 -20 -2 4 10 23 10 -19 -14 18 31 37 34 33 17 9 -2 -20 -20 -20 -20 -20 -20 -20 -20 -20 -20 -20 -20 -20 -20 -20 -20 -20 -20 -20 -20 -20 -20
24 -20 10 34 13 22 8 -20 -20 -20 -20 -20 -20 -20 5 9 16 3 -5 -2 14 30 29 36 22 21 0 3 -20 -20 -20 -20 -20 -20 -20 -20 -20 -20 -20 -20 -20 -20 -20 -20 -20 -20 -20 -20 -20
39 14 16 25 19 18 -20 -20 10 0 -20 -20 -20 -20 -5 5 29 9 8 4 -12 31 3 40 31 34 32 11 4 -20 -20 -20 -20 -20 -20 -20 -20 -20 -20 -20 -20 -20 -20 -20 -20 -20 -20 -20 -20
33 20 23 28 32 29 13 -16 -20 -20 -20 -20 -20 -20 -20 4 8 13 19 13 -2 13 11 24 26 33 29 31 -9 -20 -19 -20 -20 -20 -20 -20 -20 -20 -20 -20 -20 -20 -20 -20 -20 -20 -20 -20 -20
20 26 15 34 17 42 -1 11 -20 -20 -20 -20 -20 -20 -20 -20 7 5 7 4 15 8 -13 9 14 32 29 2 29 -20 0 -17 -20 -18 -20 -20 -20 -20 -20 -20 -20 -20 -20 -20 -20 -15 -10 -20 -13
-12 31 25 26 29 13 33 39 13 7 -20 -20 -20 -20 -20 -20 -20 -4 -2 2 -3 9 -6 -20 29 32 33 -17 -20 -20 6 -5 -20 9 -20 -20 -20 -20 -20 -20 -20 -20 -20 -12 1 4 8 3 9
-20 25 29 31 37 34 37 34 35 7 -20 -20 -20 -20 -20 -20 -20 -20 -20 -6 3 -6 1 -20 14 10 3 -20 -16 -20 -20 -19 9 12 11 -20 -20 -20 -20 -20 -20 -20 -20 3 -6 -14 5 -3 -20
-16 10 22 33 16 31 23 20 8 -20 -20 -20 -20 -20 -20 -20 -20 -20 -20 -6 -2 -13 2 -1 10 11 5 12 -2 -20 -20 -20 -20 -20 -20 -20 -12 -14 -8 -18 -9 -1 -9 -18 -13 0 6 7 -20
19 -2 -2 -14 -7 20 27 28 -20 -20 -20 -20 -20 -20 -20 -20 -20 -20 -20 -20 -1 -16 -20 -20 -2 3 2 2 27 -2 -20 -20 -20 -20 -20 -20 6 20 16 8 -8 -18 -17 3 -13 -5 -3 -13 -20
3 12 8 -20 -14 7 -1 -20 -20 -20 -5 -20 -20 -20 -20 -20 -20 -20 -20 -20 -20 -13 -12 -20 -13 -6 -13 -6 15 11 33 26 24 23 20 -14 12 22 -18 -20 -20 -20 -20 -20 -20 -20 -20 -20 -20
9 5 18 17 -15 7 4 -10 -20 -20 -20 -20 -20 -20 -20 -20 -20 -20 -20 -20 -20 -20 -20 -20 -20 -3 27 -8 34 -15 -2 13 27 31 13 24 28 31 30 30 24 -12 -20 -20 -19 -20 -20 -20 -20
15 -20 -20 -18 28 -4 -6 -20 -20 -20 -20 -20 -20 -20 -20 -20 -20 -20 -20 -20 -20 -20 -20 -20 -20 -15 3 20 18 6 -3 23 6 22 25 30 15 24 28 25 19 -17 -20 -20 -20 -20 -20 -20 -20
-14 -20 -1 -8 20 -18 -20 -20 -20 -20 -20 -20 -20 -20 -20 -20 -20 -20 -20 -20 -20 -20 -20 -20 -20 -20 -15 -5 11 -19 23 -17 -8 -2 28 18 8 26 18 -19 -20 -20 -20 -20 -20 -20 -20 -20 -20
-4 -20 4 -6 -17 -19 -19 -20 -20 -20 -20 -20 -20 -20 -20 -20 -20 -20 -20 -20 -20 -20 -20 -20 -20 -20 -20 21 -6 28 -13 11 -18 16 21 25 16 -11 -20 -20 -20 -20 -7 2 -15 -20 -20 -20 -20
6 -20 -15 16 -19 -18 5 -18 -20 -20 -20 -20 -20 -20 -20 -20 -20 -20 -20 -20 -20 -20 -20 -20 -20 -20 -20 -20 -20 -20 11 23 22 20 -18 -20 -20 -20 -19 -13 -3 -20 -20 -17 -20 -20 -20 -20 -20
-20 -20 -8 1 -17 -20 -20 -20 -20 -20 -20 -20 -20 -20 -20 -20 -20 -20 -20 -20 -20 -20 -20 -20 -20 -20 -20 -20 -20 -20 -20 -20 -20 -20 -20 -6 14 24 18 -9 -20 -20 -20 -20 -20 -20 -20 -20 -20
-20 -20 -20 -19 -20 -20 -20 -20 -20 -20 -20 -20 -20 -20 -20 -20 -20 -20 -20 -20 -20 -20 -20 -20 -20 -20 -20 -20 -20 -20 -20 -14 6 17 15 -5 -19 -20 -20 -20 -5 -20 -20 -20 -20 -20 -20 -19 -20
-20 -20 -20 -20 -20 -20 -20 -20 -20 -20 -20 -20 -20 -20 -20 -20 -20 -20 -20 -20 -20 -20 -20 -20 -20 -20 -20 -20 -20 -20 -20 -20 -20 -20 -20 -20 -20 -20 -20 -20 -20 -20 -20 -20 -20 -20 -20 -20 -20

GFSSGP_prec_radar_069.txt.gz
Reflectivity
-20 -18 -3 4 1 -6 5 -20 -19 27 28 14 -20 -10 -20 -20 -20 -20 -20 -20 -20 -1 -20 -20 -20 -20 -7 -13 -20 -20 -4 -20 -20 -20 -20 -20 17 13 -20 -6 -2 -20 -20 -20 -20 -20 -20 -20 -20
1 -3 1 17 -17 -18 -20 -20 8 24 22 7 -17 -7 -20 -20 -20 16 -11 -7 -20 -17 1 -20 -14 -20 -20 -20 -20 10 -20 -20 -20 -20 -20 -20 -20 6 -10 -19 -20 -20 -20 -20 -20 -20 -20 -20 -20
28 10 13 17 10 -20 -20 -14 3 14 18 19 -15 -16 13 -20 9 -18 8 13 -20 3 -20 -20 -13 -18 -11 -20 -20 -6 -20 -20 -20 -20 -20 -20 -20 0 4 -19 -20 -20 -20 -20 -20 -20 -20 -20 -20
30 -20 29 17 -8 -20 -20 -17 2 22 34 33 -3 -17 10 -18 -20 -20 -20 -20 -20 7 3 -20 -20 -20 -14 -5 -20 5 -20 -7 -20 -20 -20 -20 10 11 -20 -20 -20 -20 -20 -20 -20 -20 -20 -20 -20
-9 -8 24 27 -15 -20 -20 -20 -3 -2 21 32 14 -17 26 21 -8 -2 -11 -20 -20 12 16 -20 6 2 -20 -20 -20 15 -3 -1 -20 -20 -20 -20 -20 -5 -20 -20 -20 -20 -20 -20 -20 -20 -20 -20 -20
17 26 19 32 -19 -20 -20 -20 -20 -19 17 35 18 -4 -14 30 11 9 -9 -20 -17 -3 4 -1 -6 -12 -20 -20 -20 9 12 -20 -20 -20 -20 -20 -20 -20 -20 -20 -20 -20 -20 -20 -20 -20 -20 -20 -20
16 7 23 -10 -15 -20 -20 -20 -20 -2 12 26 26 -19 22 21 30 30 -2 -20 -20 -10 19 10 8 -6 -20 -20 -20 -20 12 -20 -20 -20 -20 -20 -20 -20 -20 -20 -20 -20 -20 -20 -20 -20 -20 -20 -20
8 4 23 -10 -20 -20 -20 -20 -20 8 8 20 26 13 -20 25 30 32 20 -3 -15 -1 -19 -20 6 -20 -20 -20 -20 -20 -20 18 -15 -20 -20 -20 -20 -20 -20 -20 -20 -20 -20 -20 -20 -20 -20 -20 -20
-4 24 22 19 -20 -20 -20 -20 -20 -3 8 16 12 4 -2 19 39 41 31 25 22 18 -16 -20 -7 -20 -20 -20 -20 -20 -20 14 -20 -20 -20 -20 -20 -20 -20 -20 -20 -20 -20 -20 -20 -20 -20 -20 -20
12 22 -8 21 -20 -20 -20 -20 -20 -12 2 8 14 26 31 -2 36 38 34 32 23 12 -9 -5 -20 -20 -20 -20 -20 -20 -20 12 -20 -20 -20 -20 -20 -20 -20 -20 -20 -20 -20 -20 -20 -20 -20 -20 -20
-15 15 -14 17 3 7 -18 5 -20 1 -2 7 14 23 25 21 21 25 43 36 33 24 25 6 -20 -20 -20 -20 -20 -20 -20 -20 -20 -20 -20 -20 -20 -20 -20 -20 -20 -20 -20 -20 -20 -20 -20 -20 -20
23 21 -18 -2 22 16 -20 7 -19 -18 -17 5 13 28 17 30 11 21 32 39 39 36 34 22 -16 -20 -20 -20 -20 -20 -20 -20 -20 -20 -20 -20 -20 -20 -20 -20 -20 -20 -20 -20 -20 -20 -20 -20 -20
9 -1 -5 18 21 23 -12 2 -20 -20 -20 1 10 25 7 24 15 4 7 18 21 31 33 34 32 6 -15 -20 -20 -20 -20 -20 -20 -20 -20 -20 -20 -20 -20 -20 -20 -20 -20 -20 -20 -20 -20 -20 -20
-20 19 14 34 18 15 -0 -8 -20 -20 -17 -8 11 11 3 12 16 10 18 23 5 3 29 26 25 32 22 -15 -20 -20 -20 -20 -20 -20 -20 -20 -20 -20 -20 -20 -20 -20 -20 -20 -20 -20 -20 -20 -20
-20 23 20 24 25 23 -1 18 15 -20 -20 -12 -0 4 2 7 -4 -1 16 16 9 -17 18 35 36 37 20 -2 32 15 -13 -20 -20 -20 -20 -20 -20 -20 -20 -20 -20 -20 -20 -20 -20 -20 -20 -20 -20
14 28 40 24 19 25 19 7 13 11 -13 -19 -5 -0 30 10 19 15 -4 -12 -15 -2 10 21 15 29 33 33 33 30 28 -17 -20 -20 -20 -20 -20 -20 -20 -20 -20 -20 -20 -20 -20 -20 -20 -20 -20
0 33 24 13 16 14 22 8 12 -20 -4 -20 -19 -8 4 9 18 13 -2 -8 17 -0 29 37 20 20 31 37 25 26 32 12 -14 -20 -20 -20 -20 -20 -20 -20 -20 -20 -20 -20 -20 -20 -20 -20 -20
7 26 29 -9 31 38 36 16 2 -20 -20 8 -5 12 -19 2 -9 -4 -9 0 22 5 5 15 24 22 0 11 31 35 34 22 -16 -20 -12 -12 -20 -20 -20 -20 -20 -20 -20 -20 -20 -20 -20 -19 -15
15 -3 25 16 23 16 31 33 -20 -20 -20 -20 -20 -20 -20 -17 -19 -15 -17 7 14 16 5 14 25 31 33 19 32 34 24 34 -20 16 -20 -20 7 -20 -20 -20 -20 -20 -20 -20 -20 -11 -8 -5 -20
11 8 33 28 34 4 32 37 18 -16 -20 -20 -20 -20 -20 -20 -20 -20 -4 -1 -1 7 6 5 11 18 -3 7 26 20 29 23 -20 3 4 1 14 13 -19 -19 -20 -20 -12 -13 -17 -19 -3 -9 -20
18 -20 20 33 33 13 34 17 7 31 28 -19 -20 -20 -20 -20 -20 -9 -13 -13 -11 -20 -17 22 7 -2 -16 6 -18 -1 25 -20 -20 -15 -7 12 5 14 9 9 13 -15 25 8 -5 2 -7 -14 -20
-19 -18 12 18 5 14 15 -14 -6 26 23 -20 -20 -20 -20 -20 -20 -20 -20 -20 -19 -20 -20 -16 10 31 34 -6 10 33 36 34 4 7 7 -17 3 14 16 10 32 30 30 -13 -17 -20 -4 -18 -20
-19 -17 1 8 13 12 5 10 -20 9 -15 -20 -20 -20 -20 -20 -20 -20 -20 -20 -20 -14 -20 -20 -20 4 19 -9 -13 15 28 35 33 -6 19 18 18 19 27 34 29 19 23 15 30 -6 -20 -20 -20
8 6 22 -1 -12 -5 4 -20 -20 -20 -20 -18 7 -20 -20 -20 -20 -20 -20 -20 -20 -20 -17 -20 -14 -20 12 9 -20 -20 -4 -5 19 -2 32 30 22 28 -3 31 25 19 21 30 7 -9 -20 -20 -20
-11 6 20 18 25 15 21 -2 -20 -20 -20 -17 -20 -20 -20 -20 -20 -20 -20 -20 -20 -20 -20 -20 -20 -20 -20 -20 -20 -12 13 -20 -13 -16 37 26 23 30 31 22 20 22 12 -17 -20 -20 -20 -20 -20
-20 -3 -20 -20 9 13 15 -20 -20 -20 -20 -20 -20 -20 -20 -20 -20 -20 -20 -20 -20 -20 -20 -20 -20 -20 -20 -20 -20 -20 16 -10 18 24 29 23 33 32 23 15 28 -13 -18 -20 -20 -20 -20 -20 -20
-20 -20 -20 -20 -20 7 -20 -20 -20 -20 -20 -20 -20 -20 -20 -20 -20 -20 -20 -20 -20 -20 -20 -20 -20 -20 -20 -20 -20 -20 -20 -20 -20 25 21 22 30 28 20 -13 -11 -11 -20 -20 -20 -20 -20 -20 -20
-14 -20 -20 -20 -20 -20 -15 -20 -20 -20 -20 -20 -20 -20 -20 -20 -20 -20 -20 -20 -20 -20 -20 -20 -20 -20 -20 -20 -20 -20 -20 -20 -20 -20 4 4 -10 -20 -20 -19 -12 -20 -16 -20 -20 -20 -20 -20 -20
-20 -20 -20 -20 -20 -20 -20 -20 -20 -20 -20 -20 -20 -20 -20 -20 -20 -20 -20 -20 -20 -20 -20 -20 -20 -20 -20 -20 -20 -20 -20 -20 -20 -20 -20 -20 3 9 0 -1 -20 -20 -20 -20 -20 -20 -20 -20 -20
-20 -20 -20 -20 -20 -20 -20 -20 -20 -20 -20 -20 -20 -20 -20 -20 -20 -20 -20 -20 -20 -20 -20 -20 -20 -20 -20 -20 -20 -20 -20 -20 -20 -20 -20 -20 -20 -20 -16 -20 -20 -20 -20 -20 -20 -20 -20 -20 -20

GFSSGP_prec_radar_072.txt.gz
Reflectivity
-20 -20 -20 -17 15 -3 -16 -20 -20 4 14 26 -20 -20 -19 -16 -20 -20 -17 -20 -20 -19 -20 6 -20 -20 -12 -20 -20 -2 -17 -20 -20 -20 -12 -1 15 -7 5 13 -20 -20 -20 -20 -19 -20 -20 -20 -20
-20 2 -20 -10 2 17 -20 -20 -20 2 -5 18 -9 11 9 -20 -20 4 15 -0 -20 -20 -20 10 -12 -20 -5 -20 -20 8 -20 -20 -20 -20 6 6 4 -10 10 1 -20 -20 -20 -20 -20 -20 -20 -20 -20
-20 27 -4 5 10 -7 -20 -20 -20 -10 19 28 2 -8 6 -2 9 13 9 -4 -5 -12 -17 -20 21 -20 -17 -20 6 -12 -20 -20 -20 -20 -20 10 11 -3 1 -20 -20 -20 -20 -20 -20 -20 -20 -20 -20
-20 -20 29 22 13 -6 -20 -20 -20 -19 3 33 31 2 -19 26 20 -2 14 -7 -19 -10 9 -20 -19 -20 -20 -4 -1 -20 -20 -20 -20 -20 -20 -20 5 11 -10 -20 -20 -20 -20 -20 -20 -20 -20 -20 -20
-20 18 8 21 10 -20 -20 -20 -10 -20 2 -7 34 10 7 9 26 -6 -4 -0 -20 -16 8 -20 -0 -14 -20 -18 -20 -4 -14 -20 -20 -20 -15 -20 -20 -8 1 -20 -20 -20 -20 -20 -20 -20 -20 -20 -20
2 18 5 31 1 -20 -20 -20 -20 -20 -20 -6 34 29 -15 32 32 29 -3 -5 13 6 -5 -20 2 -20 -20 -20 3 -15 -1 -20 -20 -20 0 11 2 -20 3 -20 -20 -20 -20 -20 -20 -20 -20 -20 -20
7 -1 -4 24 3 -3 -20 -20 -20 -20 -16 -0 20 32 26 14 27 29 29 18 -20 16 -20 -20 -13 -20 -20 -20 19 -6 -19 -20 -20 -20 -20 -20 -7 -20 -20 -20 -20 -20 -20 -20 -20 -20 -20 -20 -20
11 18 20 14 3 -12 -20 9 -20 -20 -17 -11 22 32 31 29 36 31 28 28 -18 4 -18 -18 -11 -6 -20 -20 -20 17 7 -20 -20 -20 -20 -20 -20 -20 -20 -20 -20 -20 -20 -20 -20 -20 -20 -20 -20
14 18 14 -14 -6 -15 -11 8 -20 -20 -20 -20 13 19 14 21 12 43 32 14 12 20 24 22 -17 -20 -20 -20 -20 -20 17 -9 -20 -20 -20 -20 -20 -20 -20 -20 -20 -20 -20 -20 -20 -20 -20 -20 -20
18 10 -18 -20 -20 -20 -20 8 -15 5 -20 -20 18 21 22 38 -10 38 31 24 2 20 14 -2 -4 -20 -20 -20 -20 -20 -20 -1 -20 -20 -20 -20 -20 -20 -20 -20 -20 -20 -20 -20 -20 -20 -20 -20 -20
-1 -19 -20 -20 -20 -15 -4 30 13 24 -20 -20 13 12 1 24 29 36 27 32 27 24 21 28 -19 -20 -20 -20 -20 -20 -20 9 -20 -20 -20 -20 -20 -20 -20 -20 -20 -20 -20 -20 -20 -20 -20 -20 -20
21 -20 -9 -19 -16 13 -20 6 -3 -15 -19 -8 11 9 9 20 3 30 39 39 30 28 21 6 19 -20 -20 -20 -20 -20 -20 -20 -20 -20 -20 -20 -20 -20 -20 -20 -20 -20 -20 -20 -20 -20 -20 -20 -20
21 -2 -13 9 -20 5 16 10 9 -20 -14 -13 9 -5 -14 16 10 32 34 39 48 36 28 31 25 16 -17 -20 -20 -20 -20 -20 -20 -20 -20 -20 -20 -20 -20 -20 -20 -20 -20 -20 -20 -20 -20 -20 -20
28 5 12 12 20 10 22 7 20 29 -20 -16 36 8 1 14 13 17 23 33 33 34 30 34 23 8 7 7 5 -18 -20 -20 -20 -20 -20 -20 -20 -20 -20 -20 -20 -20 -20 -20 -20 -20 -20 -20 -20
16 20 24 -1 15 23 33 19 20 20 6 21 -18 14 5 2 -1 -12 23 35 26 36 34 31 30 18 23 7 8 -15 -13 -20 -20 -20 -20 -20 -20 -20 -20 -20 -20 -20 -20 -20 -20 -20 -20 -20 -20
31 18 14 -15 27 24 17 12 17 19 26 -10 33 26 30 9 24 33 34 17 35 21 29 18 24 21 27 24 26 16 23 -18 12 -8 -20 -20 -20 -20 -20 -20 -20 -20 -20 -20 -20 -20 -20 -20 -20
23 -18 17 -9 25 31 17 34 19 20 22 25 25 26 26 15 20 22 19 16 14 18 23 28 28 24 26 30 28 33 -4 25 14 25 32 -20 -20 -20 -20 -20 -20 -20 -20 -20 -20 -20 -20 -20 -20
-4 -20 11 23 21 40 22 20 -10 17 20 14 13 10 19 22 12 12 9 6 2 12 16 12 13 30 22 31 24 36 27 31 35 35 23 -20 -20 -20 -20 -20 -20 -20 -20 -20 -20 -20 -20 0 -7
-20 -20 13 30 26 28 39 5 -20 -20 18 13 4 4 15 25 27 14 33 4 24 16 13 9 13 19 14 18 26 -16 6 34 31 14 12 -20 -5 9 18 -11 -20 -20 -20 -20 -20 -5 7 6 6
-19 4 31 18 33 36 11 -19 10 -6 9 16 18 10 2 15 21 20 23 26 28 9 7 25 37 28 6 16 11 4 31 19 27 -10 -20 -8 10 3 16 12 -14 -20 -20 -13 1 -8 -20 -16 2
5 -9 5 38 34 25 17 -1 36 29 16 10 12 -10 -6 -7 -13 -1 -4 1 -5 1 11 19 20 30 36 32 27 27 15 14 25 19 26 20 -20 -20 -19 -20 -20 -14 6 -11 -20 -16 -2 10 -20
-17 -19 -8 26 26 18 9 17 36 33 14 15 11 18 -20 -20 -16 -16 -20 -20 -17 -20 -18 -19 -14 16 28 32 37 43 39 37 39 40 39 35 31 -1 -20 17 8 29 30 31 28 25 2 -19 -11
-2 -20 -19 6 16 11 14 20 16 14 13 -20 -20 9 -20 -20 -14 -20 -20 -20 -20 -20 -20 -20 -20 -3 11 -1 13 23 34 32 30 32 30 35 34 31 27 29 29 24 32 22 20 28 18 -9 12
-17 -18 -7 -6 14 -0 11 18 -8 4 -20 9 30 14 -13 -15 -20 -20 -20 -20 -20 -20 -20 -20 -20 -20 -20 15 6 9 -10 24 30 22 -18 11 31 30 28 32 28 23 21 20 27 15 21 27 -16
3 -13 11 13 -1 4 -17 -2 -20 -20 -20 -15 11 -2 -19 -20 -20 -20 -20 -20 -20 -20 -20 -20 -20 -20 -20 -20 -20 -12 15 -1 -2 6 28 27 29 23 25 29 22 25 24 29 20 18 23 11 -19
21 15 7 -17 -19 4 -8 -20 -20 -20 -20 -20 -20 -13 -20 -20 -20 -20 -20 -20 -20 -20 -20 -20 -20 -20 -20 -20 -20 -20 -19 -15 -10 -19 18 23 19 26 29 28 41 29 27 17 -18 -17 -20 -20 -20
-13 -2 -20 -20 -19 -18 1 -18 -20 -20 -20 -20 -20 -12 -20 -20 -20 -20 -20 -20 -20 -20 -20 -20 -20 -20 -20 -20 -20 -20 -20 -20 -2 -8 -13 -20 17 27 21 31 27 26 24 7 -20 -20 -19 -20 -20
-20 -10 -20 -20 -20 -16 -20 -4 -20 -20 -20 -20 -20 -20 -20 -20 -20 -20 -20 -20 -20 -20 -20 -20 -20 -20 -18 -20 -20 -11 -16 -20 -20 -20 -20 -20 -7 17 19 6 -16 -17 -20 -20 -20 -20 -20 -20 -20
-20 -20 -20 -20 -18 -20 -20 -20 -20 -20 -20 -20 -20 -20 -20 -20 -20 -20 -20 -20 -20 -20 -20 -20 -20 -20 -20 -20 -20 -20 -18 -2 -20 -20 -20 -15 -20 -20 -20 -20 -20 -20 -20 -20 -20 -20 -20 -20 -20
-20 -20 -20 -20 -20 -20 -20 -20 -20 -20 -20 -20 -20 -20 -20 -20 -20 -20 -20 -20 -20 -20 -20 -20 -20 -20 -20 -20 -20 -20 -20 -20 -20 -20 -20 -20 -13 -20 -20 -20 -20 -20 -20 -20 -20 -20 -20 -20 -20

GFSSGP_prec_radar_075.txt.gz
Reflectivity
-20 -20 -17 -14 -20 -20 -20 -20 -20 -20 -20 1 10 -20 -20 -20 -20 -20 -20 5 -20 -20 -20 -20 -20 -0 -18 -20 -20 -17 -20 -20 -6 27 17 4 9 7 -18 -20 -20 -20 -20 -20 1 4 -20 -20 -20
-20 -20 -1 -5 -20 -20 -20 -20 -20 -20 -20 10 3 -20 -20 -20 -20 -9 10 13 -20 -20 -20 -6 -20 -12 -19 -20 5 -20 -20 -20 -16 -7 -18 21 -7 2 9 -20 -20 -20 -20 -6 -12 -20 -20 -20 -20
-20 -20 -8 12 -20 -20 -20 -20 -20 -20 -20 -20 22 0 -20 -5 -19 -20 12 -10 17 1 -20 -20 -20 -20 -19 -20 3 -20 -20 -20 -20 19 -6 24 -2 10 5 -20 -20 -20 -20 -19 -20 -20 -20 -20 1
-20 31 22 13 5 -20 -20 -20 -20 -20 -20 -20 8 31 11 7 11 11 13 2 4 2 -20 -20 -20 -20 -20 -18 -4 -20 -20 -20 -20 10 -19 -13 -10 -6 4 -5 -20 -20 -20 -20 -20 -20 -20 -20 -3
10 -6 9 -12 -12 -20 -20 -20 -20 -20 -20 -20 -3 32 16 12 -19 14 15 15 -4 -3 -15 -20 -17 -20 -20 12 -17 -20 -20 -20 -20 -20 -20 4 9 12 -20 -13 -20 -20 -20 -20 -20 -20 -20 -20 -20
14 15 4 -4 7 -20 -20 -20 -20 -20 -20 -20 -20 12 34 -12 23 15 27 -17 -20 -20 -20 -6 -20 -20 -20 -20 10 -20 -20 -20 -20 -20 -20 8 4 -20 -20 -20 -20 -20 -20 -20 -20 -20 -20 -20 -20
4 12 1 -20 6 1 -20 -20 -20 -20 -20 -20 -20 -20 32 23 19 26 33 31 18 -20 -20 -20 -18 -19 -20 -18 -20 -20 -20 -20 -15 5 -4 -15 14 15 -8 -3 -20 -20 -20 -20 -20 -20 -20 -20 -20
17 13 -2 -8 12 -20 -20 -20 -20 -20 -20 -20 -20 -20 21 35 15 10 34 31 29 1 -6 -20 -20 -20 -20 -20 -19 9 -20 -20 -20 -6 -1 13 12 1 -0 0 -3 -20 -20 -20 -20 -20 -20 -20 -20
-5 17 -8 -20 1 -20 -20 -10 -20 -20 -20 -20 -20 -20 13 22 28 38 43 34 21 -4 -4 -20 -10 -20 -20 -20 14 18 -20 -20 -20 -20 -20 -20 -20 -17 -20 -20 -20 -20 -20 -20 -20 -20 -20 -20 -20
-4 -12 -20 -20 -20 -20 -20 -20 7 -7 -20 -20 -20 -20 13 -1 23 28 42 44 30 24 1 15 -20 -20 -20 -20 -20 -20 11 -5 -20 -20 -20 -20 -20 -20 -20 -20 -20 -20 -20 -20 -20 -20 -20 -20 -20
-20 -20 -20 -20 -20 -20 -20 8 15 23 19 -20 -20 -20 6 16 14 18 35 45 35 30 13 5 -17 -20 -20 -20 -20 -20 13 -20 -20 -20 -20 -20 -20 -20 -20 -20 -20 -20 -20 -20 -20 -20 -20 -20 -20
-10 -20 -20 -20 -20 6 -20 -9 11 2 -20 -20 -20 -16 10 16 11 27 32 29 38 31 31 29 -3 -20 -20 -20 -20 -20 -20 -12 -18 -20 -20 -20 -20 -20 -20 -20 -20 -20 -20 -20 -20 -20 -20 -20 -20
-1 -20 -13 -20 -19 6 5 -8 -20 -4 -19 4 -19 -20 3 -8 11 31 32 40 40 31 32 29 -2 -18 -20 -20 -20 -20 -20 -20 -13 -20 -20 -20 -20 -20 -20 -20 -20 -20 -20 -20 -20 -20 -20 -20 -20
-20 -18 -11 -17 -20 2 -10 9 -20 -20 6 12 15 -13 4 -5 3 18 23 34 35 30 25 33 31 18 -4 -19 -20 -20 -20 -20 -20 -20 -20 -20 -20 -20 -20 -20 -20 -20 -20 -20 -20 -20 -20 -20 -20
8 4 -20 -20 -20 -14 4 19 -18 -13 12 -12 31 -10 12 6 -20 -0 18 12 30 29 37 29 23 30 38 -2 -12 -20 -3 -20 -20 -20 -20 -20 -20 -20 -20 -20 -20 -20 -20 -20 -20 -20 -20 -20 -20
12 21 -4 -20 -7 -18 25 -14 -19 14 -8 -20 18 11 31 -9 -15 1 -0 5 24 28 34 32 22 23 16 -15 -3 5 10 -20 -18 -20 -20 -20 -20 -20 -20 -20 -20 -20 -20 -20 -20 -20 -20 -20 -20
8 4 13 25 -20 16 9 -5 -20 20 4 18 18 3 14 31 24 11 13 12 30 31 31 31 21 25 16 -9 -18 17 -12 -20 -20 -20 -20 -20 -20 -20 -20 -20 -20 -20 -20 -20 -20 -20 -20 -20 -20
17 5 25 -7 11 -10 30 -9 -20 5 18 18 -1 21 33 36 34 21 24 38 20 21 22 25 29 26 27 9 8 35 8 -8 -19 -20 -20 -16 -14 16 -20 -20 -20 -20 -20 -20 -20 -20 -20 -20 -20
36 18 -4 -4 -20 -0 40 11 -13 -20 10 11 20 20 26 28 36 33 19 13 26 29 27 14 17 18 12 12 24 31 35 19 1 -20 4 11 13 30 -20 -10 -5 -20 -20 -20 -20 -20 -20 -20 2
28 -19 -3 8 23 11 1 36 19 2 27 12 -18 4 19 14 30 30 31 25 19 39 29 18 22 32 33 27 23 20 12 28 7 12 20 26 29 35 33 -7 9 -18 -20 -20 -20 4 11 15 -12
24 -2 14 35 28 8 32 32 40 0 11 16 -3 24 22 17 14 11 19 25 22 20 31 36 18 21 22 27 33 27 29 23 29 28 27 34 26 33 36 32 29 28 -18 -14 14 27 20 21 -20
14 -20 6 5 20 18 27 25 26 17 13 18 18 5 26 22 4 8 14 16 17 22 -3 18 32 17 20 25 28 35 35 38 35 34 35 26 36 33 28 29 32 32 26 28 18 24 -5 24 17
27 17 14 11 -15 15 33 31 11 -20 -20 5 8 25 28 17 18 23 26 18 -7 -16 -12 -20 -0 6 13 24 28 33 38 37 40 36 33 37 34 35 31 34 36 32 30 28 28 26 15 26 26
10 9 -1 -20 -15 10 26 -3 -20 -20 -4 4 33 11 21 23 19 10 -3 -20 -7 -20 -20 -20 -17 -11 1 -2 4 11 31 32 32 32 28 31 29 28 17 32 35 35 34 35 31 22 15 20 26
-5 -20 -20 -20 -20 15 24 -20 7 -20 -20 18 22 32 14 -16 -13 -20 -20 -20 -20 -20 -20 -20 -20 -6 -4 5 -1 -1 -3 20 19 22 11 21 30 27 8 24 24 29 28 33 32 20 18 25 25
-10 -4 -20 -20 -20 16 25 -20 12 7 -2 16 26 -16 -10 -20 1 -14 -20 -20 -20 -20 -20 -20 -20 -20 -20 -8 -8 -3 -14 -19 -15 -14 -5 4 9 12 19 21 27 32 26 36 37 27 25 14 11
-19 -20 -20 -19 -2 2 -20 -7 -20 -20 -20 -20 -18 -9 19 16 7 2 -20 -20 -20 -20 -20 -20 -20 -20 -20 -20 -20 -20 -20 -17 -20 -20 -20 -19 -13 -20 -20 6 18 3 10 31 33 31 19 9 -15
-20 -20 13 -11 -6 6 6 -20 -20 -20 -20 -20 -20 -17 -12 -20 -20 -20 -20 -20 -20 -20 -20 -20 -20 -20 -20 -20 -20 -20 -20 -20 -18 -20 -20 -20 -20 -20 -3 0 5 11 -20 -18 2 -12 -11 -12 -8
-20 -20 -20 -20 -16 -20 -20 -20 -20 -20 -20 -20 -20 -20 -20 -20 -20 -20 -20 -20 -20 -20 -20 -20 -20 -20 -20 -20 -20 -20 -20 -20 -20 -20 -20 -20 -20 -20 -20 -20 -17 -19 -2 -8 -5 -5 -5 -13 -18
-20 -20 -20 -20 -20 -20 -20 -20 -20 -20 -20 -20 -20 -20 -20 -20 -20 -20 -20 -20 -20 -20 -20 -20 -20 -20 -20 -20 -20 -20 -20 -20 -20 -20 -20 -20 -20 -20 -20 -20 -20 -20 -20 -20 -18 -10 -16 -20 -20

GFSSGP_prec_radar_078.txt.gz
Reflectivity
1 -20 -20 -20 -20 -20 -20 -20 -20 -20 -20 -20 -20 -20 -20 -20 -20 -20 -15 -20 -20 -20 -20 -3 12 -20 -20 -20 -19 -20 -20 7 -10 -2 12 -14 3 0 -20 -20 -20 -20 -20 2 15 5 -20 -20 -20
-10 -20 -20 7 -18 -20 -20 -20 -20 -20 -20 -20 -20 -20 -20 -2 -20 -11 -17 7 -10 -20 -13 6 -13 -15 -20 -20 -13 -20 -20 -1 -20 -20 -1 -20 12 -20 -20 -20 -20 -20 1 11 -18 -20 -20 -20 -20
-20 -20 -7 -6 -3 -20 -20 -20 -20 -20 -20 -20 -20 -20 -20 8 8 9 10 -20 4 -14 -20 -15 -20 -9 -20 -19 -9 -20 -20 18 6 28 4 18 20 -0 -20 -20 -11 11 14 -18 -20 -20 -0 -20 -20
-7 -20 -9 6 -20 -20 -20 -20 -20 -20 -20 -20 -20 -8 -20 -2 19 6 14 11 14 -20 10 13 -20 -20 -20 8 -20 -20 -20 -20 9 28 27 26 6 9 -20 -20 2 4 -1 -20 -20 -20 -19 1 -5
3 -17 -4 -5 -20 -20 -20 -20 -20 -20 -20 -20 -20 -20 -20 4 21 1 18 13 16 -3 -11 1 -11 -20 -20 1 -20 -20 -20 -20 -16 20 26 -1 -3 12 -20 -12 -20 -20 -20 -20 -20 -20 -20 -20 -20
1 -18 -15 -13 -20 -20 -20 -20 -20 -20 -20 -20 -20 -20 -20 -14 28 -6 20 25 -1 6 11 8 -14 -20 -15 -1 -20 -20 -20 -20 -20 25 31 5 2 9 7 -3 -16 -20 -20 -20 -20 -20 -20 -20 -20
-1 -20 -20 -20 -20 -20 -20 -20 -20 -20 -20 -20 -20 -20 -20 -18 29 22 -12 16 23 15 21 4 7 -20 -20 -20 -20 -20 -20 -20 -20 13 10 11 11 12 6 10 -20 -20 -20 -20 -20 -20 -20 -20 -20
8 4 -2 -20 -20 -20 -20 -20 -20 -20 -20 -20 -20 -20 -20 -20 10 36 21 23 31 27 25 21 14 -12 11 -8 -20 -20 -20 -20 -20 -20 4 8 13 15 14 13 -16 -20 -20 -20 -20 -20 -20 -20 -20
-9 13 2 -20 -20 -20 -20 -20 -20 -20 -20 -20 -20 -20 -20 -20 5 23 27 25 30 29 29 24 -9 22 -20 21 3 -19 -20 -20 -20 -11 10 5 -20 -20 -20 -20 -14 -18 -20 -20 -20 -20 -20 -20 -20
-10 -2 -20 -20 -20 -20 -20 -20 -20 -20 -20 -20 -20 -20 -20 -20 -5 15 26 38 43 31 26 26 24 15 -20 15 8 11 -10 -20 -20 -20 -20 -20 -20 -20 -20 -20 -20 -20 -20 -20 -20 -20 -20 -20 -20
-20 -20 -20 -20 -20 -20 -20 -20 -20 -20 -20 -20 -20 -20 -20 -13 -20 11 22 39 39 37 40 13 25 -8 -20 -20 3 16 6 -3 -17 -20 -20 -20 -20 -20 -20 -20 -20 -20 -20 -20 -20 -20 -20 -20 -20
10 -20 -20 -20 -20 -20 -20 -20 -20 -20 -20 -20 -20 -6 37 -5 13 19 19 33 40 42 35 33 6 -9 -20 -20 -7 18 17 11 5 -20 -20 -20 -20 -20 -20 -20 -20 -20 -20 -20 -20 -20 -20 -20 -20
2 -20 -20 -20 -20 -20 -20 -20 -20 -20 -20 -7 12 -20 -20 2 10 -4 -6 6 25 35 36 37 24 -11 -20 -20 -20 -20 12 -5 7 -20 -20 -20 -20 -20 -20 -20 -20 -20 -20 -20 -20 -20 -20 -20 -20
-20 -20 -20 -20 -1 -7 -20 -20 6 -20 -20 16 10 -20 -20 -8 -20 -20 -20 23 30 37 31 41 40 -3 -18 -20 -20 -20 -20 22 3 -0 -20 -20 -20 -20 -20 -17 -20 -20 -20 -20 -20 -20 -20 -20 -20
8 7 4 -19 -6 4 -20 11 -17 -20 -20 4 17 -20 -20 -16 -20 -20 8 15 27 29 38 41 31 30 33 3 -20 -20 -20 -20 11 5 9 -20 -20 -20 2 -16 -20 -20 -20 -20 -20 -20 -20 -20 -20
12 8 15 -20 -20 -20 14 -19 -20 -20 -20 -20 -20 -15 -20 27 -2 -2 -13 9 14 15 27 35 35 32 16 33 5 -20 -20 -20 -9 -6 4 2 1 -20 -12 -20 -20 -20 -20 -20 -20 -20 -20 -20 -20
4 12 10 2 -20 -15 12 -2 -20 -20 -20 -20 -20 -20 -20 37 20 -1 -8 9 10 22 24 23 37 31 21 16 -20 -20 -20 -20 -20 -0 -2 -8 2 10 -20 -20 -20 -20 -20 -20 -20 -20 -20 -20 -20
33 9 -13 -10 -20 -20 13 2 -4 -20 -20 -20 -20 -20 4 36 34 -3 -8 4 25 17 18 11 33 22 14 -17 32 -20 -17 -18 7 -15 14 -18 -20 -20 -20 -20 -20 -20 -20 -20 -20 -20 -20 -20 -20
29 35 6 -15 -16 -14 -1 3 -8 -2 -20 -20 -20 -6 27 27 34 30 22 18 29 26 -0 2 18 25 25 19 23 14 6 14 -8 9 -8 -20 -20 -20 -20 -6 9 -15 -20 -20 -20 -20 -20 -20 -20
25 22 26 20 22 23 -0 9 -14 20 -11 -20 -20 -7 13 32 33 19 35 25 16 30 18 15 27 34 31 21 23 28 32 24 4 -2 8 -16 -20 -20 -20 -20 20 -13 25 -20 -20 -20 -5 -20 -20
-5 16 24 16 4 -10 -1 25 18 10 1 -15 -8 11 24 32 28 34 46 40 36 40 42 34 38 37 27 32 25 13 17 13 17 8 4 10 -12 -20 12 1 13 27 24 23 -2 3 26 23 10
15 4 5 30 32 22 5 5 23 30 17 22 37 -19 21 33 30 32 29 29 28 27 35 34 29 30 23 27 33 29 31 28 26 28 27 31 13 -20 -0 16 25 42 37 30 29 27 24 26 23
19 30 30 23 9 12 -1 27 29 33 20 35 5 1 23 19 27 17 8 17 20 22 14 22 27 9 19 28 33 26 35 32 34 34 34 33 36 29 23 29 38 35 39 32 32 35 24 16 4
4 14 12 8 -2 12 30 19 5 35 22 34 7 -12 5 13 18 22 26 19 21 18 9 8 -1 -13 0 13 20 29 29 34 27 34 31 33 35 35 37 38 36 37 38 28 28 33 37 26 20
-15 11 12 17 14 15 29 11 15 20 -18 -20 -20 -12 12 36 25 28 22 19 4 -2 11 4 2 -17 -15 5 4 24 10 12 13 10 6 12 28 24 26 25 33 32 28 28 21 31 19 36 28
-7 -20 -8 6 18 14 3 6 -14 -20 -20 -20 -15 4 3 29 14 34 10 15 -19 -16 -0 -20 -20 -20 -11 -20 -5 -16 -0 26 -12 -2 -9 0 26 22 10 9 10 22 17 24 19 36 21 11 33
-14 -20 -20 -20 -20 -14 -3 -20 -20 -20 -14 24 10 20 24 26 -6 -17 -16 -19 -20 -20 -20 -20 -20 -20 -19 -3 -7 1 1 -19 -17 -20 -16 -5 -6 -14 20 23 18 -20 1 9 17 11 -19 10 15
-20 -20 -16 -20 -20 -9 -12 -20 -20 -20 -20 -5 -1 17 34 32 1 -9 -20 -10 -20 -20 -20 -20 -20 -20 -20 -20 -18 -15 -5 -18 -7 -6 -17 -20 -19 -20 -20 -7 -12 -20 -20 -20 -16 4 -9 -16 3
-20 -20 -20 -19 -20 -20 -20 -20 -20 -20 -20 -20 -20 -18 9 13 4 20 4 -20 -20 -20 -20 -20 -20 -20 -20 -20 -20 -20 -19 -20 -19 -8 -14 -11 -20 -20 -19 -14 -5 -20 -20 -20 -20 -12 7 4 -2
-20 -20 -20 -20 -20 -20 -20 -20 -20 -20 -20 -20 -20 -20 -20 -19 4 -10 -20 -20 -20 -20 -20 -20 -20 -20 -20 -20 -20 -20 -20 -20 -20 -20 -14 -20 -20 -20 -20 -12 20 -20 -20 -20 -20 -20 -20 -20 -20

GFSSGP_prec_radar_081.txt.gz
Reflectivity
-20 -20 -20 -18 -20 -20 -20 -20 -20 -20 -20 -20 -20 -20 0 -20 -10 -16 -20 -20 -20 -20 -20 0 -20 -20 -20 -20 -10 -20 -20 -20 -20 -20 -20 5 6 6 -20 -20 -20 -20 4 16 -15 1 13 0 -4
-20 -20 -16 -11 -18 -20 -20 -20 -20 -20 -20 -20 -20 -20 -10 -20 -19 -20 -10 -20 -20 -20 -20 5 12 -9 -20 -2 -20 -20 -20 -2 -20 -13 -20 -17 3 -7 -20 -20 -20 -6 15 9 -12 11 -2 7 -10
-20 -20 5 -16 2 -20 -20 -20 -20 -20 -20 -20 -1 -16 24 -20 -20 -9 -6 -20 -20 16 -20 3 -20 7 -20 -5 -20 -20 -20 -20 -20 -20 -20 -20 -9 -20 -20 -20 -20 14 10 8 5 -3 -16 -14 -6
-20 -18 -7 -14 -20 -20 -20 -20 -20 -20 -20 -20 -20 25 2 -20 -20 -20 9 -20 -20 16 0 10 3 -20 -20 -1 -20 -20 -20 -20 -20 -20 -20 31 14 -2 3 -2 2 9 9 2 7 12 -20 -20 -15
-20 -20 -20 -20 -20 -20 -20 -20 -20 -20 -20 -20 -20 26 10 -20 -20 -20 -15 5 -19 19 4 -9 17 -5 -18 -13 -20 -20 -20 21 22 -8 -6 30 5 12 -9 2 8 3 3 -20 -20 -5 10 3 -16
-3 -20 -20 -20 -20 -20 -20 -20 -20 -20 -20 -20 13 -19 -19 -20 -20 -20 -1 26 8 24 7 28 -20 8 -16 3 -20 -20 -20 2 17 24 27 24 1 14 -5 -0 3 2 -20 -20 -20 -20 -20 -20 -20
-20 -20 -20 -20 -20 -20 -20 -20 -20 -20 -20 -20 -7 13 -20 7 -20 -20 -13 38 32 26 25 24 13 20 15 -20 -20 -20 -20 -20 27 23 28 -13 -4 14 -1 11 11 12 -20 -20 -20 -20 -20 -20 -20
-20 -20 -20 -20 -20 -20 -20 -20 -20 -20 -20 -20 -20 -20 9 20 -20 -20 -19 37 29 29 23 28 12 17 -1 26 -20 -20 -20 -20 -6 11 -17 10 9 11 11 -12 14 -3 -20 -20 -20 -20 -20 -20 -20
-20 10 -7 -20 -20 -20 -20 -20 -20 -20 -20 -20 -20 -4 1 6 18 -17 -20 32 37 16 21 28 28 22 -20 12 -20 -20 -20 -20 -10 8 12 -3 -20 -15 -2 -20 -18 -1 -20 -20 -20 -20 -20 -20 -20
-20 -20 -20 -20 -20 -20 -20 -20 -20 -20 -20 -20 -20 5 -18 -17 16 -20 -20 27 37 34 -2 27 31 26 6 -5 -9 -20 -20 -20 -20 -14 -17 -20 -20 -20 -20 -20 -11 -16 -20 -20 -20 -20 -20 -20 -20
-20 -20 -20 -20 -20 -20 -20 -20 -20 -20 -20 -20 -20 -12 3 -20 -20 -6 -12 18 34 41 30 39 18 26 1 -20 -2 -9 -20 -20 -20 -20 -20 -20 -20 -20 -20 -20 -20 -20 -20 -20 -20 -20 -20 -20 -20
-7 -20 -20 -20 -20 -20 -20 -20 -20 -20 -20 -20 -20 -19 17 -10 -14 -2 2 6 21 29 38 24 29 41 23 -18 20 18 -20 -20 -20 -20 -20 -20 -20 -20 -20 -20 -20 -20 -20 -20 -20 -20 -20 -20 -20
-20 -20 -20 -20 -20 -20 -20 -20 -20 -20 -20 -20 -20 24 17 -17 32 -4 -20 -2 26 30 30 32 23 40 37 -20 25 18 10 -20 -20 -20 -20 -20 -20 -20 -20 -20 -20 -20 -20 -20 -20 -20 -20 -20 -20
-20 -20 -20 -20 -20 -20 -20 -20 -20 -20 -20 -20 -20 -20 27 -20 17 28 -20 1 11 21 30 34 17 33 42 9 -3 3 -16 9 -12 -20 -20 -20 -20 -20 -20 -20 -20 -20 -20 -20 -20 -20 -20 -20 -20
-20 0 -20 -20 -20 -20 -20 1 -20 -20 -20 -20 -20 -20 -20 -20 -6 21 -20 -10 12 7 24 29 30 40 46 26 -1 8 -20 -17 -0 1 -20 -20 -20 -20 -20 -20 -20 -20 -20 3 -5 -20 -20 -20 -20
9 16 12 -20 -14 -20 -14 -12 -20 -20 -20 -19 -20 -20 -20 3 -19 19 -20 -4 -20 12 18 12 28 37 44 26 0 -20 -20 28 2 -3 -4 -19 -20 -20 -20 -20 -20 -20 3 -4 -20 -20 -20 -20 -20
7 -1 -0 -16 -20 1 -3 -20 -20 -20 -20 -20 -20 -20 -20 -0 -20 26 -7 -20 -20 14 14 27 21 32 39 26 -2 -19 -20 -20 -20 -11 5 -9 -20 -12 -20 -20 -10 -20 -7 -20 -20 -20 -20 -20 -20
8 24 9 -0 -19 -13 0 -15 -20 -20 -20 -20 -20 -20 23 -6 -20 21 28 5 -20 -1 18 18 30 26 34 21 19 15 -2 -5 2 9 -11 -10 -10 -11 -20 -13 -9 6 11 -20 -20 -20 -20 -20 -20
3 10 10 15 20 1 -20 5 -20 -20 5 -4 -20 1 8 -20 -7 15 37 26 -14 11 11 23 25 21 21 23 21 13 11 12 33 -3 -12 -20 -20 -20 9 8 3 -14 10 -20 -20 -20 -20 -20 -20
-4 16 9 -1 13 -7 -20 4 -15 -20 -20 -20 -19 -16 -20 -16 8 33 37 35 27 25 22 23 26 23 29 32 32 16 27 30 31 26 -6 -16 -5 27 9 12 6 8 -20 -20 3 -20 -20 -20 -8
2 4 18 37 12 16 15 16 -10 -20 -7 -4 -19 -20 -20 14 17 43 37 36 37 31 20 31 31 32 31 35 28 25 30 33 32 21 9 4 14 4 2 12 1 -15 -20 5 9 26 19 4 2
-9 -6 31 12 20 23 11 17 -7 -20 -18 -20 -1 -20 -18 23 27 30 32 37 39 31 28 37 39 38 36 30 28 31 31 30 30 29 11 15 -7 5 19 22 18 -20 -3 -9 9 40 38 29 27
30 -1 14 31 11 5 -7 12 -6 -8 1 22 24 -2 27 19 20 16 34 38 39 31 31 33 35 34 31 33 27 29 30 32 31 24 26 17 7 23 24 16 -13 11 8 11 13 24 35 44 39
10 18 7 32 24 17 11 -9 8 28 27 12 12 -1 31 5 10 32 32 30 26 19 15 25 22 30 34 25 32 27 32 38 31 36 36 37 31 33 26 28 31 26 -7 16 26 29 34 35 43
14 5 12 23 26 15 15 -20 17 19 -3 3 22 39 33 6 5 23 36 12 12 8 11 7 15 5 10 3 20 19 14 26 29 23 18 12 7 8 17 14 11 22 23 27 32 25 25 33 33
31 5 13 20 22 11 15 11 17 28 21 34 35 16 5 -3 4 18 29 29 4 -7 -14 -4 3 -2 1 -6 8 11 27 31 11 11 12 3 -7 -6 6 3 -5 9 13 18 27 26 26 30 26
1 -2 -15 -8 -20 -19 5 16 27 26 30 28 17 0 16 23 30 28 16 5 0 -12 -20 -20 -7 -16 -7 -20 -4 5 -4 -15 -16 -5 6 -7 6 -6 7 19 21 18 25 4 -17 -16 4 5 11
-20 1 -1 -9 15 1 -1 -12 -6 17 22 20 17 11 2 19 21 32 5 18 -19 -20 -20 -20 -20 -17 -20 -20 -20 3 1 -6 -6 -4 3 0 -16 -18 7 1 -7 -12 -7 -9 4 20 1 -4 -3
-20 -20 -20 -20 -15 0 -10 -11 -20 -20 -20 -13 20 32 16 16 25 6 -3 -20 -20 -20 -20 -20 -20 -20 -20 -20 -20 -20 -13 -5 -7 -9 -10 3 -10 -20 -19 -15 -19 -14 -20 7 16 13 -16 -20 -20
-20 -20 -17 -20 -20 -20 -20 -20 -20 -20 -20 -20 -20 -20 -20 -7 -1 -13 -7 8 8 -8 -20 -20 -20 -20 -20 -20 -20 -20 -20 -20 -19 -13 -10 -20 -18 -20 -20 -20 -17 -5 23 11 -16 -2 -20 -20 -20

GFSSGP_prec_radar_084.txt.gz
Reflectivity
-20 -20 -20 -20 10 -20 -20 -20 -20 -20 -20 -20 -20 -20 -20 -20 -20 -20 -20 -20 -20 -20 -20 -20 -12 -20 -20 -20 -20 -20 -20 -20 -11 -20 -8 -19 4 -1 -19 -20 -20 -17 -20 3 12 7 11 -16 -20
-20 -20 -20 8 -19 -20 -20 -20 -20 -20 -20 -20 -20 -20 -20 -20 -20 -20 -20 -20 -20 -16 -20 -20 -19 -20 -13 -13 -20 -20 -20 -20 -16 -20 -20 -20 3 -7 -4 -20 -20 11 9 -20 9 18 11 -20 -20
-20 -20 -2 -7 -20 -20 -20 -20 -20 -20 -20 -20 -20 -20 -20 -20 -20 -20 -11 -20 -17 -6 -20 -20 -20 10 -19 23 -20 -20 -20 -20 -20 -20 -20 -20 -3 -1 10 -20 -4 9 1 2 5 3 11 -18 -20
-20 -20 -20 1 -20 -20 -20 -20 -20 -20 -20 -20 -20 -20 -20 -20 -20 -20 4 -20 9 7 -20 -20 -16 3 -20 9 -20 -20 -20 -20 -20 10 -20 -20 -8 6 6 -20 -12 8 -16 7 -12 -20 -16 -8 -20
-20 -20 -20 -20 -20 -20 -20 -20 -20 -20 -20 -20 -20 -20 -20 -20 -20 -3 15 -20 -6 -1 -20 -20 14 6 -20 8 -10 -20 -20 -20 -20 -2 13 -20 1 11 -0 -19 9 2 14 7 12 -20 -20 -8 -20
-9 -20 -20 -20 -20 -20 -20 -20 -20 -20 -20 -20 -20 -20 -20 -20 -20 -20 28 -20 -20 -20 -20 -20 9 27 -20 -6 -20 -20 -20 -20 -20 -20 -20 29 13 13 5 7 14 16 -9 -20 -13 6 10 -10 -20
-15 -20 -20 -20 -20 -20 -20 -20 -20 -20 -20 -20 -20 -20 -20 -20 -20 -20 15 -20 -20 20 -9 31 32 7 -4 16 -20 -20 -20 -12 14 -20 14 22 2 12 9 17 17 18 -20 -20 -20 -20 -20 -20 -20
-20 -20 -20 -20 -20 -20 -20 -20 -20 -20 -20 -20 -20 -18 3 -20 -20 -20 -18 -20 -18 1 22 3 34 5 24 -20 -20 -20 -20 -20 17 22 17 11 -9 11 18 15 16 4 -20 -20 -20 -20 -20 -20 -20
-20 -4 -13 -20 -20 -20 -20 -20 -20 -20 -20 -20 -20 -20 -20 -20 -20 -20 -20 -20 -20 -7 28 45 37 27 33 27 -20 -20 -20 -20 7 6 11 -8 -20 -19 -3 16 16 3 -20 -20 -20 -20 -20 -20 -20
-20 -20 -20 -20 -20 -20 -20 -20 -20 -20 -20 -20 -20 -20 -20 -20 -20 -20 -20 -20 -20 -20 13 46 36 18 28 29 29 -20 -20 -20 -20 9 15 -20 -20 -18 -20 -20 5 -1 -20 -20 -20 -20 -20 -20 -20
-20 -20 -20 -20 -20 -20 -20 -20 -20 -20 -20 -20 -10 -20 -20 -20 -20 -20 -20 -20 -20 -20 22 40 32 33 29 31 36 -4 -20 -20 -20 -14 19 -6 -20 -20 -20 -20 -20 -20 -20 -20 -20 -20 -20 -20 -20
-20 -20 -20 -20 -20 -20 -20 -20 -20 -20 -20 -20 -19 -20 -13 -20 -18 17 27 -20 -20 -20 -1 29 31 34 38 28 21 29 -20 -20 -20 -20 -20 -7 -20 -20 -20 -20 -20 -20 -20 -20 -20 -20 -20 -20 -20
-20 -20 -20 -20 -20 -20 -20 -20 -20 -20 -20 -20 -7 -20 -17 3 -20 -20 31 -20 -20 -19 15 28 23 27 35 24 14 33 -18 -20 -20 -20 -20 -20 -20 -20 -20 -20 -20 -20 -20 -20 -20 -20 -20 -20 -20
-20 -20 -20 -20 -20 -20 -20 -20 -20 -20 -20 -20 -20 -20 -20 -20 -20 -0 6 9 -20 -20 16 26 26 24 35 27 38 40 26 -20 -20 -20 -20 -20 -20 -20 -20 -20 -20 -20 -20 -20 -20 -20 -20 -20 -20
-20 -20 -20 -20 -20 -20 -20 -20 -20 -20 -20 -20 -20 -20 -20 -20 -20 23 21 -11 -20 -20 -5 16 28 10 29 23 42 40 30 -20 -20 -20 -20 -20 -20 -20 -20 -20 -20 -20 -20 -20 -20 -20 -20 -18 -14
-17 -19 -20 -20 -20 -20 -6 -16 -20 -20 -20 -20 -20 -20 -20 -20 -20 -20 -20 -20 -11 -20 12 13 23 23 30 24 26 34 22 32 9 -20 -20 -20 -20 -20 -20 -20 -20 -20 -20 -20 -15 -20 -20 10 -20
-9 -12 -20 -20 -5 -8 -13 -20 -20 -20 -20 -20 -20 -20 -20 -20 -20 -20 -20 -20 -20 24 7 10 13 15 31 28 17 35 29 30 16 10 -19 -20 -20 -20 -20 -20 -20 -20 -20 -20 -19 -20 -12 0 -19
-20 1 -6 23 -5 21 -1 -20 -20 -20 -14 -20 -20 -20 -18 -20 -20 -5 -6 -20 7 27 -13 2 17 -5 19 28 30 20 35 30 32 19 -0 -13 -11 -20 -20 -20 -20 -20 -20 -20 -20 -20 3 7 -20
-20 -20 -7 -20 -20 24 12 -20 -20 29 7 23 -20 -20 -20 19 -20 -20 -20 -20 18 35 8 4 20 4 16 28 28 34 23 14 16 9 18 7 2 25 6 -7 -19 -20 -20 -10 -18 -12 -8 6 -20
10 -8 -8 -10 -20 15 29 -20 -20 -20 28 -20 -20 -20 -7 29 -16 -17 -1 -8 12 33 15 23 19 13 21 36 30 13 23 27 30 29 -5 2 10 -12 12 9 -18 -20 -8 -4 1 7 -3 1 -10
-19 3 6 14 21 7 23 5 -13 9 -18 -20 -20 -20 4 30 -5 -20 -11 20 29 40 28 30 30 20 22 30 24 27 -19 15 15 12 21 34 31 4 10 -15 -20 -7 8 23 16 5 -11 -8 -19
5 -7 24 15 6 -11 -17 -8 0 -14 -20 -20 -20 -20 -19 12 24 14 -15 24 43 34 24 34 38 37 23 29 34 35 8 -1 16 25 22 30 26 22 23 21 17 16 17 16 15 7 21 15 30
25 -5 19 16 19 21 3 24 -3 -20 -20 -20 14 -19 -18 -8 -16 5 17 29 33 31 32 32 38 38 26 29 31 29 27 31 34 21 32 26 34 34 23 11 8 13 21 25 22 5 8 9 11
7 17 25 24 -8 -11 3 -0 -3 -10 -10 -20 17 -10 5 27 5 22 12 25 37 34 33 33 36 25 26 33 37 32 33 31 29 25 32 32 31 18 13 8 -6 3 3 8 -7 6 -11 14 18
17 31 20 26 28 5 -12 -13 -16 6 12 9 27 12 31 30 22 10 28 28 25 26 20 28 31 22 29 30 28 35 24 33 26 31 24 23 -3 11 16 19 21 17 1 1 -16 -5 3 21 18
23 22 21 26 15 -1 14 -4 11 21 29 14 -20 17 12 38 25 20 22 29 19 15 19 17 19 19 11 7 25 19 32 28 31 22 31 9 -6 -20 -9 -6 -11 16 -20 -20 16 22 35 32 31
-19 32 24 29 21 -0 21 30 36 31 27 27 13 34 31 31 20 21 21 31 27 7 5 14 15 5 5 5 -2 -8 7 5 7 28 10 -3 5 4 -10 33 -9 2 2 5 -20 1 22 26 -2
-12 -7 2 13 13 5 16 -11 30 31 34 34 26 29 27 20 38 25 28 13 18 17 13 -0 4 3 -3 -3 -9 1 2 -11 -14 -4 -3 -6 -7 -2 -2 3 8 10 -18 -2 -9 -18 -3 20 14
-19 -15 -16 -20 -20 -15 -20 4 18 23 28 18 18 15 15 25 30 20 18 18 6 -7 -18 -20 -7 -6 -16 -20 -16 -20 -8 -5 -12 -17 -19 -20 -20 -20 -20 -20 -16 -8 -10 -2 4 -5 -12 -3 20
-20 -20 -20 -20 -20 -20 -20 -20 -20 -20 -9 -2 22 19 20 3 16 11 -1 4 2 -20 -20 -20 -20 -20 -20 -20 -20 -20 -20 -16 -1 -7 -18 -11 -20 -20 -20 -19 -16 -20 -16 -3 8 4 15 18 12

GFSSGP_prec_radar_087.txt.gz
Reflectivity
-20 -20 -20 -20 -20 -20 -20 -20 -20 -20 -20 -20 -20 -20 -20 -20 -20 -20 -20 -20 -20 -20 -20 -20 -20 -20 -20 -20 -20 -20 -20 3 -5 -9 -20 -6 8 7 -1 -20 -20 -20 -20 6 10 -11 -20 -20 -20
-20 -20 -20 -20 -20 -20 -20 -20 -20 -20 -20 -20 -20 -20 -20 -20 -20 -20 -20 -20 -20 -20 -20 -20 -20 -20 -20 -20 -20 -20 -20 -20 -5 -20 -0 -12 3 1 10 -20 -20 -14 6 15 3 -19 -20 -20 -20
-20 -20 -20 -20 -20 -20 -20 -20 -20 -20 -20 -20 -20 -20 -20 -19 -20 -20 -20 -20 -20 -20 -20 -20 -20 -20 -20 -20 -20 -20 -20 -20 -20 -4 13 -20 14 14 13 -20 6 -17 -14 15 2 10 -20 -20 -20
-20 -20 -20 -0 -20 -20 -20 -20 -20 -20 -20 -20 -20 -20 -20 -20 -20 -20 -20 -20 -20 -20 -20 10 1 -20 -20 -20 -20 -20 3 -20 -20 -20 -20 -20 -20 12 3 -20 7 -20 -16 -20 -1 10 -20 -20 -20
-20 -20 -20 -20 -20 -20 -20 -20 -20 -20 -20 -20 -20 -20 -20 -20 -20 -20 -20 -20 -20 -20 -20 35 -20 -20 -20 -19 -7 -10 -20 14 -20 -13 -18 -18 -20 5 7 -20 -9 -2 13 3 -20 3 -10 -20 -20
-20 -20 -20 -20 -20 -20 -20 -20 -20 -20 -20 -20 -20 -20 -20 -20 -20 -20 -20 -20 -20 -20 -20 28 10 -13 -20 -20 -4 -20 -20 23 -20 -20 1 -20 5 15 -3 -20 16 5 15 13 -17 -20 -9 -20 -20
-20 -20 -20 -20 -20 -20 -20 -20 -20 -20 -20 -20 -20 -20 -20 -20 -20 -20 -20 -20 31 -9 23 20 -18 -15 27 24 1 -20 -20 -20 -20 -13 -17 -20 2 11 4 8 16 15 8 1 7 1 7 -20 -20
-20 -20 -20 -20 -20 -20 -20 -20 -20 -20 -20 -20 -20 -20 -20 -20 -20 -20 -20 -20 -20 1 30 -17 -20 -19 -20 -20 7 -1 -20 -20 -2 -20 -14 -13 19 8 3 4 18 16 6 -20 -20 -20 -20 -20 -20
-20 -20 -20 -20 -20 -20 -20 -20 -20 -20 -20 -20 -20 -20 -20 -7 -20 -20 -20 -20 -20 -6 5 29 32 11 -20 -15 -15 -20 -2 -20 -4 3 -8 19 -15 -16 3 -7 15 16 -7 -20 -20 -20 -20 -20 -20
-20 -20 -20 -20 -20 -20 -20 -20 -20 -20 -20 -20 -20 -20 -20 -20 -20 -20 -20 -20 -20 -20 -20 -1 11 28 24 12 6 -19 -12 11 -7 20 21 20 -6 -20 -6 10 14 8 -20 -20 -20 -20 -20 -20 -20
-20 -20 -20 -20 -20 -20 -20 -20 -20 -20 -20 -20 -20 -20 -20 -20 -20 -20 -20 -20 -20 -20 -20 -20 -20 -18 32 35 29 21 12 26 7 22 22 25 -11 -6 -18 -20 -14 -4 -20 -20 -20 -20 -20 -20 -20
-20 -20 -20 -20 -20 -20 -20 -20 -20 -20 -20 -20 -20 -20 -20 -14 19 -1 -20 -20 -20 -20 -20 -20 -20 -20 21 38 32 26 25 -6 22 11 33 18 -20 -20 -20 -20 -20 -20 -20 -20 -20 -20 -20 -20 -20
-20 -20 -20 -20 -20 -20 -20 -20 -20 -20 -20 -20 -20 -20 -20 -20 -20 -20 -20 -20 -20 -20 -20 -20 -20 -20 26 37 33 26 27 12 15 -3 -10 28 2 -20 -20 -20 -20 -20 -20 -20 -20 -20 -20 -20 -20
-20 -20 -20 -20 -20 -20 -20 -20 -20 -20 -20 -20 -20 -20 -20 -20 -20 -20 -20 -20 -20 -18 -20 -20 -20 -20 8 28 19 30 14 10 -0 -13 -20 -14 7 -20 -20 -20 -20 -20 -20 -20 -20 -20 -20 -20 -20
-20 -20 -20 -20 -20 -20 -20 -20 -20 -20 -20 -20 -20 -20 -20 -20 -20 -20 -20 -20 -20 -20 -20 -20 -20 8 22 26 24 35 29 16 -20 -20 -20 -20 -18 -20 -20 -20 -20 -20 -20 -20 -20 -20 -20 -20 -20
-20 -20 -20 -20 -20 -20 -20 -20 -20 -20 -20 -20 -20 -20 -20 -20 -20 -20 -20 -20 -17 28 -10 -20 -20 -8 17 31 27 25 36 33 -8 -8 -19 -20 -20 -20 -20 -20 -20 -20 -20 -20 -20 -20 -20 -20 -20
-20 -20 -20 -20 -20 -20 -14 -19 -20 -20 -20 -20 -20 -20 -20 -20 -20 -20 -20 -20 -20 -20 4 7 -19 -19 -1 14 16 31 39 38 37 13 10 -2 4 -20 -20 -20 -20 -20 -20 -20 -20 -20 -20 -20 -20
-20 -20 -20 -20 -20 -20 -17 -14 -20 -20 -20 -20 -20 -20 -20 -20 -20 -20 -20 -20 -20 -20 -8 10 8 1 15 22 10 29 30 31 32 24 -7 -12 -17 -20 -20 -20 -20 -20 -20 -20 -20 -20 -20 -20 -20
-20 -20 -20 -20 -20 -2 -14 -17 -20 -20 -20 -20 -20 -20 -20 -20 -20 -20 18 -20 -20 -20 -20 6 17 11 17 23 12 23 24 29 35 38 20 -12 -5 -20 -20 -20 -20 -20 -20 -16 -19 -20 -20 -20 -20
-4 -8 -20 -20 -20 17 4 -18 -20 -20 11 -20 -20 -11 -20 -8 -20 -20 -20 -7 -20 -20 -13 26 26 15 23 5 24 -2 28 36 41 37 37 37 26 3 -20 -19 -18 -20 -17 -20 -20 -7 4 -12 -12
-14 4 -20 -20 6 0 -12 -12 -20 -20 -13 -20 12 8 -20 -20 -20 -2 28 -20 -20 -20 11 12 5 25 17 20 16 20 15 27 35 26 34 37 39 27 27 28 7 -20 10 -5 9 14 7 -2 3
9 3 8 8 22 -16 -20 -20 -20 -20 -20 4 14 -10 18 -20 6 34 30 23 -20 -7 15 7 35 39 24 20 24 28 25 31 7 23 31 31 35 34 28 34 20 10 -0 -0 14 19 21 22 22
15 17 -3 -18 5 16 -15 24 -20 -20 -20 -20 -20 -20 -20 23 1 17 13 -10 -20 1 15 25 25 40 34 36 38 37 26 23 13 21 18 33 25 25 22 29 29 29 31 30 20 -1 7 16 23
6 12 26 13 21 9 -20 12 -16 -20 -20 -20 -20 -19 4 0 -3 14 12 -14 1 4 19 33 34 34 30 36 40 36 34 16 9 25 29 29 24 29 29 25 18 24 5 -5 22 10 -14 -20 -20
25 33 23 20 -1 16 -20 -20 -20 -10 -16 -7 -0 -3 -3 6 32 15 4 26 35 36 37 33 36 30 29 33 35 28 25 23 8 23 15 24 33 23 3 25 21 12 19 6 4 3 5 -19 -20
26 31 25 18 14 -15 -20 -20 4 8 -2 3 32 29 38 41 33 22 27 23 37 34 30 24 25 26 25 27 32 33 34 35 31 26 22 21 19 -9 -20 -14 -3 -18 -14 -0 11 12 8 -20 23
20 25 25 17 -20 -13 6 15 24 24 21 7 5 24 30 35 36 34 31 33 31 26 19 11 13 15 21 14 16 7 12 24 22 25 31 30 34 23 -16 -7 28 30 12 9 -0 13 21 -18 4
1 9 -11 22 8 17 13 8 21 32 33 33 33 34 19 27 27 34 29 28 31 9 13 3 -7 2 11 12 12 11 6 5 13 20 18 9 24 13 25 28 30 29 27 17 21 -20 14 6 -7
-19 -10 6 -20 -20 -19 -13 2 30 31 28 31 20 22 22 30 35 29 29 27 22 -8 -20 -20 -17 -11 -9 -5 -2 4 4 3 1 0 8 0 -1 -8 -17 -20 -20 -19 -20 -20 -16 5 1 -8 4
-20 -20 -20 -20 -20 -20 -20 -20 18 22 22 25 16 12 8 20 17 12 4 7 -12 -20 -20 -20 -18 -20 -20 -19 -8 -13 -4 5 6 -7 -20 -20 -20 -20 -20 -20 -20 -20 -20 -20 -20 -19 5 8 19

GFSSGP_prec_radar_090.txt.gz
Reflectivity
-20 -20 -20 -20 -20 -20 -20 -20 -20 -20 -20 -20 -20 -20 -20 -20 -20 -20 -20 -20 -20 -20 -20 -20 -20 -20 -20 -20 -20 -20 -20 -12 -16 -4 -16 3 1 -12 -20 -20 -20 -20 14 16 8 -20 -20 -20 -20
-20 -20 -20 -20 -20 -20 -20 -20 -20 -20 -20 -20 -20 -20 -20 -20 -20 -20 -20 -20 -20 -20 -20 -20 -20 -6 -20 -20 -20 -20 -20 -20 3 9 -4 3 -0 4 -1 -20 -20 -20 12 14 -8 -20 -20 -20 -20
-20 -20 -20 -20 -20 -20 -20 -20 -20 -20 -20 -20 -20 -20 -20 -20 -20 -20 -20 -20 -20 -20 -20 -20 -20 -20 -20 -20 -20 -20 -20 -20 -20 -20 -20 -14 -5 7 10 -20 -20 -15 9 13 -20 -20 -20 -20 -20
-20 -20 -20 -20 -20 -20 -20 -20 -20 -20 -20 -20 -20 -20 -20 -20 -20 -20 -20 -20 -20 -20 -20 -20 -6 -20 20 -20 -20 -20 -20 -20 -20 9 -20 -20 2 11 4 -20 -20 2 8 17 3 -20 -20 -20 -20
-20 -20 -20 -20 -20 -20 -20 -20 -20 -20 -20 -20 -20 -20 -20 -20 -20 -20 -20 -20 -20 -20 -20 -7 29 14 -20 16 -8 -20 -20 -20 -20 -20 -19 19 -20 13 -2 12 -10 -20 5 9 14 -20 -20 -20 -20
-20 -20 -20 -20 -20 -20 -20 -20 -20 -20 -20 -20 -20 -20 -20 -20 -20 -20 -10 -20 -20 -20 -20 -20 6 26 -10 -20 12 -1 -20 -20 -20 -20 -20 -20 -20 -2 -20 -20 -5 -20 1 7 11 -16 -20 -20 -20
-20 -20 -20 -20 -20 -20 -20 -20 -20 -20 -20 -20 -20 -20 -20 -20 -20 -20 3 12 -20 -20 -20 -20 -20 -20 -12 -20 -20 -13 12 -20 -16 -20 -20 -10 -20 -6 -1 -20 14 14 -7 -4 -15 -19 -20 -20 -20
-20 -20 -20 -20 -20 -20 -20 -20 -20 -20 -20 -20 -20 -20 -20 -20 -20 -20 -20 -20 -20 10 35 33 -20 -20 -11 -20 9 4 -20 -20 6 -20 -20 -9 -20 12 5 -12 9 12 14 2 -20 -3 -5 -20 -20
-20 -20 -20 -20 -20 -20 -20 -20 -20 -20 -20 -20 -20 -20 -20 -20 -20 -20 -20 -20 -20 -20 22 -20 1 27 -20 7 -20 -20 -15 -20 -20 -5 -20 -13 -7 -20 -7 -14 14 9 10 2 -20 -20 -20 -20 -20
-20 -20 -20 -20 -20 -20 -20 -20 -20 -20 -20 -20 -20 -20 -20 -20 -17 -20 -20 -20 -20 -20 -20 -20 26 14 23 24 -4 -20 -20 -20 -20 9 9 -17 8 -20 -5 8 8 15 -20 -20 -20 -20 -20 -20 -20
-20 -20 -20 -20 -20 -20 -20 -20 -20 -20 -20 -20 -20 -20 -20 -20 -20 -20 -20 -20 -20 -20 -20 -20 -18 15 13 24 18 17 11 -20 -20 -20 27 17 -17 -18 10 3 1 -16 -19 -20 -20 -20 -20 -20 -20
-20 -20 -20 -20 -20 -20 -20 -20 -20 -20 -20 -20 -20 -20 -20 -20 -20 -20 -20 -20 -20 -20 -20 -20 -20 -20 -20 -20 -20 18 16 -18 -2 -20 16 19 8 -13 35 -9 -1 -19 -18 -20 -20 -20 -20 -20 -20
-20 -20 -20 -20 -20 -20 -20 -20 -20 -20 -20 -20 -20 -20 -20 -20 -20 -20 -20 -20 -20 -20 -20 -20 -20 -20 -20 -20 -20 -10 4 29 -10 -20 -20 22 14 3 16 -3 12 3 3 -20 -20 -20 -20 -20 -20
-20 -20 -20 -20 -20 -20 -20 -20 -20 -20 -20 -20 -20 -20 -20 -20 -20 -20 -20 -20 -20 -20 -20 -20 -20 -20 -20 -20 -18 -20 27 24 20 12 -20 -4 25 31 37 33 -11 12 4 -15 -20 -20 -20 -20 -20
-20 -20 -20 -20 -20 -20 -20 -20 -20 -20 -20 -20 -20 -20 -20 -20 -20 -20 -20 -20 -20 -20 -20 -20 -20 -20 -20 -20 -20 -20 0 25 31 -16 -20 -20 24 35 -16 5 -20 -8 -4 -4 -20 -20 -20 -20 -20
-20 -20 -20 -20 -20 -20 -20 -20 -20 -20 -20 -20 -20 -20 -20 -20 -20 -20 -20 -20 -20 -20 -20 -20 -20 -20 -20 -20 -20 -20 -19 32 31 9 -16 -20 -3 16 25 20 0 4 -19 -20 -20 -20 -20 -20 -20
-20 -20 -20 -20 -20 -20 -20 -20 -20 -20 -20 -20 -20 -20 -20 -20 -20 -20 -20 -20 -20 -20 -20 -20 -20 -11 -20 -20 -20 -20 -20 31 28 6 9 -20 -20 -5 13 30 -1 4 -20 -20 -20 -20 -20 -20 -20
-20 -20 -20 -20 -20 -20 -20 -20 -20 -20 -20 -20 -20 -20 -20 -20 -20 -20 -20 -20 -20 -20 -20 -20 -20 -20 -20 -20 -17 22 -16 14 14 28 21 -2 -20 -5 6 15 15 -10 -20 -20 -20 -20 -20 -20 -20
-20 -20 -20 -20 -20 -20 -20 -20 -20 -20 -20 -20 -20 -20 -20 -20 -20 -20 -20 36 -20 -20 -20 -20 -20 -20 -20 -20 -20 1 28 11 20 24 34 27 12 -5 -5 -20 -20 -20 -7 7 -7 -20 -20 -20 -20
-20 -16 -20 -20 -20 3 -17 -17 -20 -20 -20 -20 -20 -20 -20 -20 -20 -20 -20 -20 -20 -20 -20 12 -20 -20 -20 5 10 -1 23 15 23 24 31 30 29 22 13 -6 7 8 10 -12 -19 -14 -11 -20 -20
-20 -4 -20 7 3 -17 -19 -17 -20 -20 -20 -20 -20 -20 -20 -17 -20 -20 -20 -20 -19 -10 -11 3 -4 8 -20 -20 -17 6 14 26 32 29 29 26 25 20 27 19 16 1 -17 -20 -1 -20 -7 9 2
-1 -20 1 32 12 -18 -13 -20 -20 -20 -20 -20 -20 -20 -20 -11 -20 -20 -20 -20 -0 -3 4 -19 -20 25 -20 -6 8 24 20 24 23 34 37 30 31 24 23 33 19 -7 -13 13 -4 -2 29 22 27
-17 -5 8 6 -3 -15 -13 7 -20 -20 -20 -20 -20 -15 -19 -20 -20 -20 -10 16 -9 27 -20 5 13 2 18 34 33 41 32 23 22 30 34 38 36 33 33 32 30 27 24 26 24 28 26 24 6
-20 -5 15 31 15 -3 -20 -16 -20 -16 -20 -20 -17 -18 8 -4 3 18 -8 12 10 12 21 6 13 5 28 38 36 37 34 32 36 35 34 37 34 33 34 35 34 32 31 32 28 32 30 24 25
-17 20 17 15 -14 -3 -3 -20 -20 -11 -20 -10 3 1 2 -0 8 17 24 33 29 25 9 23 6 2 35 38 34 29 26 36 36 37 35 33 35 34 31 33 31 27 30 32 31 32 27 32 34
20 28 17 15 -16 -16 -14 -12 -17 10 16 -2 12 20 15 21 15 22 38 34 35 26 28 16 23 35 34 32 31 35 31 33 35 36 35 31 31 31 33 30 29 29 30 30 29 20 18 22 1
28 27 21 20 -20 -20 -5 11 22 14 10 8 15 34 38 36 37 35 27 30 34 33 30 30 31 33 30 30 33 26 16 17 20 27 24 24 29 29 31 25 27 24 -5 4 23 8 -15 22 22
-17 15 20 12 -3 4 10 0 16 24 21 19 18 31 31 34 36 36 33 33 31 24 22 5 11 19 19 19 23 17 15 -3 -6 14 26 24 28 29 31 31 21 9 30 34 24 21 21 17 9
3 24 -6 -4 -8 9 -20 -12 26 31 29 32 30 34 37 34 31 31 28 29 24 -10 -18 -19 -18 -9 2 -4 7 13 5 -8 -4 12 11 16 19 14 6 -11 -10 -3 -7 -2 8 11 14 16 5
-20 -20 -20 -20 -20 -20 -20 -19 -7 21 23 27 32 35 24 29 26 27 17 11 -4 -20 -20 -20 -20 -20 -20 -20 -19 -3 -3 4 7 3 -19 4 4 5 7 9 4 -11 8 -20 -12 4 -7 7 16

GFSSGP_prec_radar_093.txt.gz
Reflectivity
-20 -20 -20 -20 -20 -20 -20 -20 -20 -20 -20 -20 -20 -20 -20 -20 -20 -20 -20 -20 -20 -20 -20 -20 -3 -20 -19 -20 -20 -20 -20 -20 -13 -14 14 13 15 -8 -20 -20 -20 6 10 16 -12 -20 -20 -20 -20
-20 -20 -20 -20 -20 -20 -20 -20 -20 -20 -20 -20 -20 -20 -20 -20 -20 -20 -20 -20 -20 -20 -20 -20 -20 -12 -20 -20 -10 -11 -20 -20 -4 -5 -10 9 -13 -6 -20 -20 -20 9 -20 5 -20 -20 -20 -20 -20
-20 -20 -20 -20 -20 -20 -20 -20 -20 -20 -20 -20 -20 -20 -20 -20 -20 -20 -20 -20 -20 -20 -20 -20 -16 -18 -20 -20 -20 -20 -20 -20 -20 -16 -19 -0 2 -5 7 -20 -20 15 10 -20 -20 -20 -20 -20 -20
-20 -20 -20 -20 -20 -20 -20 -20 -20 -20 -20 -20 -20 -20 -20 -20 -20 -20 -20 -20 -20 -20 -20 -20 5 -20 -20 -20 -20 -20 -20 -11 -20 -20 -20 -20 -19 11 14 -20 -20 -19 10 -20 -20 -20 -20 -20 -20
-20 -20 -20 -20 -20 -20 -20 -20 -20 -20 -20 -20 -20 -20 -20 -20 -20 -20 -20 -20 -20 -20 -20 -7 -20 -20 -20 -20 -20 -20 -20 -20 2 -20 -20 -20 -1 6 8 -8 -20 -20 11 4 -20 -20 -20 -20 -20
-20 -20 -20 -20 -20 -20 -20 -20 -20 -20 -20 -20 -20 -20 -20 -20 -20 -20 -20 -20 -20 6 -20 -20 -20 -20 0 -20 -20 -20 -4 9 -20 -14 -16 -20 -9 -20 -8 7 -20 -6 8 12 -20 -20 -20 -20 -20
-20 -20 -20 -20 -20 -20 -20 -20 -20 -20 -20 -20 -20 -20 -20 -20 -20 -20 -8 -16 -20 27 30 -20 -20 -20 -20 -20 -20 -20 -20 -13 -14 -20 -20 -20 -15 -20 -20 -15 -20 -3 -8 11 8 -20 -20 -20 -20
-20 -20 -20 -20 -20 -20 -20 -20 -20 -20 -20 -20 -20 -20 -20 -20 -20 -8 -20 -20 -20 25 21 24 27 -17 -20 -20 -20 -20 -20 -20 -20 -4 -20 -19 -18 -20 -20 -20 -20 11 5 11 13 -20 -20 -20 -20
-20 -20 -20 -20 -20 -20 -20 -20 -20 -20 -20 -20 -20 -20 -20 -20 -13 6 6 7 14 -20 2 -6 -20 -3 28 21 -12 -20 -20 -20 -20 -20 -20 -8 9 -0 -20 -20 -20 -20 -2 -20 4 -4 -20 -20 -20
-20 -20 -20 -20 -20 -20 -20 -20 -20 -20 -20 -20 -20 -20 -20 -20 -20 -20 4 -6 11 2 -20 -20 -6 -6 -20 1 23 4 -20 -20 -20 -20 -20 -20 -13 -11 -20 -20 -20 -19 10 13 -20 -1 -20 -20 -20
-20 -20 -20 -20 -20 -20 -20 -20 -20 -20 -20 -20 -20 -20 -20 -20 -20 -20 -20 -20 -14 -3 -17 -20 -20 -20 -20 -20 -20 -15 7 -20 -20 -20 -20 -20 0 11 -20 -20 -20 -6 -1 8 -10 -20 -20 -20 -20
-20 -20 -20 -20 -20 -20 -20 -20 -20 -20 -20 -20 -20 -20 -20 -20 -20 -20 -20 -20 -20 -20 -20 -20 -20 -20 -20 -20 -20 -6 -9 24 1 -5 -16 -20 4 26 -17 -20 -20 -5 -5 4 -4 -9 -20 -20 -20
-20 -20 -20 -20 -20 -20 -20 -20 -20 -20 -20 -20 -20 -20 -20 -20 -20 -20 -20 -20 -20 -20 -20 -20 -20 -20 -20 -20 -20 -20 -20 -18 18 13 17 -20 11 19 23 3 -20 19 12 10 7 -1 -18 -20 -20
-20 -20 -20 -20 -20 -20 -20 -20 -20 -20 -20 -20 -20 -20 -20 -20 -20 -20 -20 -20 -20 -20 -20 -20 -20 -20 -20 -20 -20 -20 -20 -20 -20 6 -1 0 -17 -8 26 20 10 33 18 -8 -3 -4 -6 -20 -20
-20 -20 -20 -20 -20 -20 -20 -20 -20 -20 -20 -20 -20 -20 -20 -20 -20 -20 -20 -20 -20 -20 -20 -20 -20 -20 -20 -20 -20 -20 -20 -20 -20 -20 -13 -19 -20 -20 -18 37 34 18 37 15 2 -20 -14 -20 -20
-20 -20 -20 -20 -20 -20 -20 -20 -20 -20 -20 -20 -20 -20 -20 -20 -20 -20 -20 -20 -20 -20 -20 -20 -20 -20 -20 -20 -20 -20 -20 -20 -20 -20 -20 -19 -17 -4 -20 12 26 31 24 15 -14 -7 -20 -20 -20
-20 -20 -20 -20 -20 -20 -20 -20 -20 -20 -20 -20 -20 -20 -20 -20 -20 -20 -20 -20 -20 -20 -20 -20 -20 -20 -20 -20 -20 -20 -20 -20 -13 -20 -20 -19 12 -20 -20 -18 29 39 39 29 -12 -18 -20 -20 -20
-20 -20 -20 -20 -20 -20 -20 -20 -20 -20 -20 -20 -20 -20 -20 -20 -20 -20 -20 -20 -20 -20 -20 -20 -20 -20 -20 -20 -20 -2 -16 -20 -20 -13 2 -5 8 16 -15 0 28 28 21 22 -20 -17 -16 -20 -20
-20 -20 -20 -20 -20 -20 -20 -20 -20 -20 -20 -20 -20 -20 -20 -20 -20 -20 -20 -20 -20 -20 -20 -20 -20 -20 -20 -20 -20 -20 -20 -20 -20 -20 6 21 26 13 21 21 27 35 22 25 6 -10 -20 -20 -20
-20 -19 -20 -20 -20 -13 -20 -20 -20 -20 -20 -20 -20 -20 -20 -20 -20 -20 -13 -8 -20 -20 -20 -20 -20 -20 -20 -20 -20 -20 -20 -20 -20 21 15 24 19 17 27 20 24 9 34 15 15 9 -5 2 -16
-20 -20 -20 -20 -10 -20 -15 -20 -20 -20 -20 -20 -20 -20 1 0 -20 -6 -9 -20 -20 -20 -20 -20 -20 -20 -20 -20 -20 -20 -19 9 -11 25 25 0 24 29 34 27 12 25 -11 -11 19 16 6 -20 -20
-1 -20 -7 -7 25 -20 -14 -20 -20 -20 -20 -13 -19 17 -10 -8 -20 -12 14 -18 -20 -20 -20 -20 -14 -5 -20 -20 6 -7 -5 -0 -20 1 30 26 20 27 33 34 27 30 24 10 10 -10 -17 24 4
-20 -20 -20 5 15 -20 -20 -20 -20 -20 -20 -20 -20 -20 -20 24 -12 -7 11 8 -20 -20 -3 -14 1 10 -8 -19 9 -20 -8 -16 4 -18 42 38 28 28 30 30 30 31 30 15 28 18 24 14 3
-20 0 -5 -5 25 -14 -20 -20 -20 -20 -19 -20 -18 -20 -10 6 -20 -19 5 -20 -19 10 -20 -20 -12 16 13 16 26 22 24 32 17 23 39 31 29 32 32 28 27 26 20 22 28 31 26 32 27
-4 11 -8 -16 -6 -20 -15 -20 -20 -20 -20 2 4 -1 3 7 -18 6 -2 1 -13 3 9 16 14 -8 7 16 32 28 30 26 39 38 38 37 36 35 34 33 30 26 28 19 28 8 18 10 19
20 18 0 -20 -7 -20 -7 15 -20 -2 2 4 -1 8 4 5 -0 18 21 34 33 29 35 29 27 26 23 0 -11 7 26 26 32 29 35 33 32 37 37 35 33 33 36 31 33 12 33 32 33
2 21 17 5 -20 -20 -20 -1 -6 -7 4 4 -1 12 28 27 25 23 32 35 36 35 33 30 22 26 20 -3 22 26 35 17 23 31 34 33 36 35 32 30 32 34 33 30 31 30 29 32 32
17 25 13 16 12 -20 -19 -11 -13 25 24 27 32 32 33 29 28 30 35 35 34 33 28 24 26 26 25 16 14 26 23 -20 18 27 27 29 32 27 24 29 30 30 32 31 14 16 26 33 26
3 -11 5 15 16 8 -3 -6 12 27 29 26 29 30 31 33 33 35 32 32 22 9 1 -19 -12 7 0 10 1 5 12 -1 -18 1 12 12 10 9 9 15 25 28 25 28 32 32 35 27 27
-20 -20 -20 -20 -20 -20 -11 -20 -20 13 22 23 31 31 29 32 36 32 29 28 -11 -20 -20 -20 -20 -20 -14 -16 -15 -2 3 -3 -3 2 -5 -20 -19 -6 -16 -5 8 11 10 4 7 12 11 12 4

GFSSGP_prec_radar_096.txt.gz
Reflectivity
-20 -20 -20 -20 -20 -20 -20 -20 -20 -20 -20 -20 -20 -20 -20 -20 -20 -20 -20 -20 -20 -20 -20 -20 -20 -20 -5 -17 -20 -8 -1 0 -6 -7 16 9 17 -12 -20 1 2 -20 14 -2 13 15 -20 14 -20
-20 -20 -20 -20 -20 -20 -20 -20 -20 -20 -20 -20 -20 -20 -20 -20 -20 -20 -20 -20 -20 -20 -20 -20 -20 -20 -20 -20 -10 -20 -20 -13 -6 -20 5 10 13 -6 -20 -1 -4 9 11 -20 -20 -20 -20 -20 -20
-20 -20 -20 -20 -20 -20 -20 -20 -20 -20 -20 -20 -20 -20 -20 -20 -20 -20 -20 -20 -20 -20 -20 -20 -20 -20 -20 -20 -20 -20 -20 -20 -20 -19 -16 9 1 -4 -20 -8 9 -17 2 -20 -20 -20 -20 -20 -20
-20 -20 -20 -20 -20 -20 -20 -20 -20 -20 -20 -20 -20 -20 -20 -20 -20 -20 -20 -20 -20 -20 -20 -20 4 -8 -20 -20 -20 -20 -20 -20 -20 -19 -17 -20 -5 -17 -20 -20 -3 -3 -20 -20 -20 -20 -20 -12 -20
-20 -20 -20 -20 -20 -20 -20 -20 -20 -20 -20 -20 -20 -20 -20 -20 -20 -20 -20 -20 -16 -20 -20 -20 7 -6 -20 -20 -20 -20 -20 -20 -20 -20 -20 -20 -13 -3 11 -20 5 11 5 -20 -20 -20 -20 -20 -20
-20 -20 -20 -20 -20 -20 -20 -20 -20 -20 -20 -20 -20 -20 -20 -20 -20 -20 -19 -14 11 2 12 -20 21 -8 -20 -20 -20 -20 -20 -20 -1 -15 -20 -20 17 -20 26 -20 -14 10 -20 -20 -20 -20 -20 -20 -20
-20 -20 -20 -20 -20 -20 -20 -20 -20 -20 -20 -20 -20 -20 -20 -20 -20 -17 -16 2 2 -7 -17 26 -20 -16 -13 -13 -15 -14 -20 -20 -20 -20 -20 8 -20 28 14 -10 -20 -20 -12 10 -20 -20 -20 -20 -20
-20 -20 -20 -20 -20 -20 -20 -20 -20 -20 -20 -20 -20 -20 -20 -20 -20 -20 -20 -0 4 3 -20 -18 -20 0 -20 -20 -20 -20 -20 -20 -20 -20 -20 -20 0 -20 31 -20 -5 -20 11 10 -14 -20 -20 -20 -20
-20 -20 -20 -20 -20 -20 -20 -20 -20 -20 -20 -20 -20 -20 -20 -20 -20 -20 -20 -20 -15 -9 18 -20 29 26 23 13 10 -9 -20 -20 -20 -20 -20 -20 -20 -20 -12 -20 -20 -20 -7 10 17 -20 -20 -20 -20
-20 -20 -20 -20 -20 -20 -20 -20 -20 -20 -20 -20 -20 -20 -20 -20 -20 -20 -20 -20 -20 -1 4 1 -20 -20 -20 -20 -20 -20 -1 -15 -20 -20 -20 -20 -20 -20 11 -17 -19 -20 -20 -2 13 10 -20 -20 -20
-20 -20 -20 -20 -20 -20 -20 -20 -20 -20 -20 -20 -20 -20 -20 -20 -20 -20 -20 -20 -20 -18 -1 -13 -20 -20 -20 -13 -20 -20 -20 13 -10 -20 -20 -20 -20 -20 -20 5 7 -20 -20 -5 4 7 -17 -20 -20
-20 -20 -20 -20 -20 -20 -20 -20 -20 -20 -20 -20 -20 -20 -20 -20 -20 -20 -20 -20 -20 -20 -20 -20 -20 -20 -20 -20 -20 -20 -20 -12 -9 20 2 -20 -20 -20 -20 -20 -19 -4 -20 -14 5 -20 -20 -20 -20
-20 -20 -20 -20 -20 -20 -20 -20 -20 -20 -20 -20 -20 -20 -20 -20 -20 -20 -20 -20 -20 -20 -20 -20 -20 -20 -20 -20 -20 -20 -20 -20 -10 3 17 14 6 -18 -20 7 -20 -13 -8 -10 -8 -19 -3 -20 -20
-20 -20 -20 -20 -20 -20 -20 -20 -20 -20 -20 -20 -20 -20 -20 -20 -20 -20 -20 -20 -20 -20 -20 -20 -20 -20 -20 -20 -20 -20 -20 -20 -20 -17 -13 3 -11 4 -2 -20 -20 -20 -20 16 -14 -14 -10 -11 -20
-20 -20 -20 -20 -20 -20 -20 -20 -20 -20 -20 -20 -20 -20 -20 -20 -20 -20 -20 -20 -20 -20 -20 -20 -20 -20 -20 -20 -20 -20 -20 -20 -20 -20 -20 -20 -20 -20 8 9 -20 -20 -17 -4 21 2 -20 -14 -20
-20 -20 -20 -20 -20 -20 -20 -20 -20 -20 -20 -20 -20 -20 -20 -20 -20 -20 -20 -20 -20 -20 -20 -20 -20 -20 -20 -20 -20 -20 -20 -20 -20 -20 -20 -20 -20 -20 -20 8 -20 -20 12 31 28 27 29 1 -14
-20 -20 -20 -20 -20 -20 -20 -20 -20 -20 -20 -20 -20 -20 -20 -20 -20 -20 -20 -20 -20 -20 -20 -20 -20 -20 -20 -20 -20 -20 -20 -20 -20 -20 -20 -20 -20 -20 -14 -1 12 1 -18 29 38 31 25 33 -10
-20 -20 -20 -20 -20 -20 -20 -20 -20 -20 -20 -20 -20 -20 -20 -20 -20 -20 -20 -20 -20 -20 -20 -20 -20 -20 -20 -20 -20 -20 -20 -20 -20 -20 -20 -20 -20 -20 4 -1 -4 18 -10 -20 -3 27 25 32 28
-20 -20 -20 -20 -20 -20 -20 -20 -20 -20 -20 -20 -20 -20 -20 -20 -20 -20 -20 -20 -20 -20 -20 -20 -20 -20 -20 -20 -20 -20 -20 -20 -20 -20 -20 -20 -20 -20 -1 12 18 11 19 -18 27 29 27 5 8
-20 -19 -20 -20 -20 -20 -20 -20 -20 -20 -20 -20 -20 -20 -20 -14 -20 -9 -20 -20 -20 -20 -20 -20 -20 -20 -20 -20 -20 -20 -20 -20 -20 -20 -20 -20 -20 -20 1 3 18 11 17 -20 26 19 24 33 26
-20 -14 -20 -20 -20 -20 -20 -20 -20 -20 -20 -20 -20 -15 -1 5 7 8 15 19 -15 -20 -20 -20 -20 -20 -20 -20 -20 -20 -10 -20 -20 -20 -19 -20 -20 -9 23 39 22 12 21 -4 10 36 16 11 -0
-4 -20 -20 -1 10 -18 -20 -20 -20 -20 -20 -20 -20 -20 16 -4 25 20 25 20 -12 -18 -20 -20 -20 -20 -20 -20 -12 11 -18 -16 -20 -20 -20 -20 -20 -7 -1 23 28 40 36 28 7 32 29 4 11
-20 -13 4 4 7 18 -17 -5 -20 -20 -20 -20 -19 -20 -20 18 12 14 16 27 24 4 10 13 -12 -20 -20 -20 1 -6 2 15 -20 -17 -18 4 -20 -3 9 25 27 28 34 26 25 34 30 26 28
-6 0 -8 2 16 5 -20 -20 -20 -14 -11 -20 0 -11 14 -3 -5 -20 -6 1 19 9 -6 -2 -15 -6 -10 -14 0 -4 13 -20 -11 29 19 -9 13 22 27 30 29 30 32 32 38 35 34 30 9
8 26 -20 -20 -14 -20 -20 -11 -20 -20 -20 10 10 -11 -10 -16 -20 -19 8 -1 4 -11 -17 15 0 2 -12 31 25 21 15 -4 7 10 24 18 24 29 28 32 35 31 32 34 36 36 34 26 15
24 24 -19 -20 -20 -20 -5 -13 -13 -20 -6 -6 6 -2 1 2 1 11 17 23 15 25 27 20 26 20 13 7 -18 6 -17 -20 -5 23 24 8 25 31 39 34 36 35 34 34 34 34 31 30 33
19 26 19 -7 -8 9 -17 1 -18 26 10 -1 -1 -3 13 23 22 22 27 27 23 28 31 37 32 33 30 22 18 19 13 7 -16 -3 15 22 27 28 31 35 35 33 30 28 25 23 27 28 35
-6 1 14 17 -6 -20 -15 -12 17 21 28 29 25 35 28 25 31 31 26 16 27 30 31 31 29 23 19 13 -1 12 6 20 -3 -20 1 16 23 26 30 25 25 31 25 31 30 30 32 31 30
-6 -20 -12 -8 12 9 -20 -16 25 25 23 11 31 28 28 29 29 33 33 32 32 27 20 15 24 19 17 7 -6 -10 -16 -16 -12 -20 -19 -16 -5 14 17 17 16 15 22 28 27 28 26 31 26
-20 -20 -20 -20 -20 -20 -20 -20 -8 -2 23 19 20 23 26 28 29 31 21 17 -9 -20 -20 -20 -18 -19 -8 -20 -20 -19 -20 -20 -20 -20 -20 -0 3 -7 1 7 8 3 4 5 16 18 24 26 16

GFSSGP_prec_radar_099.txt.gz
Reflectivity
-20 -20 -20 -20 -20 -20 -20 -20 -20 -20 -20 -20 -20 -20 -20 -20 -20 -20 -20 -20 -20 -20 -20 -20 -20 -16 -20 -20 -15 -15 -20 -20 -1 -1 6 15 14 0 -20 -20 -20 -20 5 -20 4 -5 16 -2 -3
-20 -20 -20 -20 -20 -20 -20 -20 -20 -20 -20 -20 -20 -20 -20 -20 -20 -20 -20 -20 -20 -20 -18 9 -20 -20 -17 -20 -20 -16 -11 -17 -20 -20 9 6 11 14 -10 -14 -20 -3 11 -13 -20 -20 -0 -20 -20
-20 -20 -20 -20 -20 -20 -20 -20 -20 -20 -20 -20 -20 -20 -20 -20 -20 -20 -20 -20 -20 2 -16 5 -20 -20 -17 -19 -20 -20 -17 0 -2 -20 -3 5 5 15 13 1 -13 -8 -20 -20 -20 -20 -20 -20 -20
-20 -20 -20 -20 -20 -20 -20 -20 -20 -20 -20 -20 -20 -20 -20 -20 -20 -20 -20 -20 12 13 13 -20 -20 -20 -20 -20 -20 -20 -20 -20 -20 -20 -16 -20 7 -19 5 -2 -20 23 -20 -20 -20 -20 -20 -20 -20
-20 -20 -20 -20 -20 -20 -20 -20 -20 -20 -20 -20 -20 -20 -20 -20 -20 -20 -20 -20 -16 24 5 8 -18 -17 -9 -8 -16 -20 -20 -20 -20 -20 -20 -20 -20 -8 -20 5 -18 -20 -20 -20 -20 -20 -20 -20 -20
-20 -20 -20 -20 -20 -20 -20 -20 -20 -20 -20 -20 -20 -20 -20 -20 -20 -20 -20 -20 5 -1 9 33 4 4 -20 -20 -20 -20 -20 -5 -5 -20 -20 -20 -20 -2 -12 -20 -20 -11 -20 -20 -20 -20 -20 -20 -20
-20 -20 -20 -20 -20 -20 -20 -20 -20 -20 -20 -20 -20 -20 -20 -20 -20 -20 -20 -20 -20 -20 -20 27 20 -20 -20 -20 -7 -14 -20 -20 -20 -20 -19 -20 -20 -20 -20 -10 0 16 -20 -20 -20 -20 -20 -20 -20
-20 -20 -20 -20 -20 -20 -20 -20 -20 -20 -20 -20 -20 -20 -20 -20 -20 -20 -20 -20 -20 -20 -7 -20 -15 21 -20 -20 -20 -20 -20 -20 -20 -20 -20 -20 -20 -20 -20 -20 -20 -10 -17 -20 -20 -20 -20 -20 -20
-20 -20 -20 -20 -20 -20 -20 -20 -20 -20 -20 -20 -20 -20 -20 -20 -20 -20 -20 -20 -20 -20 -10 -5 -20 4 6 26 -20 -20 12 8 -20 -20 -20 -20 -20 -20 -20 -20 -20 -20 24 -17 -7 -20 -20 -20 -20
-20 -20 -20 -20 -20 -20 -20 -20 -20 -20 -20 -20 -20 -20 -20 -20 -20 -20 -20 -20 -20 -20 -20 -14 -7 -18 4 23 20 18 9 -20 -19 -20 -20 -20 -20 -20 -20 -20 -20 -20 -20 -20 -11 -2 -20 -20 -20
-20 -20 -20 -20 -20 -20 -20 -20 -20 -20 -20 -20 -20 -20 -20 -20 -20 -20 -20 -20 -20 -20 -20 -20 -4 17 -20 -20 -20 23 -7 -8 -20 5 14 -20 3 -19 -20 -20 -13 -20 -20 -20 -20 20 10 -20 -20
-20 -20 -20 -20 -20 -20 -20 -20 -20 -20 -20 -20 -20 -20 -20 -20 -20 -20 -20 -20 -20 -20 -20 -20 -20 4 -18 -20 -20 -20 7 -19 -20 -20 17 15 10 -20 -20 -20 -20 -20 -20 -20 -20 -20 11 -20 -20
-20 -20 -20 -20 -20 -20 -20 -20 -20 -20 -20 -20 -20 -20 -20 -20 -20 -20 -20 -20 -20 -20 -20 -20 -20 -16 -19 -20 -20 -20 -9 -19 -20 -20 -16 -20 7 8 1 -17 -20 -20 -20 -20 7 -20 -20 -20 -20
-20 -20 -20 -20 -20 -20 -20 -20 -20 -20 -20 -20 -20 -20 -20 -20 -20 -20 -20 -20 -20 -20 -20 -20 -20 -20 -20 -20 -20 -20 -20 -20 -20 -20 -20 -20 -13 -6 4 -8 -2 -20 -20 -20 -20 -20 -17 -20 -15
-20 -20 -20 -20 -20 -20 -20 -20 -20 -20 -20 -20 -20 -20 -20 -20 -20 -20 -20 -20 -20 -20 -20 -20 -20 -20 -20 -20 -20 -20 -20 -20 -20 -20 -20 -20 -20 -20 -20 -20 -20 -10 -20 -20 -6 -12 7 23 -20
-20 -20 -20 -20 -20 -20 -20 -20 -20 -20 -20 -20 -20 -20 -20 -20 -20 -20 -20 -20 -20 -20 -20 -20 -20 -20 -20 -20 -20 -20 -20 -20 -20 -20 -20 -20 -20 -20 -15 2 -1 0 -17 3 -3 22 1 37 27
-20 -20 -20 -20 -20 -20 -20 -20 -20 -20 -20 -20 -20 -20 -20 -20 -20 -20 -20 -20 -20 -20 -20 -20 -20 -20 -20 -20 -20 -20 -20 -20 -20 -20 -20 -20 -20 -20 -20 -2 -2 8 6 -14 10 19 -1 5 23
-20 -20 -20 -20 -20 -20 -20 -20 -20 -20 -20 -20 -20 -20 -20 -20 -20 -20 -20 -20 -20 -20 -20 -20 -20 -20 -20 -20 -20 -20 -20 -20 -20 -20 -20 -20 -20 -20 -8 -2 6 9 13 1 -6 -17 2 1 -9
-20 -20 -20 -20 -20 -20 -20 -20 -20 -20 -20 -20 -20 -20 -20 -20 -20 -20 -20 -20 -20 -20 -20 -20 -20 -20 -20 -20 -20 -20 -20 -20 -20 -20 -20 -20 -20 -20 0 5 6 10 14 7 10 6 -18 21 -20
-20 -20 -20 -20 -20 -20 -20 -20 -20 -20 -20 -20 -20 -20 -20 -17 -20 -18 -7 -13 -20 -20 -19 -20 -20 -20 -20 -20 -20 -20 -20 -20 -20 -20 -20 -20 -20 -18 -1 8 -3 -2 8 2 -20 10 -4 19 -20
-20 -20 -20 -20 -20 -20 -20 -20 -20 -20 -20 -20 -20 -20 -20 -9 10 2 -8 -8 -20 12 0 -17 -3 -9 -20 -20 -11 -20 -13 -18 -9 -19 -20 -11 -20 -10 1 4 11 7 8 -2 -20 6 -2 9 -18
-20 -20 -20 -20 0 -5 -14 -4 -20 -20 -20 -20 -20 -20 -20 13 -14 2 18 3 -4 17 -5 20 -20 -0 -20 -20 -15 -12 -18 -16 -11 -14 -20 -20 -20 0 4 9 -0 17 18 24 29 9 18 13 -9
-20 -20 -20 -20 3 8 -11 0 -20 -20 -20 -20 -20 -20 5 -18 11 -5 8 7 -3 -15 26 23 -16 -20 -20 -20 -19 -4 10 -18 -20 -18 2 -10 -17 9 10 4 9 11 13 19 33 30 35 26 25
-20 -20 -20 -15 13 3 -20 -20 -20 -20 -20 -19 7 -20 -4 -18 -11 -2 6 -9 -20 12 -20 -20 -20 -20 0 8 -18 11 24 -1 -13 -20 -15 -20 -7 7 -14 10 -4 -6 1 -12 23 27 30 30 28
-20 17 -18 -20 -20 -20 -20 -20 -14 -20 -20 -6 14 6 -0 -4 -9 -3 17 12 -6 14 -13 -15 -19 -14 -2 -20 24 24 25 -1 9 -18 2 -12 -20 17 29 26 12 25 21 27 29 33 31 33 30
22 19 -20 -20 -20 -20 -13 -20 15 12 23 -5 -1 12 -3 3 11 15 13 21 21 18 17 13 21 7 -17 1 15 17 33 22 31 -12 -19 -3 3 9 26 31 23 21 24 29 14 21 24 33 30
14 15 12 4 -20 -17 -20 10 16 24 28 22 17 19 20 23 20 28 29 35 29 27 19 31 32 29 29 19 25 20 20 20 19 -12 -4 1 13 15 26 29 20 27 28 29 31 29 29 33 31
-8 -20 -6 10 -20 -20 -20 -14 14 24 28 29 20 28 30 32 31 29 32 26 28 34 33 36 35 29 18 19 20 15 28 26 16 7 -18 -20 -15 -3 24 32 26 28 24 23 26 27 26 29 30
-19 -20 -20 -11 -0 -20 -20 -20 23 29 23 22 14 23 30 31 31 28 24 22 25 31 25 23 19 25 16 14 16 -1 11 17 11 12 9 9 -10 -3 1 21 21 22 23 23 27 29 28 31 25
-20 -20 -20 -20 -20 -20 -20 -20 -13 12 -0 5 13 14 22 23 23 24 18 17 18 15 2 4 9 11 14 -20 -20 -19 -16 -15 1 -20 -20 -12 2 -17 -20 -8 -5 -19 -5 -8 -2 19 27 25 26

GFSSGP_prec_radar_102.txt.gz
Reflectivity
-20 -20 -20 -20 -20 -20 -20 -20 -20 -20 -20 -20 -20 -20 -20 -20 -20 -20 5 -20 -9 15 -18 -20 -10 -20 -18 -20 -20 -20 -20 -20 -13 8 2 9 13 9 -20 -20 -20 2 7 -10 7 15 9 -20 -1
-20 -20 -20 -20 -20 -20 -20 -20 -20 -20 -20 -20 -20 -20 -20 -20 -13 -8 -7 -20 -20 11 15 8 -12 -20 -20 -20 -20 -20 -20 -20 -11 -20 -8 -17 17 6 -20 -20 -20 1 -20 -20 -20 -11 5 -20 9
-20 -20 -20 -20 -20 -20 -20 -20 -20 -20 -20 -20 -20 -20 -20 -20 -20 -20 -20 -20 -20 -0 11 10 -13 -13 -20 -20 6 -20 -20 -20 -20 -20 -20 -2 9 5 6 -19 -20 -17 -19 -20 -20 -4 -20 -20 -20
-20 -20 -20 -20 -20 -20 -20 -20 -20 -20 -20 -20 -20 -20 -20 -20 -20 -20 -20 -20 -20 -13 14 34 -20 -20 -20 -20 -20 -20 -20 1 -1 -20 -20 -15 -19 -20 12 14 -7 -20 -20 -20 -20 -20 -20 -20 -20
-20 -20 -20 -20 -20 -20 -20 -20 -20 -20 -20 -20 -20 -20 -20 -20 -20 -20 -20 -20 -20 -20 -1 6 11 3 -20 20 -20 -20 -20 20 -20 8 -20 -20 -20 -20 -20 13 -2 8 -20 -20 -20 -20 -20 -20 -20
-20 -20 -20 -20 -20 -20 -20 -20 -20 -20 -20 -20 -20 -20 -20 -20 -20 -20 -20 -20 -20 -20 -20 5 -16 17 2 -20 -20 -10 -20 -20 7 -20 6 -15 -20 -20 -20 3 -9 -20 -20 -20 -20 -20 -20 -20 -20
-20 -20 -20 -20 -20 -20 -20 -20 -20 -20 -20 -20 -20 -20 -20 -20 -20 -20 -20 -20 -20 -20 -20 -14 11 -5 -19 -19 -13 -20 -20 -20 -20 -20 -20 -20 -15 -17 -20 15 1 -2 -20 -20 -20 -20 -20 -20 -20
-20 -20 -20 -20 -20 -20 -20 -20 -20 -20 -20 -20 -20 -20 -20 -20 -20 -20 -20 -20 -20 -20 -20 -20 -15 22 23 -10 -20 -20 -20 -20 -20 -20 -20 -20 -20 -20 -20 -20 -0 21 24 -19 -20 -20 -20 -20 -8
-20 -20 -20 -20 -20 -20 -20 -20 -20 -20 -20 -20 -20 -20 -20 -20 -20 -20 -20 -20 -20 -20 -20 -20 -20 -3 22 19 -20 -20 -20 -20 -19 -19 -13 -20 -20 -20 -20 -20 -20 4 -18 25 -20 -20 -20 -20 -11
-20 -20 -20 -20 -20 -20 -20 -20 -20 -20 -20 -20 -20 -20 -20 -20 -20 -20 -20 -20 -20 -20 -20 -20 -20 -20 -14 1 -20 -20 -20 -20 -16 -11 -20 -20 -20 -20 -20 -20 -20 -20 -20 -6 21 6 -20 -20 -20
-20 -20 -20 -20 -20 -20 -20 -20 -20 -20 -20 -20 -20 -20 -20 -20 -20 -20 -20 -20 -20 -20 -20 -20 -20 -20 -20 2 -7 -20 -20 -5 1 -14 -14 30 -9 -20 -20 -19 -20 -20 -20 -3 4 -18 0 -20 -20
-20 -20 -20 -20 -20 -20 -20 -20 -20 -20 -20 -20 -20 -20 -20 -20 -20 -20 -20 -20 -20 -20 -20 -20 -20 8 -20 -20 -20 -20 -20 -2 28 15 -19 -20 -10 3 -18 -20 -20 -14 -20 -20 -20 -20 -3 2 -20
-20 -20 -20 -20 -20 -20 -20 -20 -20 -20 -20 -20 -20 -20 -20 -20 -20 -20 -20 -20 -20 -20 -20 -20 -20 -12 -6 -20 -3 -20 -20 -20 -20 -19 9 -10 -20 6 10 8 -19 -9 12 -20 -20 -20 -20 -20 -11
-20 -20 -20 -20 -20 -20 -20 -20 -20 -20 -20 -20 -20 -20 -20 -20 -20 -20 -20 -20 -20 -20 -20 -20 -20 -20 -4 -20 -2 -13 -20 -20 -20 -20 -20 -13 -17 -20 -20 -20 0 -10 -0 -20 -20 -20 -20 -20 9
-20 -20 -20 -20 -20 -20 -20 -20 -20 -20 -20 -20 -20 -20 -20 -20 -20 -20 -20 -20 -20 -20 -20 -20 -20 -20 -20 -1 -19 -20 -20 -20 -20 -20 -20 -20 -20 -20 -20 -20 -20 -20 -20 15 21 13 12 -0 -11
-20 -20 -20 -20 -20 -20 -20 -20 -20 -20 -20 -20 -20 -20 -20 -20 -20 -20 -20 -20 -20 -20 -20 -20 -20 -20 -20 -11 -5 -2 -1 -20 -20 -20 -20 -20 -20 -20 -20 -20 -20 -20 -0 11 18 23 7 5 -16
-20 -20 -20 -20 -20 -20 -20 -20 -20 -20 -20 -20 -20 -20 -20 -20 -20 -20 -20 -20 -20 -20 -20 -20 -20 -20 -20 -20 -20 -9 -20 -20 -20 -20 -20 -20 -20 -20 -20 -20 -20 -20 3 9 10 21 10 9 2
-20 -20 -20 -20 -20 -20 -20 -20 -20 -20 -20 -20 -20 -20 -20 -20 -20 -20 -20 -20 -20 -20 -20 -20 -20 -20 -20 -20 -20 -20 -20 -20 -20 -20 -20 -20 -20 -20 -20 -20 -20 -20 -6 8 4 18 17 7 2
-20 -20 -20 -20 -20 -20 -20 -20 -20 -20 -20 -20 -20 -20 -20 -20 -20 -20 -20 -20 -20 -20 -20 -20 -20 -20 -20 -20 -20 -20 -20 -20 -20 -20 -20 -20 -20 -20 -20 -20 -20 -20 -9 -11 1 11 9 7 15
-20 -20 -20 -20 -20 -20 -20 -20 -20 -20 -20 -20 -20 -19 1 6 2 -20 -20 -20 4 11 -8 -20 -20 -19 -16 -1 -7 -18 -20 -20 -20 -20 -20 -20 -20 -20 -20 -20 -20 -20 9 5 6 13 12 11 14
-20 -20 -20 -20 -20 -20 -20 -20 -20 -20 -20 -20 -20 -20 -20 -3 10 0 -15 -9 -4 -6 -5 -20 -11 -12 1 -3 1 -9 -14 -7 -20 -20 -8 -20 -15 1 -0 -4 -1 -2 11 17 3 17 4 9 2
-20 -20 -20 -20 -6 -16 -20 -11 -20 -20 -20 -20 -20 -20 -20 -20 -19 -12 -20 -16 4 1 8 14 20 9 -11 25 -20 -19 -10 -7 -9 -20 -20 -3 -9 -10 0 5 6 8 11 17 6 1 -11 9 12
-20 -20 -20 -20 -20 6 -12 4 -20 -20 -20 -20 -20 -11 -20 -9 -1 1 -15 -3 0 16 9 11 -10 23 22 23 -20 -13 7 -18 3 7 -19 -6 -20 -19 15 15 14 14 13 21 -8 -5 23 19 31
-20 -20 -16 0 -5 5 -20 -20 -20 -20 -20 -20 -2 -10 2 2 0 -10 -9 -20 -11 -20 -20 10 -20 -11 18 19 -20 -20 -16 5 -16 4 3 -7 -6 -19 8 5 7 9 9 18 -16 5 12 -8 -0
-20 -20 -14 -9 -13 -12 -20 -20 -20 -20 -2 6 5 -4 5 1 -5 -2 -3 1 -9 -20 -20 -20 -20 -11 -9 -20 -20 -18 14 7 5 11 11 -19 -5 18 -1 3 11 20 18 12 7 11 12 -3 17
10 -0 1 2 2 3 -20 -19 -5 -20 -20 -20 -20 -4 -3 4 -9 16 18 16 28 7 -19 -20 -20 -20 -20 -20 13 -4 32 38 38 25 36 19 -3 23 12 -5 18 34 25 31 17 29 31 31 24
5 9 -6 16 -20 1 -20 -17 -19 -20 -20 -20 -18 5 1 7 5 11 21 28 30 22 25 15 1 17 15 15 11 28 25 17 28 15 21 -10 -12 -2 12 24 19 29 28 29 27 29 33 29 27
-19 -2 3 10 1 -14 -20 -20 -13 -20 -19 -14 -12 2 7 11 14 21 17 29 19 29 29 29 31 24 27 24 10 2 24 23 16 -3 -5 8 -12 -20 -20 18 30 31 25 28 27 30 29 28 28
-1 1 -20 -7 -20 -15 -20 -20 -6 -20 -4 22 4 -3 1 4 13 21 21 12 -1 23 12 21 16 17 17 18 17 16 15 11 12 10 12 14 4 -8 -16 10 9 17 21 29 28 26 26 25 29
-20 -20 -20 -20 -20 -20 -20 -20 -20 -16 -3 -3 -1 -8 -17 -11 -17 -6 12 6 14 15 14 12 14 8 5 1 2 5 -4 -8 -9 -0 -18 -20 -19 8 6 8 -3 -3 15 9 9 1 -6 -12 7

GFSSGP_prec_radar_105.txt.gz
Reflectivity
-20 -20 -20 -20 -20 -20 -20 -20 -20 -20 -20 -20 -20 -20 -20 -20 -20 -18 -18 -20 -20 -9 11 -20 -20 -20 -20 -20 -20 -20 -20 -20 -2 19 -13 -4 -15 -3 -20 -20 -20 -1 -11 27 5 -18 19 -7 3
-20 -20 -20 -20 -20 -20 -20 -20 -20 -20 -20 -20 -20 -20 -20 -20 -20 -20 -11 -20 -20 -20 -10 13 -10 -20 -20 4 -20 -20 -20 -20 -1 4 10 10 -20 -6 -20 -20 -20 6 30 12 -20 -2 -20 -16 12
-20 -20 -20 -20 -20 -20 -20 -20 -20 -20 -20 -20 -20 -20 -20 -20 -20 -20 -20 -20 -20 -14 -3 -20 -6 -20 -20 -20 -20 -20 -20 -20 14 -16 -20 -20 6 7 -20 -20 -20 0 -20 -2 -20 -20 -20 -20 5
-20 -20 -20 -20 -20 -20 -20 -20 -20 -20 -20 -20 -20 -20 -20 -20 -20 -20 -20 -20 -20 -20 -19 14 -14 -20 -20 31 -20 -20 -20 -20 -20 -20 22 -20 -9 -20 -20 5 -20 -6 -18 -4 -20 -20 -20 -20 -20
-20 -20 -20 -20 -20 -20 -20 -20 -20 -20 -20 -20 -20 -20 -20 -20 -20 -20 -20 -20 -20 -20 -20 6 4 -20 -20 -20 -20 28 -13 2 -12 -11 -20 -20 -20 -15 1 -20 -20 -20 -8 -20 -20 -20 -20 -20 -20
-20 -20 -20 -20 -20 -20 -20 -20 -20 -20 -20 -20 -20 -20 -20 -20 -20 -20 -20 -20 -20 -20 -20 -20 6 -20 -20 -20 -20 -20 -20 -19 -20 -20 -20 -20 -20 -20 -20 5 -20 -20 -20 -20 -20 -20 -20 -20 -20
-20 -20 -20 -20 -20 -20 -20 -20 -20 -20 -20 -20 -20 -20 -20 -20 -20 -20 -20 -20 -20 -20 -20 -20 -19 -9 -20 -19 4 -20 -20 -20 -20 -20 -19 -20 6 -20 -20 -20 -20 -18 -20 5 -20 -20 -20 -20 -20
-20 -20 -20 -20 -20 -20 -20 -20 -20 -20 -20 -20 -20 -20 -20 -20 -20 -20 -20 -20 -20 -20 -20 -20 -20 -20 22 10 -20 -20 27 -16 -20 -20 -20 -20 -20 -20 -20 -20 -20 -20 -20 -5 -2 -20 -20 -20 -20
-20 -20 -20 -20 -20 -20 -20 -20 -20 -20 -20 -20 -20 -20 -20 -20 -20 -20 -20 -20 -20 -20 -20 -20 -6 -20 -3 17 14 -20 -20 -20 -20 -20 -20 -20 -20 -20 -20 -20 -20 -20 -20 -20 -20 -20 -20 -20 -20
-20 -20 -20 -20 -20 -20 -20 -20 -20 -20 -20 -20 -20 -20 -20 -20 -20 -20 -20 -20 -20 -20 -20 -20 -20 -13 -10 -17 6 7 -19 -20 -20 -20 -20 -20 -20 -20 -20 1 -20 -20 -20 -20 -20 -18 -20 -20 -20
-20 -20 -20 -20 -20 -20 -20 -20 -20 -20 -20 -20 -20 -20 -20 -20 -20 -20 -20 -20 -20 -20 -20 -20 -20 -20 -20 2 4 3 2 -20 -20 -20 -20 -20 -2 -11 -20 -18 -20 -20 -20 -8 -20 -20 -20 -20 -20
-20 -20 -20 -20 -20 -20 -20 -20 -20 -20 -20 -20 -20 -20 -20 -20 -20 -20 -20 -20 -20 -20 -20 -20 -20 -20 -20 -2 -15 -9 16 -20 -20 -20 -12 8 -7 -20 -20 -11 3 8 -18 -20 7 -0 -17 -20 -20
-20 -20 -20 -20 -20 -20 -20 -20 -20 -20 -20 -20 -20 -20 -20 -20 -20 -20 -20 -20 -20 -20 -20 -20 -20 -20 -20 -2 -20 13 2 -20 -20 -20 -20 -19 5 17 1 -15 4 2 -9 16 16 -0 -18 10 -20
-20 -20 -20 -20 -20 -20 -20 -20 -20 -20 -20 -20 -20 -20 -20 -20 -20 -20 -20 -20 -20 -20 -20 -20 -20 -20 -20 -16 -0 -17 -9 -9 -20 -20 -20 -20 -20 -14 -20 -20 -4 -12 -5 11 -20 -11 -14 -20 29
-20 -20 -20 -20 -20 -20 -20 -20 -20 -20 -20 -20 -20 -20 -20 -20 -20 -20 -20 -20 -20 -20 -20 -20 -20 -20 -20 -20 -20 -9 -16 23 -7 -17 -20 -20 -20 -20 -20 -20 -20 -20 -20 -20 -3 18 -19 -5 8
-20 -20 -20 -20 -20 -20 -20 -20 -20 -20 -20 -20 -20 -20 -20 -20 -20 -20 -20 -20 -20 -20 -20 -20 -20 -20 -20 -20 -20 -10 5 9 -7 -20 -1 -20 -20 -20 -20 -20 -20 -20 -20 -20 -18 -15 -20 -6 14
-20 -20 -20 -20 -20 -20 -20 -20 -20 -20 -20 -20 -20 -20 -20 -20 -20 -20 -20 -20 -20 -20 -20 -20 -20 -20 -20 -20 -20 -1 -5 8 1 3 -19 -20 -20 -20 -20 -20 -20 -20 -20 -20 -9 3 10 -13 -3
-20 -20 -20 -20 -20 -20 -20 -20 -20 -20 -20 -20 -20 -20 -20 -20 -20 -20 -20 -20 -20 -20 -20 -20 -20 -20 -20 -20 -20 -20 -11 16 -4 -20 -20 -20 -20 -20 -20 -20 -20 -20 -20 -20 -20 -8 -17 24 3
-20 -20 -20 -20 -20 -20 -20 -20 -20 -20 -20 -20 -20 -20 -20 -20 -20 -19 -15 -7 -20 -20 -20 -20 -20 -20 -20 -20 -20 -20 -20 -20 -20 -20 -20 -20 -20 -20 -20 -20 -20 -20 -20 -20 -20 -7 9 8 1
-20 -20 -20 -20 -20 -20 -20 -20 -20 -20 -20 -20 -20 -20 -20 -20 -19 -20 -2 -20 -18 -3 -6 -11 2 -20 -20 -20 -17 -20 -10 6 23 -20 -20 -20 -20 -20 -20 -20 -12 -20 -20 -14 -16 -11 6 13 15
-20 -20 -20 -20 -20 -20 -20 -20 -20 -20 -20 -20 -20 -20 -20 -20 -20 2 -20 -15 -2 -9 3 -10 1 5 9 -19 4 14 -20 3 -20 -20 -20 -20 -20 -20 -17 -7 0 4 24 -14 -20 25 -14 8 3
-20 -20 -20 -20 -20 -20 -20 -20 -20 -20 -20 -20 -20 -20 -20 -20 -19 -17 -20 -20 -1 -7 10 -19 11 -1 11 18 10 23 -13 -11 -20 -17 -17 2 -19 -20 -20 -19 -5 6 10 14 4 11 19 22 20
-20 -20 -20 -20 -20 -17 -20 -19 -20 -20 -20 -20 -20 -15 2 -19 -0 -19 -11 -19 -5 -20 10 20 17 23 16 11 28 27 26 29 20 -6 -19 -20 -20 -20 -20 -20 -20 0 27 25 20 21 21 21 24
-20 -20 -20 -20 -15 -9 -20 -20 -20 -20 -20 -20 -20 -16 1 -20 -20 -20 -20 -11 -19 -7 -15 9 -14 18 24 27 15 13 9 20 -4 -19 -19 -20 -20 -20 -20 -20 7 -0 6 14 17 18 22 21 0
-20 -10 -13 -15 -1 -18 -20 -20 -20 -20 -20 -20 -3 -16 3 -20 -20 -20 -20 -20 -19 10 16 -14 -20 -20 -11 -7 -8 14 -11 -7 -8 -20 9 -20 -17 -4 1 6 17 -9 6 14 4 21 2 25 18
-5 0 -3 -6 -2 -16 -20 -14 -20 -20 -18 6 -6 -18 -18 -20 -20 -20 -10 0 -6 20 23 6 -20 -16 -20 -20 -20 -20 -20 -20 -20 -13 22 25 31 16 -2 -14 31 20 10 27 32 33 31 33 26
-0 11 -5 -17 -20 -7 -20 -20 -20 -20 -19 0 6 -11 -20 -5 -20 -19 -14 -14 4 2 17 26 6 9 -12 -4 -10 -20 -20 -19 -12 28 35 4 18 18 -20 -20 -4 10 13 33 29 29 38 28 14
-20 -20 -2 4 -19 -8 -20 -20 -20 -20 -20 -20 -3 -9 -5 1 -6 -6 -2 -7 -0 18 19 18 18 17 24 28 13 3 -3 10 23 21 -14 -20 -20 10 4 -20 -16 -19 27 29 34 31 27 16 25
-8 -13 -14 -7 -20 -14 -20 -20 -20 -20 -13 -4 -4 -7 -11 -17 -16 -5 -5 -9 -0 5 -7 -20 6 15 7 -6 5 11 -1 3 10 12 11 4 1 5 5 -15 8 14 10 9 13 28 33 30 25
-20 -20 -20 -20 -5 -20 -20 -20 -20 -20 -20 -2 1 -6 -19 -20 -20 -20 -20 -20 -19 -12 -4 3 8 -16 4 6 8 10 10 6 6 6 3 7 12 3 -11 -12 10 -1 -4 17 2 9 16 24 16

GFSSGP_prec_radar_108.txt.gz
Reflectivity
-20 -20 -20 -20 -20 -20 -20 -20 -20 -20 -20 -20 -20 -20 -20 -20 -20 -15 -11 -20 -20 -9 -5 -0 -16 -20 -20 -20 -20 -20 -20 -20 -20 -20 5 -14 -18 -20 -20 -20 -20 -18 -20 -10 4 -20 -9 -13 -20
-20 -20 -20 -20 -20 -20 -20 -20 -20 -20 -20 -20 -20 -20 -20 -20 -20 -20 -18 -20 -20 1 8 -9 -0 -20 -20 -20 -20 -20 -1 -20 -20 -20 -20 -12 -20 -7 -20 -20 -20 -20 -20 26 -20 -20 -20 -20 -20
-20 -20 -20 -20 -20 -20 -20 -20 -20 -20 -20 -20 -20 -20 -20 -20 -20 -20 -20 -20 -20 -20 -20 1 10 -14 -20 -20 -20 -20 -20 34 -20 -11 -20 -20 -20 -4 -20 -20 -20 -20 -20 -16 -20 -1 -20 -20 -20
-20 -20 -20 -20 -20 -20 -20 -20 -20 -20 -20 -20 -20 -20 -20 -20 -20 -20 -20 -20 -20 -20 -15 9 -10 -4 -19 -20 -20 -20 -20 -20 -15 -20 -20 -20 -20 -20 -20 -20 -20 -20 -20 -5 -3 -20 -20 -20 -20
-20 -20 -20 -20 -20 -20 -20 -20 -20 -20 -20 -20 -20 -20 -20 -20 -20 -20 -20 -20 -20 -20 -20 -6 11 13 -20 -8 -20 -3 -20 -20 -20 -20 -20 -20 -20 -20 -20 -20 -20 -12 -20 -20 -20 -20 -20 -20 -20
-20 -20 -20 -20 -20 -20 -20 -20 -20 -20 -20 -20 -20 -20 -20 -20 -20 -20 -20 -20 -20 -20 -20 -20 13 8 -5 -20 -20 -5 -20 -20 -20 -20 -20 -20 -20 -20 -20 -20 -20 -20 -20 -20 -20 -20 -20 -20 -20
-20 -20 -20 -20 -20 -20 -20 -20 -20 -20 -20 -20 -20 -20 -20 -20 -20 -20 -20 -20 -20 -20 -20 -20 -16 -0 -10 1 -20 -20 -20 -20 -20 -20 -20 -20 -20 -20 -20 -20 -20 -20 -20 -20 -16 -20 -20 -20 -20
-20 -20 -20 -20 -20 -20 -20 -20 -20 -20 -20 -20 -20 -20 -20 -20 -20 -20 -20 -20 -20 -20 -20 -20 -20 -20 -20 11 15 -18 -20 -20 -20 -20 -9 -20 -20 -20 -20 -20 -20 -20 -20 -20 -20 -20 -20 -20 -20
-20 -20 -20 -20 -20 -20 -20 -20 -20 -20 -20 -20 -20 -20 -20 -20 -20 -20 -20 -20 -20 -20 -20 -20 -20 -20 -20 4 -0 -20 -20 -20 -20 -20 -20 -20 -20 -20 -20 -20 -20 -20 -20 -20 -20 -20 -20 -20 -20
-20 -20 -20 -20 -20 -20 -20 -20 -20 -20 -20 -20 -20 -20 -20 -20 -20 -20 -20 -20 -20 -20 -20 -20 -20 -20 -20 -20 -17 -20 -4 -20 -20 -20 -20 -20 -20 -20 -20 -20 -19 -20 -20 -20 -20 -20 -20 -20 -20
-20 -20 -20 -20 -20 -20 -20 -20 -20 -20 -20 -20 -20 -20 -20 -20 -20 -20 -20 -20 -20 -20 -20 -20 -20 -20 -20 -20 -20 -20 15 3 -14 -20 -20 -20 -20 -20 -20 -20 -18 -20 -20 -20 -20 -19 -20 -20 -20
-20 -20 -20 -20 -20 -20 -20 -20 -20 -20 -20 -20 -20 -20 -20 -20 -20 -20 -20 -20 -20 -20 -20 -20 -20 -20 -20 -20 -20 -20 -20 -5 -13 -20 -20 -20 -20 -20 -20 -17 -20 -20 -20 -20 -20 -20 -20 -20 -20
-20 -20 -20 -20 -20 -20 -20 -20 -20 -20 -20 -20 -20 -20 -20 -20 -20 -20 -20 -20 -20 -20 -20 -20 -20 -20 -20 -20 -20 -20 -20 -19 9 -20 -20 -20 -20 -16 -20 7 -13 -20 -2 -20 -20 -20 -19 -10 -20
-20 -20 -20 -20 -20 -20 -20 -20 -20 -20 -20 -20 -20 -20 -20 -20 -20 -20 -20 -20 -20 -20 -20 -20 -20 -20 -20 -20 -19 -17 -19 -20 -20 -20 -20 -20 -20 -20 -20 -20 -17 -20 -20 12 4 -16 22 13 29
-20 -20 -20 -20 -20 -20 -20 -20 -20 -20 -20 -20 -20 -20 -20 -20 -20 -20 -20 -20 -20 -20 -20 -20 -20 -20 -20 -20 -20 -7 0 -20 -15 -12 -20 -20 -20 -20 -20 -20 -20 -20 -20 -15 7 -20 -14 31 8
-20 -20 -20 -20 -20 -20 -20 -20 -20 -20 -20 -20 -20 -20 -20 -20 -20 -20 -20 -20 -20 -20 -20 -20 -20 -20 -20 -20 -20 -20 -13 3 -10 -13 -20 -5 -18 -20 -20 -20 -20 -20 -20 -20 -20 -20 -20 -8 -18
-20 -20 -20 -20 -20 -20 -20 -20 -20 -20 -20 -20 -20 -20 -20 -20 -20 -20 -20 -20 -20 -20 -20 -20 -20 -20 -20 -20 -20 -20 -15 13 6 22 18 -18 -7 -3 -20 -20 -20 -20 -20 -20 -20 -20 -20 -20 -20
-20 -20 -20 -20 -20 -20 -20 -20 -20 -20 -20 -20 -20 -20 -20 -20 -20 -20 -20 -20 -20 -20 -20 -20 -20 -20 -20 -20 -20 -20 -20 11 12 22 21 25 -14 -20 -20 -20 -20 -20 -20 -20 -20 -20 -20 -20 -20
-20 -20 -20 -20 -20 -20 -20 -20 -20 -20 -20 -20 -20 -20 -20 -20 -20 -20 -20 -20 -20 -20 -20 -20 -20 -20 -20 -20 -20 -20 -20 -20 -20 26 26 34 -20 -20 -20 -20 -20 -20 -20 -20 -20 -20 -20 -20 -20
-20 -20 -20 -20 -20 -20 -20 -20 -20 -20 -20 -20 -20 -20 -20 -20 -20 -20 -20 -20 -20 -20 -20 -20 -20 -20 -20 -20 -20 -20 -20 -7 -20 10 16 -12 -20 -20 -20 -20 -20 -20 -20 -20 -20 -20 -20 -20 -20
-20 -20 -20 -20 -20 -20 -20 -20 -20 -20 -20 -20 -20 -20 -20 -20 -20 -20 -20 -20 -20 -20 -20 -20 -16 -14 -20 -20 -20 -6 -7 -20 27 28 29 29 7 -20 -20 -20 -20 -20 -20 -20 -20 6 -5 1 -20
-20 -20 -20 -20 -20 -20 -20 -20 -20 -20 -20 -20 -20 -20 -20 -20 -20 -6 -20 -20 -20 -20 -20 -20 -9 -17 -20 -15 -20 -17 15 29 5 -1 27 30 17 -10 -20 -20 -20 -20 -20 -20 12 16 12 23 -16
-20 -20 -20 -20 -20 -20 -20 -20 -20 -20 -20 -20 -20 -20 -20 -20 -20 -20 -20 -20 -20 -20 -20 -20 -12 -2 14 16 -4 5 -2 28 27 28 27 12 -7 -17 -20 -20 -20 -20 -20 -20 -20 -20 19 11 18
-20 -20 -20 -20 -20 -20 -20 -20 -20 -20 -20 -20 -20 -20 -20 -20 -20 -20 -20 -20 -20 -20 -20 -1 -15 11 -16 -9 10 5 17 19 20 -5 21 -9 -20 -20 -20 -20 -20 -20 -20 -20 -3 -11 7 23 2
-20 -1 -20 -16 -20 -20 -20 -20 -20 -20 -20 -20 -20 -20 -20 -20 -20 -1 5 -20 -19 -20 -20 -20 -20 5 5 -13 21 -5 4 -8 -18 18 24 -20 -20 -19 -13 -20 -20 -20 -20 -20 25 10 21 26 22
-1 5 -20 -20 -20 -20 -20 -20 -20 -20 -20 -20 -20 -20 -14 -20 3 -17 11 -8 4 -20 -20 0 12 2 9 12 -20 -20 -20 -20 -5 -20 -20 -20 -20 -20 -19 -20 -3 16 -17 -18 33 9 10 18 25
-19 -9 -8 -20 -20 -18 -20 -20 -20 -20 -20 -20 -20 -20 -20 -20 -20 -20 -20 -1 -20 -12 7 9 11 9 6 6 -18 -20 -20 -20 -20 -19 -19 -1 1 24 25 27 19 2 -20 -20 8 23 -12 32 24
-5 -20 -3 -16 -20 -17 -20 -20 -20 -20 -20 -20 -19 -14 -15 -20 -20 -14 -20 -20 -20 -20 -20 -20 -20 -20 -17 -20 -1 -6 8 -13 14 5 3 16 25 -2 -16 -20 -16 -18 -2 -15 -20 3 15 34 35
-14 -11 -20 -20 -20 -15 -20 -20 -20 -20 -20 -20 -20 -20 -20 -20 -20 -11 -20 -20 -20 -20 -20 -20 -19 -19 -17 -20 -20 -20 -20 -13 -4 2 2 8 -1 -7 -5 1 4 -2 -13 -15 -4 -12 7 27 29
-20 -20 -20 -20 -20 -20 -20 -20 -20 -20 -20 -20 -20 -20 -20 -20 -20 -20 -20 -20 -20 -20 -20 -20 -20 -20 -20 -20 -20 -20 -20 -20 -20 -20 -20 -20 -20 -20 -20 -13 -18 -20 -20 -13 -3 4 0 11 6

GFSSGP_prec_radar_111.txt.gz
Reflectivity
-20 -20 -20 -20 -20 -20 -20 -20 -20 -20 -20 -20 -20 -20 -20 -20 -20 -16 -1 -19 -20 1 7 4 7 -20 -20 -20 -20 -20 -20 -20 -20 -13 -20 -20 -20 -20 -20 -20 -20 -20 -20 -19 -3 -20 5 -20 -20
-20 -20 -20 -20 -20 -20 -20 -20 -20 -20 -20 -20 -20 -20 -20 -20 -20 -20 -11 -20 -20 -17 1 -1 -3 -1 5 -20 -20 -20 -20 -20 -20 -20 -20 -20 -20 -20 -20 -20 -20 -20 -20 10 0 -17 18 -20 -20
-20 -20 -20 -20 -20 -20 -20 -20 -20 -20 -20 -20 -20 -20 -20 -20 -20 -20 -20 -20 -20 -13 -18 10 15 6 -20 -20 -20 -20 -20 -20 -20 -20 -20 -20 -20 9 -20 -20 -20 -20 -20 -20 1 17 -20 -20 -20
-20 -20 -20 -20 -20 -20 -20 -20 -20 -20 -20 -20 -20 -20 -20 -20 -20 -20 -20 -20 -20 -20 2 7 10 3 -4 -20 -20 -20 -20 -20 -20 -20 -20 -20 -20 -20 -20 -20 -20 -20 -20 -20 6 -20 -20 -20 -20
-20 -20 -20 -20 -20 -20 -20 -20 -20 -20 -20 -20 -20 -20 -20 -20 -20 -20 -20 -20 -20 -20 -19 5 12 10 9 -12 -20 -20 -20 -20 -20 -20 -20 -20 -20 -20 -20 -20 -20 -20 -20 -20 -20 -20 -20 -20 -20
-20 -20 -20 -20 -20 -20 -20 -20 -20 -20 -20 -20 -20 -20 -20 -20 -20 -20 -20 -20 -20 -20 -20 -7 11 11 -20 15 -20 -20 1 -20 -20 -20 -20 -20 -20 -20 -20 -20 -20 -20 -20 -20 -20 -20 -20 -20 -20
-20 -20 -20 -20 -20 -20 -20 -20 -20 -20 -20 -20 -20 -20 -20 -20 -20 -20 -20 -20 -20 -20 -20 -20 -19 -5 -19 -20 -7 8 -11 -20 -20 20 -20 -20 -20 -20 -20 -20 -20 -20 -20 -20 -20 -20 -20 -20 -20
-20 -20 -20 -20 -20 -20 -20 -20 -20 -20 -20 -20 -20 -20 -20 -20 -20 -20 -20 -20 -20 -20 -20 -20 -20 -20 -8 -20 -3 -20 -20 -20 -20 -20 -20 -20 -20 -20 -20 -20 -20 -20 -20 -20 -20 -20 -20 -20 -20
-20 -20 -20 -20 -20 -20 -20 -20 -20 -20 -20 -20 -20 -20 -20 -20 -20 -20 -20 -20 -20 -20 -20 -20 -20 -20 -20 -20 7 -11 -20 -20 -20 -20 -20 -20 -20 -20 -20 -20 -20 -20 -20 -20 -20 -20 -20 -20 -20
-20 -20 -20 -20 -20 -20 -20 -20 -20 -20 -20 -20 -20 -20 -20 -20 -20 -20 -20 -20 -20 -20 -20 -20 -20 -20 -20 -20 -20 -20 -20 -20 -20 -20 -20 -20 -20 -20 -20 -20 -20 -20 -20 -20 -20 -20 -20 -20 -20
-20 -20 -20 -20 -20 -20 -20 -20 -20 -20 -20 -20 -20 -20 -20 -20 -20 -20 -20 -20 -20 -20 -20 -20 -20 -20 -20 -20 -20 -20 -20 -20 -20 -20 -20 -20 -20 -20 -20 -20 -20 -1 -20 -20 -20 -20 -20 -20 -20
-20 -20 -20 -20 -20 -20 -20 -20 -20 -20 -20 -20 -20 -20 -20 -20 -20 -20 -20 -20 -20 -20 -20 -20 -20 -20 -20 -20 -20 -20 -20 -20 6 -20 -20 -20 -20 -20 -20 -20 -20 -20 -20 -19 -20 -20 -20 -20 -20
-20 -20 -20 -20 -20 -20 -20 -20 -20 -20 -20 -20 -20 -20 -20 -20 -20 -20 -20 -20 -20 -20 -20 -20 -20 -20 -20 -20 -20 -20 -20 -20 -12 12 -20 -20 -20 -20 -20 -20 -20 -20 -20 18 14 11 -17 -20 -20
-20 -20 -20 -20 -20 -20 -20 -20 -20 -20 -20 -20 -20 -20 -20 -20 -20 -20 -20 -20 -20 -20 -20 -20 -20 -20 -20 -20 -20 -20 -20 -20 -20 -5 -20 -20 -20 -20 -20 -20 -20 -20 2 -10 31 -16 0 -19 5
-20 -20 -20 -20 -20 -20 -20 -20 -20 -20 -20 -20 -20 -20 -20 -20 -20 -20 -20 -20 -20 -20 -20 -20 -20 -20 -20 -20 -20 -20 -20 -20 -20 -20 -17 -20 -20 -20 -20 -20 -20 -20 -20 -20 -20 -19 -20 -0 24
-20 -20 -20 -20 -20 -20 -20 -20 -20 -20 -20 -20 -20 -20 -20 -20 -20 -20 -20 -20 -20 -20 -20 -20 -20 -20 -20 -20 -20 -20 -20 -20 -20 -20 -20 12 -20 -20 -20 -20 -20 -20 -20 -20 -20 -20 -20 -20 -20
-20 -20 -20 -20 -20 -20 -20 -20 -20 -20 -20 -20 -20 -20 -20 -20 -20 -20 -20 -20 -20 -20 -20 -20 -20 -20 -20 -20 -20 -20 -20 -20 -20 -20 -20 -14 10 18 -12 -20 8 -20 -20 -20 -20 -20 -20 -20 -10
-20 -20 -20 -20 -20 -20 -20 -20 -20 -20 -20 -20 -20 -20 -20 -20 -20 -20 -20 -20 -20 -20 -20 -20 -20 -20 -20 -20 -20 -20 -20 -20 -20 -5 7 -8 20 30 26 10 7 4 -20 -20 -20 -20 -20 -20 -20
-20 -20 -20 -20 -20 -20 -20 -20 -20 -20 -20 -20 -20 -20 -20 -20 -20 -20 -20 -20 -20 -20 -20 -20 -20 -20 -20 -20 -20 -20 -20 -20 -20 -20 -20 -20 27 27 25 27 29 -20 -20 -20 -20 -20 -20 -20 -20
-20 -20 -20 -20 -20 -20 -20 -20 -20 -20 -20 -20 -20 -20 -20 -20 -20 -20 -20 -20 -20 -20 -20 -20 -20 -20 -20 -19 -20 -9 -20 -20 -20 -14 -20 -20 24 12 27 28 9 -7 29 -20 -20 -20 -20 -20 -20
-20 -20 -20 -20 -20 -20 -20 -20 -20 -20 -20 -20 -20 -20 -20 -20 -20 -20 -20 -20 -20 -20 -20 -20 -20 -20 -20 -20 -16 -20 -20 -20 -20 -13 8 20 13 27 29 33 28 15 13 -20 -20 -2 -4 1 -20
-20 -20 -20 -20 -20 -20 -20 -20 -20 -20 -20 -20 -20 -20 -20 -20 -20 -20 -20 -20 -20 -20 -20 -20 -20 -20 -20 -20 -8 -18 -14 -20 3 12 4 16 24 26 22 7 16 -6 -20 -20 -20 -20 -20 -13 -1
-20 -20 -20 -20 -20 -20 -20 -20 -20 -20 -20 -20 -20 -20 -20 -20 -20 -20 -20 -20 -20 -20 -20 -20 -20 -19 -20 -20 -19 -20 -20 5 6 20 27 21 25 14 14 15 -12 -8 -20 -20 -20 -20 -20 -20 -13
-20 -20 -20 -20 -20 -20 -20 -20 -20 -20 -20 -20 -20 -20 -20 -20 -20 -20 -20 -10 -20 -20 -20 -20 -5 -11 3 -18 -20 -20 -20 -19 -1 18 23 23 32 32 32 22 13 -18 -20 -20 -20 -20 -20 -20 -17
-20 -20 -20 -20 -20 -20 -20 -20 -20 -20 -20 -20 -20 -20 -20 -20 -20 -13 -20 -20 -20 -20 -20 -20 -20 -9 -11 5 -6 -16 -18 -20 -20 -20 -13 -20 -20 -20 -20 2 -8 -13 9 0 -20 -20 -20 -20 1
-20 -20 -20 -20 -20 -20 -20 -20 -20 -20 -20 -20 -20 -20 -20 -20 -20 -20 -20 -20 -20 -20 -20 -20 -20 -14 -6 4 8 -17 -8 -20 -20 -18 -20 -8 -11 -20 -3 -20 -20 -20 -20 -20 -20 -20 -20 -20 -17
-20 -20 -20 -20 -20 -20 -20 -20 -20 -20 -20 -20 -20 -20 -20 -20 -20 -20 -20 -20 -20 -20 -20 -20 -20 -20 -20 -20 -20 -20 -20 -7 -8 -1 -2 -4 -9 -6 -5 10 23 25 18 -5 10 -17 -20 -20 -20
-4 -20 -18 -20 -20 -20 -20 -20 -20 -20 -20 -20 -20 -20 -20 -20 -20 -20 -20 -20 -20 -20 -20 -20 -20 -20 -20 -20 -20 -20 -20 -20 -20 -20 -20 -20 -17 -18 9 8 18 15 13 10 -9 -2 -1 -12 -20
-20 -20 -20 -20 -20 -20 -20 -20 -20 -20 -20 -20 -20 -20 -20 -20 -20 -20 -20 -20 -20 -20 -20 -20 -20 -20 -20 -20 -20 -20 -20 -20 -20 -20 -20 -20 -20 -20 -20 -20 -20 -20 -20 -20 -20 -20 -20 -20 -2
-20 -20 -20 -20 -20 -20 -20 -20 -20 -20 -20 -20 -20 -20 -20 -20 -20 -20 -20 -20 -20 -20 -20 -20 -20 -20 -20 -20 -20 -20 -20 -20 -20 -20 -20 -20 -20 -20 -20 -20 -20 -20 -20 -20 -20 -20 -20 -20 -20

GFSSGP_prec_radar_114.txt.gz
Reflectivity
-20 -20 -20 -20 -20 -20 -20 -20 -20 -20 -20 -20 -20 -20 -20 -20 -20 -18 -20 -18 -16 -16 9 -9 -20 -20 -20 -20 11 -20 -20 -20 -20 -20 -20 -20 -6 -20 -20 -20 -20 -20 -20 -20 18 22 -3 -20 -9
-20 -20 -20 -20 -20 -20 -20 -20 -20 -20 -20 -20 -20 -20 -20 -20 -20 -20 -20 -20 -20 -20 -2 8 4 -20 -20 -20 -20 -20 -20 -20 -20 -20 -20 -20 -6 -20 -20 -20 -20 -20 -20 15 -15 -17 -20 -20 -20
-20 -20 -20 -20 -20 -20 -20 -20 -20 -20 -20 -20 -20 -20 -20 -20 -20 -20 -20 -20 -20 -20 -14 9 -20 4 -17 -20 -20 -20 -20 -20 -20 -20 -20 -1 -3 -9 -20 -20 -20 -20 -20 -20 -20 -20 -20 -20 -20
-20 -20 -20 -20 -20 -20 -20 -20 -20 -20 -20 -20 -20 -20 -20 -20 -20 -20 -20 -20 -20 -20 2 10 -10 8 12 -20 -20 2 -20 -20 -20 -20 -20 -20 -20 -20 -20 -20 -20 -20 -20 -20 -20 -20 -20 -20 -20
-20 -20 -20 -20 -20 -20 -20 -20 -20 -20 -20 -20 -20 -20 -20 -20 -20 -20 -20 -20 -20 -20 -3 -9 8 20 -7 -20 -20 -20 -20 -20 -20 -20 -20 -20 -20 -20 -20 -20 -20 -20 -20 -20 -20 20 -20 -20 -20
-20 -20 -20 -20 -20 -20 -20 -20 -20 -20 -20 -20 -20 -20 -20 -20 -20 -20 -20 -20 -20 -20 -20 -20 11 10 -12 7 -20 -20 -17 -20 -20 -4 31 1 -20 -20 -20 -20 -20 -15 -20 -20 -20 -20 -20 -20 -20
-20 -20 -20 -20 -20 -20 -20 -20 -20 -20 -20 -20 -20 -20 -20 -20 -20 -20 -20 -20 -20 -20 -20 -20 -20 -15 3 -19 -20 -20 -20 -20 1 7 -20 -18 -20 -17 -20 -20 -20 -20 -20 -20 -20 -20 -20 -20 -20
-20 -20 -20 -20 -20 -20 -20 -20 -20 -20 -20 -20 -20 -20 -20 -20 -20 -20 -20 -20 -20 -20 -20 -20 -20 -20 -19 14 5 -20 -20 -20 -20 -20 -20 -20 -20 -20 -20 -20 -20 -20 -20 8 -19 19 -20 -20 -20
-20 -20 -20 -20 -20 -20 -20 -20 -20 -20 -20 -20 -20 -20 -20 -20 -20 -20 -20 -20 -20 -20 -20 -20 -20 -20 -20 -20 -15 7 -3 -10 -20 -20 -20 -20 -20 -20 -20 -20 -20 7 -20 -20 -2 11 -4 -20 -20
-20 -20 -20 -20 -20 -20 -20 -20 -20 -20 -20 -20 -20 -20 -20 -20 -20 -20 -20 -20 -20 -20 -20 -20 -20 -20 -20 -20 -20 -20 -20 -20 -20 -20 -20 -20 -20 -20 -20 -20 -20 -20 -20 -20 -20 -20 6 -7 -20
-20 -20 -20 -20 -20 -20 -20 -20 -20 -20 -20 -20 -20 -20 -20 -20 -20 -20 -20 -20 -20 -20 -20 -20 -20 -20 -20 -20 -20 -20 -20 -20 -18 9 -20 -20 -20 -20 -20 -20 -20 -20 -20 -20 -20 -20 -16 -20 -20
-20 -20 -20 -20 -20 -20 -20 -20 -20 -20 -20 -20 -20 -20 -20 -20 -20 -20 -20 -20 -20 -20 -20 -20 -20 -20 -20 -20 -20 -20 -20 -20 -20 7 7 -4 -20 -20 -20 -20 -20 -20 -18 -19 11 10 9 2 -20
-20 -20 -20 -20 -20 -20 -20 -20 -20 -20 -20 -20 -20 -20 -20 -20 -20 -20 -20 -20 -20 -20 -20 -20 -20 -20 -20 -20 -20 -20 -20 -20 -20 -20 3 1 -5 -20 8 11 -20 -20 -19 0 16 7 32 -20 -19
-20 -20 -20 -20 -20 -20 -20 -20 -20 -20 -20 -20 -20 -20 -20 -20 -20 -20 -20 -20 -20 -20 -20 -20 -20 -20 -20 -20 -20 -20 -20 -20 -20 -20 -20 -14 -3 -20 -20 -20 -20 -20 -20 -17 -20 15 -5 -20 -14
-20 -20 -20 -20 -20 -20 -20 -20 -20 -20 -20 -20 -20 -20 -20 -20 -20 -20 -20 -20 -20 -20 -20 -20 -20 -20 -20 -20 -20 -20 -20 -20 -20 -20 -20 -20 -7 -10 15 -20 -20 -20 -20 -20 -20 -20 -20 -20 10
-20 -20 -20 -20 -20 -20 -20 -20 -20 -20 -20 -20 -20 -20 -20 -20 -20 -20 -20 -20 -20 -20 -20 -20 -20 -20 -20 -20 -20 -20 -20 -20 -20 -20 -20 -20 -20 -4 -20 12 -20 -20 -20 -20 -20 -20 -20 -20 -20
-20 -20 -20 -20 -20 -20 -20 -20 -20 -20 -20 -20 -20 -20 -20 -20 -20 -20 -20 -20 -20 -20 -20 -20 -20 -20 -20 -20 -20 -20 -20 -20 -20 -20 -20 -20 -20 -20 4 2 -20 24 26 -2 -20 -20 -20 -20 -20
-20 -20 -20 -20 -20 -20 -20 -20 -20 -20 -20 -20 -20 -20 -20 -20 -20 -20 -20 -20 -20 -20 -20 -20 -20 -20 -20 -20 -20 -20 -20 -20 -20 -20 -20 -20 -10 -1 22 21 29 25 32 23 16 -20 -20 -20 -20
-20 -20 -20 -20 -20 -20 -20 -20 -20 -20 -20 -20 -20 -20 -20 -20 -20 -20 -20 -20 -20 -20 -20 -20 -20 -20 -20 -20 4 -18 -20 -20 -20 -20 -20 -20 -20 -20 -20 21 23 25 22 23 2 13 17 -20 -20
-20 -20 -20 -20 -20 -20 -20 -20 -20 -20 -20 -20 -20 -20 -20 -20 -20 -20 -20 -20 -20 -20 -20 -20 -20 -20 -20 -20 -14 8 -17 -20 -20 -20 -20 -20 -20 -20 -20 11 5 -9 31 23 21 20 -18 -20 -20
-20 -20 -20 -20 -20 -20 -20 -20 -20 -20 -20 -20 -20 -20 -20 -20 -20 -20 -20 -20 -20 -20 -20 -20 -20 -20 -20 -20 -20 -20 -20 -20 -19 -20 4 -20 -20 -0 -2 27 14 4 34 41 15 9 16 -10 -20
-20 -20 -20 -20 -20 -20 -20 -20 -20 -20 -20 -20 -20 -20 -20 -20 -20 -20 -20 -20 -20 -20 -20 -20 -20 -20 -20 -20 -20 -16 -20 6 2 9 10 -1 0 12 24 18 27 37 32 37 41 30 33 16 -3
-20 -20 -20 -20 -20 -20 -20 -20 -20 -20 -20 -20 -20 -20 -20 -20 -20 -20 -20 -20 -20 -20 -20 -20 -20 -20 -20 -20 -20 -13 8 10 9 6 -2 24 -2 5 -14 -20 -20 18 26 32 32 38 29 14 -5
-20 -20 -20 -20 -20 -20 -20 -20 -20 -20 -20 -20 -20 -20 -20 -20 -20 -20 -20 -20 -20 -17 -20 -20 -20 -20 -20 -20 -20 -20 -20 -13 -3 -8 -9 -19 6 -8 32 -4 -20 -20 -20 -18 1 -12 -20 -20 -20
-20 -20 -20 -20 -20 -20 -20 -20 -20 -20 -20 -20 -20 -20 -20 -20 -20 -20 -20 -20 -20 -20 -20 -20 -20 -20 -20 -20 -17 -15 -11 -14 -20 -15 2 12 -4 -14 -20 -20 -2 -10 -14 -20 -20 -20 -20 -20 -17
-20 -20 -20 -20 -20 -20 -20 -20 -20 -20 -20 -20 -20 -20 -20 -20 -20 -20 -20 -20 -20 -20 -20 -20 -20 -20 -20 -20 -20 -20 -20 -17 2 -4 -6 -8 5 5 4 2 -3 8 -12 -18 -12 -16 -20 -20 -20
-20 -20 -20 -20 -20 -20 -20 -20 -20 -20 -20 -20 -20 -20 -20 -20 -20 -20 -20 -20 -20 -20 -20 -20 -20 -20 -20 -20 -20 -20 -20 -20 -20 -20 -20 -12 -19 -20 -20 -4 4 11 -6 -6 -18 -20 -20 -20 -20
-20 -20 -20 -20 -20 -20 -20 -20 -20 -20 -20 -20 -20 -20 -20 -20 -20 -20 -20 -20 -20 -20 -20 -20 -20 -20 -20 -20 -20 -20 -20 -20 -20 -20 -20 -20 -20 -20 -20 -20 -20 -20 -20 -20 -13 -20 -20 -20 -15
-20 -20 -20 -20 -20 -20 -20 -20 -20 -20 -20 -20 -20 -20 -20 -20 -20 -20 -20 -20 -20 -20 -20 -20 -20 -20 -20 -20 -20 -20 -20 -20 -20 -20 -20 -20 -20 -20 -20 -20 -20 -20 -20 -20 -20 -20 -20 -20 -20
-20 -20 -20 -20 -20 -20 -20 -20 -20 -20 -20 -20 -20 -20 -20 -20 -20 -20 -20 -20 -20 -20 -20 -20 -20 -20 -20 -20 -20 -20 -20 -20 -20 -20 -20 -20 -20 -20 -20 -20 -20 -20 -20 -20 -20 -20 -20 -20 -20

GFSSGP_prec_radar_117.txt.gz
Reflectivity
-20 -20 -20 -20 -20 -20 -20 -20 -20 -20 -20 -20 -20 -20 -20 -20 -20 -20 -20 -20 -20 -20 14 20 18 -5 -20 -20 -20 -20 -20 -20 -20 7 -20 -20 -18 -20 -20 -20 -20 -20 -20 -15 29 19 -20 1 -10
-20 -20 -20 -20 -20 -20 -20 -20 -20 -20 -20 -20 -20 -20 -20 -20 -20 -20 -20 -20 -20 -20 -2 18 19 -15 -20 -20 -20 -20 -20 -20 -2 -20 -20 -20 -20 -20 -20 -20 -20 -20 -20 -17 4 -20 -20 -20 -20
-20 -20 -20 -20 -20 -20 -20 -20 -20 -20 -20 -20 -20 -20 -20 -20 -20 -20 -20 -20 -20 -20 -20 17 17 -6 -19 -20 -20 -20 -20 -20 19 -20 -12 -20 -20 -20 -20 -20 -20 -20 -20 -20 -20 -18 7 -20 -20
-20 -20 -20 -20 -20 -20 -20 -20 -20 -20 -20 -20 -20 -20 -20 -20 -20 -20 -20 -20 -20 -20 6 0 -20 -2 33 10 -20 -20 -20 -20 -20 -20 -20 -20 -20 -20 -20 -20 -20 -20 -20 -20 -20 -19 -20 -20 -20
-20 -20 -20 -20 -20 -20 -20 -20 -20 -20 -20 -20 -20 -20 -20 -20 -20 -20 -20 -20 -20 -20 -14 -3 15 10 11 13 -20 -20 -20 -20 -20 -20 -20 -20 -20 -1 -20 -20 -20 -20 -20 -20 -20 -3 -20 -20 -20
-20 -20 -20 -20 -20 -20 -20 -20 -20 -20 -20 -20 -20 -20 -20 -20 -20 -20 -20 -20 -20 -20 -20 -20 -3 10 5 8 -12 -12 -2 -20 -20 -20 -20 -20 -20 -20 -20 -18 3 -0 -20 -20 -20 -18 -20 -20 -20
-20 -20 -20 -20 -20 -20 -20 -20 -20 -20 -20 -20 -20 -20 -20 -20 -20 -20 -20 -20 -20 -20 -20 -20 -20 -16 -3 6 -17 -20 -20 -20 -20 -20 -20 -20 -20 -20 -20 -20 -20 -20 -10 -20 9 -20 18 -20 -20
-20 -20 -20 -20 -20 -20 -20 -20 -20 -20 -20 -20 -20 -20 -20 -20 -20 -20 -20 -20 -20 -20 -20 -20 -20 -20 -20 -20 13 1 -20 -20 -20 -20 -20 -20 -20 -20 -20 -20 -20 -20 -20 -20 -20 -20 -20 6 -3
-20 -20 -20 -20 -20 -20 -20 -20 -20 -20 -20 -20 -20 -20 -20 -20 -20 -20 -20 -20 -20 -20 -20 -20 -20 -20 -20 -20 -20 0 15 9 -15 -20 -20 -20 -20 -20 -20 -20 -20 -20 -20 -20 -20 -20 -9 -20 -20
-20 -20 -20 -20 -20 -20 -20 -20 -20 -20 -20 -20 -20 -20 -20 -20 -20 -20 -20 -20 -20 -20 -20 -20 -20 -20 -20 -20 -20 -20 -20 -20 7 9 5 -20 -20 -20 -20 -20 -20 -20 -20 -20 -20 2 -20 5 -20
-20 -20 -20 -20 -20 -20 -20 -20 -20 -20 -20 -20 -20 -20 -20 -20 -20 -20 -20 -20 -20 -20 -20 -20 -20 -20 -20 -20 -20 -20 -20 -20 -20 -10 6 13 -8 -20 -20 -20 -20 -20 -20 -20 -20 -20 -16 -19 3
-20 -20 -20 -20 -20 -20 -20 -20 -20 -20 -20 -20 -20 -20 -20 -20 -20 -20 -20 -20 -20 -20 -20 -20 -20 -20 -20 -20 -20 -20 -20 -20 -20 -20 -20 2 5 7 -20 -20 -20 -20 -20 -20 -20 -20 -20 10 11
-20 -20 -20 -20 -20 -20 -20 -20 -20 -20 -20 -20 -20 -20 -20 -20 -20 -20 -20 -20 -20 -20 -20 -20 -20 -20 -20 -20 -20 -20 -20 -20 -20 -20 -20 -20 -15 5 -2 -14 -20 -20 -1 -20 -11 -6 -20 -20 0
-20 -20 -20 -20 -20 -20 -20 -20 -20 -20 -20 -20 -20 -20 -20 -20 -20 -20 -20 -20 -20 -20 -20 -20 -20 -20 -20 -20 -20 -20 -20 -20 -20 -20 -20 -20 -20 -17 -13 -4 -19 -18 -20 -20 -1 1 14 10 -20
-20 -20 -20 -20 -20 -20 -20 -20 -20 -20 -20 -20 -20 -20 -20 -20 -20 -20 -20 -20 -20 -20 -20 -20 -20 -20 -20 -20 -20 -20 -20 -20 -20 -20 -20 -20 -20 -20 -20 -20 -4 -20 -20 -20 -20 19 16 22 25
-20 -20 -20 -20 -20 -20 -20 -20 -20 -20 -20 -20 -20 -20 -20 -20 -20 -20 -20 -20 -20 -20 -20 -20 -20 -20 -20 -20 -20 -20 -20 -20 -20 -20 -20 -20 -20 -20 -20 -20 -20 -20 7 -20 -20 -20 19 -11 29
-20 -20 -20 -20 -20 -20 -20 -20 -20 -20 -20 -20 -20 -20 -20 -20 -20 -20 -20 -20 -20 -20 -20 -20 -20 -20 -20 -20 -20 -20 -20 -20 -20 -20 -20 -20 -20 -20 -14 -11 -20 -18 3 -8 17 -2 -20 -20 -3
-20 -20 -20 -20 -20 -20 -20 -20 -20 -20 -20 -20 -20 -20 -20 -20 -20 -20 -20 -20 -20 -20 -20 -20 -20 -20 -20 -20 -20 -20 -20 -20 -20 -20 -20 -20 -20 -20 -18 -16 -17 -20 12 23 21 20 20 13 -20
-20 -20 -20 -20 -20 -20 -20 -20 -20 -20 -20 -20 -20 -20 -20 -20 -20 -20 -20 -20 -20 -20 -20 -20 -20 -20 -20 -20 -20 -20 1 -20 -12 -2 -20 -20 -20 -20 -20 -20 7 -12 32 31 23 24 20 22 17
-20 -20 -20 -20 -20 -20 -20 -20 -20 -20 -20 -20 -20 -20 -20 -20 -20 -20 -20 -20 -20 -20 -20 -20 -20 -20 -20 -20 -20 -20 -1 14 9 8 -2 -20 -20 -20 -20 -20 -20 11 -6 13 27 10 20 31 20
-20 -20 -20 -20 -20 -20 -20 -20 -20 -20 -20 -20 -20 -20 -20 -20 -20 -20 -20 -20 -20 -20 -20 -20 -20 -20 -20 -20 -20 -20 -20 -20 -20 -11 -5 -17 -20 -20 -4 2 1 -2 17 7 6 35 35 26 36
-20 -20 -20 -20 -20 -20 -20 -20 -20 -20 -20 -20 -20 -20 -20 -20 -20 -20 -20 -20 -20 -20 -20 -20 -20 -20 -20 -20 -20 -20 -20 -20 -17 -18 -20 7 -20 -20 -20 -20 -18 -19 4 23 5 -9 24 28 37
-20 -20 -20 -20 -20 -20 -20 -20 -20 -20 -20 -20 -20 -20 -20 -20 -20 -20 -20 -20 -20 -20 -20 -20 -20 -20 -20 -20 -20 -20 -20 -20 -20 -18 -20 -11 -20 -6 -20 -20 -19 -13 0 24 29 33 25 22 19
-20 -20 -20 -20 -20 -20 -20 -20 -20 -20 -20 -20 -20 -20 -20 -20 -20 -20 -20 -20 -20 -20 -20 -20 -20 -20 -20 -20 -20 -20 -20 -20 -20 -20 -20 -18 -1 -1 -18 -4 2 14 -19 -6 -20 -13 8 15 0
-20 -20 -20 -20 -20 -20 -20 -20 -20 -20 -20 -20 -20 -20 -20 -20 -20 -20 -20 -20 -20 -20 -20 -20 -20 -20 -20 -20 -20 -20 -20 -20 -20 -20 -20 -20 -20 -17 -16 -20 -20 -20 -20 -20 -20 -20 -20 -20 -10
-20 -20 -20 -20 -20 -20 -20 -20 -20 -20 -20 -20 -20 -20 -20 -20 -20 -20 -20 -20 -20 -20 -20 -20 -20 -20 -20 -20 -20 -20 -20 -20 -20 -20 -20 -20 -20 -20 -20 -20 -20 -20 -20 -20 -20 -20 -20 -11 1
-20 -20 -20 -20 -20 -20 -20 -20 -20 -20 -20 -20 -20 -20 -20 -20 -20 -20 -20 -20 -20 -20 -20 -20 -20 -20 -20 -20 -20 -20 -20 -20 -20 -20 -20 -20 -20 -20 -20 -20 -20 -20 -20 -20 -20 -20 -20 -20 -20
-20 -20 -20 -20 -20 -20 -20 -20 -20 -20 -20 -20 -20 -20 -20 -20 -20 -20 -20 -20 -20 -20 -20 -20 -20 -20 -20 -20 -20 -20 -20 -20 -20 -20 -20 -20 -20 -20 -20 -20 -20 -20 -20 -20 -20 -20 -20 -20 -20
-20 -20 -20 -20 -20 -20 -20 -20 -20 -20 -20 -20 -20 -20 -20 -20 -20 -20 -20 -20 -20 -20 -20 -20 -20 -20 -20 -20 -20 -20 -20 -20 -20 -20 -20 -20 -20 -20 -20 -20 -20 -20 -20 -20 -20 -20 -20 -20 -20
-20 -20 -20 -20 -20 -20 -20 -20 -20 -20 -20 -20 -20 -20 -20 -20 -20 -20 -20 -20 -20 -20 -20 -20 -20 -20 -20 -20 -20 -20 -20 -20 -20 -20 -20 -20 -20 -20 -20 -20 -20 -20 -20 -20 -20 -20 -20 -20 -20

GFSSGP_prec_radar_120.txt.gz
Reflectivity
-20 -20 -20 -20 -20 -20 -20 -20 -20 -20 -20 -20 -20 -20 -20 -20 -20 -20 -20 -20 -20 -20 2 -14 -13 18 -20 -20 -20 -20 20 -20 0 -4 -20 -13 -20 -20 -20 -20 -20 -20 -20 -14 30 26 -20 -20 -20
-20 -20 -20 -20 -20 -20 -20 -20 -20 -20 -20 -20 -20 -20 -20 -20 -20 -20 -20 -20 -20 -20 -8 -20 5 20 15 3 -20 -20 -20 -20 -20 -20 -20 -20 -20 -20 -20 -20 -20 -20 -20 -14 28 2 -10 -20 -20
-20 -20 -20 -20 -20 -20 -20 -20 -20 -20 -20 -20 -20 -20 -20 -20 -20 -20 -20 -20 -20 -20 -20 -20 12 5 5 -9 -20 -20 -20 -20 19 -20 -20 -20 -20 -9 -20 -20 -20 -20 -20 -20 -20 32 26 -20 -20
-20 -20 -20 -20 -20 -20 -20 -20 -20 -20 -20 -20 -20 -20 -20 -20 -20 -20 -20 -20 -20 -20 -20 4 -20 -20 -18 14 6 -20 -20 -20 -20 -20 -20 -20 -20 -20 -20 -20 -20 -20 -20 -20 -20 -19 -20 -20 -20
-20 -20 -20 -20 -20 -20 -20 -20 -20 -20 -20 -20 -20 -20 -20 -20 -20 -20 -20 -20 -20 -20 -20 -20 15 1 7 4 10 -20 -8 -20 -20 -20 -20 -20 -20 -20 -20 -20 -20 -20 -20 -20 -20 -20 -20 -20 -20
-20 -20 -20 -20 -20 -20 -20 -20 -20 -20 -20 -20 -20 -20 -20 -20 -20 -20 -20 -20 -20 -20 -20 -20 -20 6 4 9 6 -20 -20 -20 -7 -12 6 -20 -20 -20 -20 -20 -20 -20 -20 -20 -20 -20 -20 -20 -20
-20 -20 -20 -20 -20 -20 -20 -20 -20 -20 -20 -20 -20 -20 -20 -20 -20 -20 -20 -20 -20 -20 -20 -20 -20 -20 -19 -0 11 7 -20 -20 -20 11 12 13 3 -10 -20 17 -1 -20 -20 -20 -20 -20 -20 -20 7
-20 -20 -20 -20 -20 -20 -20 -20 -20 -20 -20 -20 -20 -20 -20 -20 -20 -20 -20 -20 -20 -20 -20 -20 -20 -20 -20 -20 -20 -13 8 -13 -20 -20 -20 -20 -20 -20 -20 -20 -20 -20 -20 -19 6 -20 -20 -20 -20
-20 -20 -20 -20 -20 -20 -20 -20 -20 -20 -20 -20 -20 -20 -20 -20 -20 -20 -20 -20 -20 -20 -20 -20 -20 -20 -20 -20 -20 -20 -20 -18 2 -3 -12 -20 -20 -20 -20 -20 -20 -20 -20 -20 16 -20 -20 -20 -20
-20 -20 -20 -20 -20 -20 -20 -20 -20 -20 -20 -20 -20 -20 -20 -20 -20 -20 -20 -20 -20 -20 -20 -20 -20 -20 -20 -20 -20 -20 -20 -20 -20 -20 0 5 6 -19 -20 -20 -20 -20 -20 -20 -10 -4 -20 1 -20
-20 -20 -20 -20 -20 -20 -20 -20 -20 -20 -20 -20 -20 -20 -20 -20 -20 -20 -20 -20 -20 -20 -20 -20 -20 -20 -20 -20 -20 -20 -20 -20 -20 -20 -20 -19 8 12 -13 -20 -20 -20 -20 -20 -20 -20 -20 -20 -20
-20 -20 -20 -20 -20 -20 -20 -20 -20 -20 -20 -20 -20 -20 -20 -20 -20 -20 -20 -20 -20 -20 -20 -20 -20 -20 -20 -20 -20 -20 -20 -20 -20 -20 -20 -20 -20 -20 5 -20 -17 -20 -20 -20 -20 -20 -20 -0 26
-20 -20 -20 -20 -20 -20 -20 -20 -20 -20 -20 -20 -20 -20 -20 -20 -20 -20 -20 -20 -20 -20 -20 -20 -20 -20 -20 -20 -20 -20 -20 -20 -20 -20 -20 -20 -20 -20 -20 -20 0 8 -3 -12 -7 4 -18 -4 24
-20 -20 -20 -20 -20 -20 -20 -20 -20 -20 -20 -20 -20 -20 -20 -20 -20 -20 -20 -20 -20 -20 -20 -20 -20 -20 -20 -20 -20 -20 -20 -20 -20 -20 -20 -20 -20 -20 -20 -20 -20 -20 -1 5 -20 -20 21 -20 -2
-20 -20 -20 -20 -20 -20 -20 -20 -20 -20 -20 -20 -20 -20 -20 -20 -20 -20 -20 -20 -20 -20 -20 -20 -20 -20 -20 -20 -20 -20 -20 -20 -20 -20 -20 -20 -20 -20 -20 -20 -20 -20 -20 -20 -20 -20 -20 -15 -5
-20 -20 -20 -20 -20 -20 -20 -20 -20 -20 -20 -20 -20 -20 -20 -20 -20 -20 -20 -20 -20 -20 -20 -20 -20 -20 -20 -20 -20 -20 -20 -20 -20 -20 -20 -20 -20 -20 -20 -20 -20 -20 -20 -20 5 -4 -20 -20 -20
-20 -20 -20 -20 -20 -20 -20 -20 -20 -20 -20 -20 -20 -20 -20 -20 -20 -20 -20 -20 -20 -20 -20 -20 -20 -20 -20 -20 -20 -20 -20 -20 -20 -18 7 -20 -10 -12 -20 -8 -12 -13 -10 -20 -18 0 -2 -20 14
-20 -20 -20 -20 -20 -20 -20 -20 -20 -20 -20 -20 -20 -20 -20 -20 -20 -20 -20 -20 -20 -20 -20 -20 -20 -20 -20 -20 -20 -20 -20 -20 -17 -4 -20 -20 -20 -20 -20 -14 -16 -18 -20 -9 -20 -20 -18 24 -8
-20 -20 -20 -20 -20 -20 -20 -20 -20 -20 -20 -20 -20 -20 -20 -20 -20 -20 -20 -20 -20 -20 -20 -20 -20 -20 -20 -20 -20 -20 -20 -20 -20 -14 -16 -20 -20 -20 -20 -10 -20 -20 6 7 -8 -20 8 13 15
-20 -20 -20 -20 -20 -20 -20 -20 -20 -20 -20 -20 -20 -20 -20 -20 -20 -20 -20 -20 -20 -20 -20 -20 -20 -20 -20 -20 -20 -20 -20 -20 -8 -15 -19 -20 -20 -20 -20 -20 -20 6 1 3 -15 -18 -20 -3 4
-20 -20 -20 -20 -20 -20 -20 -20 -20 -20 -20 -20 -20 -20 -20 -20 -20 -20 -20 -20 -20 -20 -20 -20 -20 -20 -20 -20 -20 -20 -20 -20 -20 -20 -20 -20 -20 -20 -20 -20 -20 -19 -5 -4 5 -19 -20 -3 23
-20 -20 -20 -20 -20 -20 -20 -20 -20 -20 -20 -20 -20 -20 -20 -20 -20 -20 -20 -20 -20 -20 -20 -20 -20 -20 -20 -20 -20 -20 -20 -20 -20 -20 -20 -20 -20 -20 -20 -20 -20 -20 -4 -20 -20 -20 3 -14 -20
-20 -20 -20 -20 -20 -20 -20 -20 -20 -20 -20 -20 -20 -20 -20 -20 -20 -20 -20 -20 -20 -20 -20 -20 -20 -20 -20 -20 -20 -20 -20 -20 -20 -20 -20 -20 -20 -20 -20 -11 -20 -8 -1 14 -0 -15 2 -20 -9
-20 -20 -20 -20 -20 -20 -20 -20 -20 -20 -20 -20 -20 -20 -20 -20 -20 -20 -20 -20 -20 -20 -20 -20 -20 -20 -20 -20 -20 -20 -20 -20 -20 -20 -20 -20 -20 -20 -20 -20 -20 -20 -20 -20 -15 -19 -20 -15 -19
-20 -20 -20 -20 -20 -20 -20 -20 -20 -20 -20 -20 -20 -20 -20 -20 -20 -20 -20 -20 -20 -20 -20 -20 -20 -20 -20 -20 -20 -20 -20 -20 -20 -20 -20 -20 -20 -20 -20 -20 -20 -20 -20 -20 -20 -20 -20 -20 -17
-20 -20 -20 -20 -20 -20 -20 -20 -20 -20 -20 -20 -20 -20 -20 -20 -20 -20 -20 -20 -20 -20 -20 -20 -20 -20 -20 -20 -20 -20 -20 -20 -20 -20 -20 -20 -20 -20 -20 -20 -20 -20 -20 -20 -20 -20 -20 -20 -20
-20 -20 -20 -20 -20 -20 -20 -20 -20 -20 -20 -20 -20 -20 -20 -20 -20 -20 -20 -20 -20 -20 -20 -20 -20 -20 -20 -20 -20 -20 -20 -20 -20 -20 -20 -20 -20 -20 -20 -20 -20 -20 -20 -20 -20 -20 -20 -20 -20
-20 -20 -20 -20 -20 -20 -20 -20 -20 -20 -20 -20 -20 -20 -20 -20 -20 -20 -20 -20 -20 -20 -20 -20 -20 -20 -20 -20 -20 -20 -20 -20 -20 -20 -20 -20 -20 -20 -20 -20 -20 -20 -20 -20 -20 -20 -20 -20 -20
-20 -20 -20 -20 -20 -20 -20 -20 -20 -20 -20 -20 -20 -20 -20 -20 -20 -20 -20 -20 -20 -20 -20 -20 -20 -20 -20 -20 -20 -20 -20 -20 -20 -20 -20 -20 -20 -20 -20 -20 -20 -20 -20 -20 -20 -20 -20 -20 -20
-20 -20 -20 -20 -20 -20 -20 -20 -20 -20 -20 -20 -20 -20 -20 -20 -20 -20 -20 -20 -20 -20 -20 -20 -20 -20 -20 -20 -20 -20 -20 -20 -20 -20 -20 -20 -20 -20 -20 -20 -20 -20 -20 -20 -20 -20 -20 -20 -20

GFSSGP_prec_radar_123.txt.gz
Reflectivity
-20 -20 -20 -20 -20 -20 -20 -20 -20 -20 -20 -20 -20 -20 -20 -20 -20 -20 -20 -20 -10 -20 -19 -20 20 -17 -20 -20 -20 -20 -20 -20 -20 -20 -20 -15 -20 -20 -20 -20 -20 -20 -20 -20 23 -8 -20 -20 5
-20 -20 -20 -20 -20 -20 -20 -20 -20 -20 -20 -20 -20 -20 -20 -20 -20 -20 -20 -20 -20 -20 -20 -8 9 18 -20 -20 -20 -7 -20 -20 -20 -20 -20 -20 -20 -20 -20 -20 -20 -20 -20 -20 -20 9 -17 0 -20
-20 -20 -20 -20 -20 -20 -20 -20 -20 -20 -20 -20 -20 -20 -20 -20 -20 -20 -20 -20 -20 -20 -20 -20 -20 -15 16 -3 -20 -20 -20 -20 -20 -20 -20 -20 -20 -20 -20 -20 -20 -20 -20 -20 -20 -18 -20 -2 -20
-20 -20 -20 -20 -20 -20 -20 -20 -20 -20 -20 -20 -20 -20 -20 -20 -20 -20 -20 -20 -20 -20 -20 -20 -20 -20 -20 -13 -19 -4 -20 -20 -20 -20 -20 -20 -20 -20 -20 -20 -20 -20 -20 -20 -20 -20 -20 -20 -20
-20 -20 -20 -20 -20 -20 -20 -20 -20 -20 -20 -20 -20 -20 -20 -20 -20 -20 -20 -20 -20 -20 -20 -20 -15 8 -12 12 6 9 -10 -12 -18 -20 -20 -20 -14 -20 -19 -20 -20 -20 -20 -20 -20 -20 -20 -20 -20
-20 -20 -20 -20 -20 -20 -20 -20 -20 -20 -20 -20 -20 -20 -20 -20 -20 -20 -20 -20 -20 -20 -20 -20 -20 -20 3 -5 8 4 -20 -20 -20 -20 -20 -20 -20 -20 -20 32 -20 -20 -20 -20 -20 -20 -10 -20 -20
-20 -20 -20 -20 -20 -20 -20 -20 -20 -20 -20 -20 -20 -20 -20 -20 -20 -20 -20 -20 -20 -20 -20 -20 -20 -20 -20 -20 -20 -20 -8 -2 -20 -20 -20 -20 -20 -20 -20 -20 -20 -11 -20 -7 8 -20 -6 24 13
-20 -20 -20 -20 -20 -20 -20 -20 -20 -20 -20 -20 -20 -20 -20 -20 -20 -20 -20 -20 -20 -20 -20 -20 -20 -20 -20 -20 -20 -20 -20 -20 -4 -14 -20 -20 -20 -20 -20 -20 -20 -20 23 -20 -20 -20 21 -19 22
-20 -20 -20 -20 -20 -20 -20 -20 -20 -20 -20 -20 -20 -20 -20 -20 -20 -20 -20 -20 -20 -20 -20 -20 -20 -20 -20 -20 -20 -20 -20 -20 -20 -20 -6 -0 -16 -19 -20 -20 -20 -20 -20 -20 -20 -4 -18 -13 -20
-20 -20 -20 -20 -20 -20 -20 -20 -20 -20 -20 -20 -20 -20 -20 -20 -20 -20 -20 -20 -20 -20 -20 -20 -20 -20 -20 -20 -20 -20 -20 -20 -20 -20 -20 -20 -20 -13 1 1 -20 -20 -20 -20 -20 -20 20 1 -12
-20 -20 -20 -20 -20 -20 -20 -20 -20 -20 -20 -20 -20 -20 -20 -20 -20 -20 -20 -20 -20 -20 -20 -20 -20 -20 -20 -20 -20 -20 -20 -20 -20 -20 -20 -20 -20 -20 -20 -20 -18 -20 -20 -20 -20 -20 -20 -20 1
-20 -20 -20 -20 -20 -20 -20 -20 -20 -20 -20 -20 -20 -20 -20 -20 -20 -20 -20 -20 -20 -20 -20 -20 -20 -20 -20 -20 -20 -20 -20 -20 -20 -20 -20 -20 -20 -20 -20 -20 -20 -20 -20 -20 -20 -20 -20 -20 -20
-20 -20 -20 -20 -20 -20 -20 -20 -20 -20 -20 -20 -20 -20 -20 -20 -20 -20 -20 -20 -20 -20 -20 -20 -20 -20 -20 -20 -20 -20 -20 -20 -20 -20 -20 -20 -20 -20 -20 -20 -20 -20 -20 -20 3 -12 -20 -20 -15
-20 -20 -20 -20 -20 -20 -20 -20 -20 -20 -20 -20 -20 -20 -20 -20 -20 -20 -20 -20 -20 -20 -20 -20 -20 -20 -20 -20 -20 -20 -20 -20 -20 -20 -20 -20 -20 -20 -20 -20 -20 -20 -20 -20 -20 -19 -4 2 -6
-20 -20 -20 -20 -20 -20 -20 -20 -20 -20 -20 -20 -20 -20 -20 -20 -20 -20 -20 -20 -20 -20 -20 -20 -20 -20 -20 -20 -20 -20 -20 -20 -20 -20 -20 -20 -20 -20 -20 -20 -20 -20 -20 -20 -11 -20 -20 -1 6
-20 -20 -20 -20 -20 -20 -20 -20 -20 -20 -20 -20 -20 -20 -20 -20 -20 -20 -20 -20 -20 -20 -20 -20 -20 -20 -20 -20 -20 -20 -20 -20 -20 -14 3 9 -5 -20 -2 -11 -19 0 3 -2 5 9 7 -16 -7
-20 -20 -20 -20 -20 -20 -20 -20 -20 -20 -20 -20 -20 -20 -20 -20 -20 -20 -20 -20 -20 -20 -20 -20 -20 -20 -20 -20 -20 -20 -20 -11 -12 -17 -20 -1 0 -8 -20 -9 -6 -16 -5 11 -2 -4 9 3 -4
-20 -20 -20 -20 -20 -20 -20 -20 -20 -20 -20 -20 -20 -20 -20 -20 -20 -20 -20 -20 -20 -20 -20 -20 -20 -20 -20 -20 -20 -20 -20 4 -18 -20 -20 -20 -20 -20 -20 -20 -20 -20 -20 -20 -20 -14 19 0 -16
-20 -20 -20 -20 -20 -20 -20 -20 -20 -20 -20 -20 -20 -20 -20 -20 -20 -20 -20 -20 -20 -20 -20 -20 -20 -20 -20 -20 -20 -20 -20 -20 -20 -20 -20 -20 -20 -20 -20 -20 -20 -20 -20 -20 -20 -20 -20 6 -20
-20 -20 -20 -20 -20 -20 -20 -20 -20 -20 -20 -20 -20 -20 -20 -20 -20 -20 -20 -20 -20 -20 -20 -20 -20 -20 -20 -20 -20 -20 -20 -20 -20 -20 -20 -20 -20 -20 -20 -20 -20 -20 -20 -20 -20 -20 -18 -0 -20
-20 -20 -20 -20 -20 -20 -20 -20 -20 -20 -20 -20 -20 -20 -20 -20 -20 -20 -20 -20 -20 -20 -20 -20 -20 -20 -20 -20 -20 -20 -20 -20 -20 -20 -20 -20 -20 -20 -20 -20 -20 -20 -20 -20 -20 -20 -20 -10 -20
-20 -20 -20 -20 -20 -20 -20 -20 -20 -20 -20 -20 -20 -20 -20 -20 -20 -20 -20 -20 -20 -20 -20 -20 -20 -20 -20 -20 -20 -20 -20 -20 -20 -20 -20 -20 -20 -20 -20 -20 -20 -20 -20 -20 -20 -20 -20 -19 -20
-20 -20 -20 -20 -20 -20 -20 -20 -20 -20 -20 -20 -20 -20 -20 -20 -20 -20 -20 -20 -20 -20 -20 -20 -20 -20 -20 -20 -20 -20 -20 -20 -20 -20 -20 -20 -20 -20 -20 -20 -20 -20 -20 -20 -20 -20 -20 -20 -20
-20 -20 -20 -20 -20 -20 -20 -20 -20 -20 -20 -20 -20 -20 -20 -20 -20 -20 -20 -20 -20 -20 -20 -20 -20 -20 -20 -20 -20 -20 -20 -20 -20 -20 -20 -20 -20 -20 -20 -20 -20 -20 -20 -20 -20 -20 -20 -20 -20
-20 -20 -20 -20 -20 -20 -20 -20 -20 -20 -20 -20 -20 -20 -20 -20 -20 -20 -20 -20 -20 -20 -20 -20 -20 -20 -20 -20 -20 -20 -20 -20 -20 -20 -20 -20 -20 -20 -20 -20 -20 -20 -20 -20 -20 -20 -20 -20 -20
-20 -20 -20 -20 -20 -20 -20 -20 -20 -20 -20 -20 -20 -20 -20 -20 -20 -20 -20 -20 -20 -20 -20 -20 -20 -20 -20 -20 -20 -20 -20 -20 -20 -20 -20 -20 -20 -20 -20 -20 -20 -20 -20 -20 -20 -20 -20 -20 -20
-20 -20 -20 -20 -20 -20 -20 -20 -20 -20 -20 -20 -20 -20 -20 -20 -20 -20 -20 -20 -20 -20 -20 -20 -20 -20 -20 -20 -20 -20 -20 -20 -20 -20 -20 -20 -20 -20 -20 -20 -20 -20 -20 -20 -20 -20 -20 -20 -20
-20 -20 -20 -20 -20 -20 -20 -20 -20 -20 -20 -20 -20 -20 -20 -20 -20 -20 -20 -20 -20 -20 -20 -20 -20 -20 -20 -20 -20 -20 -20 -20 -20 -20 -20 -20 -20 -20 -20 -20 -20 -20 -20 -20 -20 -20 -20 -20 -20
-20 -20 -20 -20 -20 -20 -20 -20 -20 -20 -20 -20 -20 -20 -20 -20 -20 -20 -20 -20 -20 -20 -20 -20 -20 -20 -20 -20 -20 -20 -20 -20 -20 -20 -20 -20 -20 -20 -20 -20 -20 -20 -20 -20 -20 -20 -20 -20 -20
-20 -20 -20 -20 -20 -20 -20 -20 -20 -20 -20 -20 -20 -20 -20 -20 -20 -20 -20 -20 -20 -20 -20 -20 -20 -20 -20 -20 -20 -20 -20 -20 -20 -20 -20 -20 -20 -20 -20 -20 -20 -20 -20 -20 -20 -20 -20 -20 -20

GFSSGP_prec_radar_126.txt.gz
Reflectivity
-20 -20 -20 -20 -20 -20 -20 -20 -20 -20 -20 -20 -20 -20 -20 -20 -20 -19 -20 -20 -20 -20 -15 -4 12 -20 -20 -20 -20 -20 -20 -20 -20 -20 -20 -20 -20 -20 -20 -20 -20 -20 -20 -11 15 -8 -20 -20 -17
-20 -20 -20 -20 -20 -20 -20 -20 -20 -20 -20 -20 -20 -20 -20 -20 -20 -20 -20 -20 -20 -20 -20 -20 -20 12 -20 -20 -20 -20 -20 -20 -1 1 -20 -20 -20 -20 -20 -20 -20 -20 -20 -20 -20 -20 -20 -5 -20
-20 -20 -20 -20 -20 -20 -20 -20 -20 -20 -20 -20 -20 -20 -20 -20 -20 -20 -20 -20 -20 -20 -20 -20 -20 -20 -10 -20 -20 -10 -20 -20 -20 -20 -20 -20 -11 -20 -20 -20 -20 -20 -20 -20 -20 -20 -20 -6 -20
-20 -20 -20 -20 -20 -20 -20 -20 -20 -20 -20 -20 -20 -20 -20 -20 -20 -20 -20 -20 -20 -20 -20 -20 -20 -20 -20 -20 -20 -20 -19 -20 -20 -20 -19 -5 4 -20 29 30 6 -20 -20 -20 -20 -20 -20 -20 -20
-20 -20 -20 -20 -20 -20 -20 -20 -20 -20 -20 -20 -20 -20 -20 -20 -20 -20 -20 -20 -20 -20 -20 -20 -20 -20 -20 -20 -20 -20 -20 -6 -20 -20 -20 -20 -20 -20 -20 -20 -20 -20 -20 -20 -20 -20 7 1 -20
-20 -20 -20 -20 -20 -20 -20 -20 -20 -20 -20 -20 -20 -20 -20 -20 -20 -20 -20 -20 -20 -20 -20 -20 -20 -20 -20 -20 -20 -20 -6 -13 -20 -20 -20 -20 -20 -20 -20 -20 -20 -20 -20 -20 -20 -18 6 2 -3
-20 -20 -20 -20 -20 -20 -20 -20 -20 -20 -20 -20 -20 -20 -20 -20 -20 -20 -20 -20 -20 -20 -20 -20 -20 -20 -20 -20 -20 -20 -20 -20 -20 -14 -20 -20 -20 -20 -20 -20 -5 -20 -20 -20 -20 -20 -20 -16 7
-20 -20 -20 -20 -20 -20 -20 -20 -20 -20 -20 -20 -20 -20 -20 -20 -20 -20 -20 -20 -20 -20 -20 -20 -20 -20 -20 -20 -20 -20 -20 -20 -20 -20 -20 -20 -20 -20 -20 -20 -20 -20 -20 -20 -20 -20 -20 -18 -20
-20 -20 -20 -20 -20 -20 -20 -20 -20 -20 -20 -20 -20 -20 -20 -20 -20 -20 -20 -20 -20 -20 -20 -20 -20 -20 -20 -20 -20 -20 -20 -20 -20 -20 -20 -20 -20 -20 -20 -20 -20 -20 -20 -20 -20 -20 -6 -20 -20
-20 -20 -20 -20 -20 -20 -20 -20 -20 -20 -20 -20 -20 -20 -20 -20 -20 -20 -20 -20 -20 -20 -20 -20 -20 -20 -20 -20 -20 -20 -20 -20 -20 -20 -20 -20 -20 -20 -20 -20 -20 -20 -20 -20 -20 -20 -20 -20 -20
-20 -20 -20 -20 -20 -20 -20 -20 -20 -20 -20 -20 -20 -20 -20 -20 -20 -20 -20 -20 -20 -20 -20 -20 -20 -20 -20 -20 -20 -20 -20 -20 -20 -20 -20 -20 -20 -20 -20 -20 -20 -20 -20 -20 -6 14 10 5 -2
-20 -20 -20 -20 -20 -20 -20 -20 -20 -20 -20 -20 -20 -20 -20 -20 -20 -20 -20 -20 -20 -20 -20 -20 -20 -20 -20 -20 -20 -20 -20 -20 -20 -20 -20 -20 -20 -20 -20 -20 -20 -20 -20 -20 -20 -20 -20 16 15
-20 -20 -20 -20 -20 -20 -20 -20 -20 -20 -20 -20 -20 -20 -20 -20 -20 -20 -20 -20 -20 -20 -20 -20 -20 -20 -20 -20 -20 -20 -20 -20 -20 -20 -20 -20 -20 -20 -20 -20 -20 -20 -20 -20 -20 -20 -20 -20 -20
-20 -20 -20 -20 -20 -20 -20 -20 -20 -20 -20 -20 -20 -20 -20 -20 -20 -20 -20 -20 -20 -20 -20 -20 -20 -20 -20 -20 -20 -20 -20 -20 -20 -20 -20 -20 -20 -20 -20 -20 -20 -20 -20 -20 -20 -20 -20 -0 2
-20 -20 -20 -20 -20 -20 -20 -20 -20 -20 -20 -20 -20 -20 -20 -20 -20 -20 -20 -20 -20 -20 -20 -20 -20 -20 -20 -20 -20 -20 -20 -20 -20 -20 -0 -20 -20 -20 -20 -8 -20 -20 -20 -20 -20 -20 -15 5 6
-20 -20 -20 -20 -20 -20 -20 -20 -20 -20 -20 -20 -20 -20 -20 -20 -20 -20 -20 -20 -20 -20 -20 -20 -20 -20 -20 -20 -20 -20 -20 -20 -16 -20 -20 -18 -20 -20 -20 -20 -20 -20 -20 -20 -20 -18 2 6 11
-20 -20 -20 -20 -20 -20 -20 -20 -20 -20 -20 -20 -20 -20 -20 -20 -20 -20 -20 -20 -20 -20 -20 -20 -20 -20 -20 -20 -20 -20 -14 -20 -10 -20 -20 -20 -20 -20 -20 -20 -16 -4 -5 -2 3 -6 5 -11 -5
-20 -20 -20 -20 -20 -20 -20 -20 -20 -20 -20 -20 -20 -20 -20 -20 -20 -20 -20 -20 -20 -20 -20 -20 -20 -20 -20 -20 -20 -20 -20 -8 -4 -17 -20 -20 -20 -20 -20 -20 -20 -20 -20 -9 -20 -8 8 -13 -10
-20 -20 -20 -20 -20 -20 -20 -20 -20 -20 -20 -20 -20 -20 -20 -20 -20 -20 -20 -20 -20 -20 -20 -20 -20 -20 -20 -20 -20 -20 -18 -20 -6 -20 -20 -20 -20 -20 -20 -20 -4 -20 -20 -20 -20 -20 -17 6 -20
-20 -20 -20 -20 -20 -20 -20 -20 -20 -20 -20 -20 -20 -20 -20 -20 -20 -20 -20 -20 -20 -20 -20 -20 -20 -20 -20 -20 -20 -20 -20 -18 -20 -20 -20 -20 -20 -20 -20 -20 -20 -20 -20 -20 -20 -20 -19 0 -1
-20 -20 -20 -20 -20 -20 -20 -20 -20 -20 -20 -20 -20 -20 -20 -20 -20 -20 -20 -20 -20 -20 -20 -20 -20 -20 -20 -20 -20 -20 -7 -20 -20 -20 -20 -20 -20 -20 -20 -20 -20 -20 -20 -20 -20 -20 -20 -8 -3
-20 -20 -20 -20 -20 -20 -20 -20 -20 -20 -20 -20 -20 -20 -20 -20 -20 -20 -20 -20 -20 -20 -20 -20 -20 -20 -20 -20 -20 -20 -20 -20 -20 -20 -20 -20 -20 -20 -20 -20 -20 -20 -20 -20 -20 -20 -20 -20 -20
-20 -20 -20 -20 -20 -20 -20 -20 -20 -20 -20 -20 -20 -20 -20 -20 -20 -20 -20 -20 -20 -20 -20 -20 -20 -20 -20 -20 -20 -20 -20 -20 -20 -20 -20 -20 -20 -20 -20 -20 -20 -20 -20 -20 -20 -20 -20 -20 -20
-20 -20 -20 -20 -20 -20 -20 -20 -20 -20 -20 -20 -20 -20 -20 -20 -20 -20 -20 -20 -20 -20 -20 -20 -20 -20 -20 -20 -20 -20 -20 -20 -20 -20 -20 -20 -20 -20 -20 -20 -20 -20 -20 -20 -20 -20 -20 -20 -20
-20 -20 -20 -20 -6 -20 -20 -20 -20 -20 -20 -20 -20 -20 -20 -20 -20 -20 -20 -20 -20 -20 -20 -20 -20 -20 -20 -20 -20 -20 -20 -20 -20 -20 -20 -20 -20 -20 -20 -20 -20 -20 -20 -20 -20 -20 -20 -20 -20
-20 -20 -20 -20 -20 -20 -20 -20 -20 -20 -20 -20 -20 -20 -20 -20 -20 -20 -20 -20 -20 -20 -20 -20 -20 -20 -20 -20 -20 -20 -20 -20 -20 -20 -20 -20 -20 -20 -20 -20 -20 -20 -20 -20 -20 -20 -20 -20 -20
-20 -20 -20 -20 -20 -20 -20 -20 -20 -20 -20 -20 -20 -20 -20 -20 -20 -20 -20 -20 -20 -20 -20 -20 -20 -20 -20 -20 -20 -20 -20 -20 -20 -20 -20 -20 -20 -20 -20 -20 -20 -20 -20 -20 -20 -20 -20 -20 -20
-20 -20 -20 -20 -20 -20 -20 -20 -20 -20 -20 -20 -20 -20 -20 -20 -20 -20 -20 -20 -20 -20 -20 -20 -20 -20 -20 -20 -20 -20 -20 -20 -20 -20 -20 -20 -20 -20 -20 -20 -20 -20 -20 -20 -20 -20 -20 -20 -20
-20 -20 -20 -20 -20 -20 -20 -20 -20 -20 -20 -20 -20 -20 -20 -20 -20 -20 -20 -20 -20 -20 -20 -20 -20 -20 -20 -20 -20 -20 -20 -20 -20 -20 -20 -20 -20 -20 -20 -20 -20 -20 -20 -20 -20 -20 -20 -20 -20
-20 -20 -20 -20 -20 -20 -20 -20 -20 -20 -20 -20 -20 -20 -20 -20 -20 -20 -20 -20 -20 -20 -20 -20 -20 -20 -20 -20 -20 -20 -20 -20 -20 -20 -20 -20 -20 -20 -20 -20 -20 -20 -20 -20 -20 -20 -20 -20 -20